Time,TemperatureF,DewpointF,PressureIn,WindDirection,WindDirectionDegrees,WindSpeedMPH,WindSpeedGustMPH,Humidity,HourlyPrecipIn,Conditions,Clouds,dailyrainin,SoftwareType,DateUTC
2013-06-12 00:00:00,81.2,80.6,29.97,West,261,7.0,7.0,98,0.00,,BKN030,0.00,VWS V14.01,2013-06-12 04:00:00,
2013-06-12 00:01:00,81.2,80.6,29.97,WSW,248,5.0,7.0,98,0.00,,BKN085,0.00,VWS V14.01,2013-06-12 04:01:00,
2013-06-12 00:02:00,81.2,80.6,29.97,WSW,250,3.0,7.0,98,0.00,,BKN030,0.00,VWS V14.01,2013-06-12 04:02:00,
2013-06-12 00:03:00,81.2,80.6,29.97,WSW,250,2.0,7.0,98,0.00,,BKN030,0.00,VWS V14.01,2013-06-12 04:03:00,
2013-06-12 00:04:00,81.2,80.6,29.97,WNW,293,3.0,7.0,98,0.00,,BKN030,0.00,VWS V14.01,2013-06-12 04:04:00,
2013-06-12 00:05:00,81.2,80.6,29.97,SW,231,6.0,7.0,98,0.00,,BKN030,0.00,VWS V14.01,2013-06-12 04:05:00,
2013-06-12 00:06:00,81.2,80.6,29.97,WSW,246,5.0,6.0,98,0.00,,BKN085,0.00,VWS V14.01,2013-06-12 04:06:00,
2013-06-12 00:07:00,81.2,80.6,29.97,WSW,241,2.0,6.0,98,0.00,,BKN030,0.00,VWS V14.01,2013-06-12 04:07:00,
2013-06-12 00:08:00,81.2,80.6,29.97,SW,231,7.0,7.0,98,0.00,,BKN030,0.00,VWS V14.01,2013-06-12 04:08:00,
2013-06-12 00:09:00,81.2,80.6,29.97,SW,232,5.0,10.0,98,0.00,,BKN030,0.00,VWS V14.01,2013-06-12 04:09:00,
2013-06-12 00:10:00,81.2,80.6,29.97,WSW,239,6.0,7.0,98,0.00,,BKN030,0.00,VWS V14.01,2013-06-12 04:10:00,
2013-06-12 00:11:00,81.4,80.8,29.97,SW,215,5.0,5.0,98,0.00,,BKN085,0.00,VWS V14.01,2013-06-12 04:11:00,
2013-06-12 00:12:00,81.4,80.8,29.97,WSW,250,4.0,5.0,98,0.00,,BKN030,0.00,VWS V14.01,2013-06-12 04:12:00,
2013-06-12 00:13:00,81.4,80.8,29.97,SW,227,2.0,7.0,98,0.00,,BKN030,0.00,VWS V14.01,2013-06-12 04:13:00,
2013-06-12 00:14:00,81.4,80.8,29.97,WSW,257,4.0,7.0,98,0.00,,BKN030,0.00,VWS V14.01,2013-06-12 04:14:00,
2013-06-12 00:15:00,81.4,80.8,29.97,SW,232,4.0,7.0,98,0.00,,BKN030,0.00,VWS V14.01,2013-06-12 04:15:00,
2013-06-12 00:16:00,81.4,80.8,29.97,West,262,4.0,4.0,98,0.00,,BKN085,0.00,VWS V14.01,2013-06-12 04:16:00,
2013-06-12 00:17:00,81.4,80.8,29.97,WSW,257,2.0,4.0,98,0.00,,BKN030,0.00,VWS V14.01,2013-06-12 04:17:00,
2013-06-12 00:18:00,81.4,80.8,29.97,SW,236,4.0,4.0,98,0.00,,BKN030,0.00,VWS V14.01,2013-06-12 04:18:00,
2013-06-12 00:19:00,81.4,80.8,29.97,WSW,252,3.0,9.0,98,0.00,,BKN030,0.00,VWS V14.01,2013-06-12 04:19:00,
2013-06-12 00:20:00,81.4,80.8,29.97,WSW,253,4.0,4.0,98,0.00,,BKN030,0.00,VWS V14.01,2013-06-12 04:20:00,
2013-06-12 00:21:00,81.4,80.8,29.97,SW,222,4.0,4.0,98,0.00,,BKN085,0.00,VWS V14.01,2013-06-12 04:21:00,
2013-06-12 00:22:00,81.4,80.8,29.97,West,262,5.0,5.0,98,0.00,,BKN030,0.00,VWS V14.01,2013-06-12 04:22:00,
2013-06-12 00:23:00,81.4,80.8,29.97,SW,221,4.0,5.0,98,0.00,,BKN030,0.00,VWS V14.01,2013-06-12 04:23:00,
2013-06-12 00:24:00,81.4,80.8,29.97,SW,227,3.0,5.0,98,0.00,,BKN030,0.00,VWS V14.01,2013-06-12 04:24:00,
2013-06-12 00:25:00,81.4,80.8,29.97,SSW,207,6.0,6.0,98,0.00,,BKN030,0.00,VWS V14.01,2013-06-12 04:25:00,
2013-06-12 00:26:00,81.4,80.8,29.97,SSW,204,5.0,5.0,98,0.00,,BKN085,0.00,VWS V14.01,2013-06-12 04:26:00,
2013-06-12 00:27:00,81.4,80.8,29.97,SSW,209,4.0,5.0,98,0.00,,BKN030,0.00,VWS V14.01,2013-06-12 04:27:00,
2013-06-12 00:28:00,81.2,80.6,29.97,WSW,244,4.0,5.0,98,0.00,,BKN030,0.00,VWS V14.01,2013-06-12 04:28:00,
2013-06-12 00:29:00,81.2,80.6,29.97,SW,220,5.0,5.0,98,0.00,,BKN030,0.00,VWS V14.01,2013-06-12 04:29:00,
2013-06-12 00:30:00,81.2,80.6,29.97,SW,226,6.0,6.0,98,0.00,,BKN030,0.00,VWS V14.01,2013-06-12 04:30:00,
2013-06-12 00:31:00,81.2,80.6,29.97,SSW,202,7.0,7.0,98,0.00,,BKN085,0.00,VWS V14.01,2013-06-12 04:31:00,
2013-06-12 00:32:00,81.4,80.8,29.97,SW,226,9.0,9.0,98,0.00,,BKN030,0.00,VWS V14.01,2013-06-12 04:32:00,
2013-06-12 00:33:00,81.4,80.8,29.97,SW,214,6.0,10.0,98,0.00,,BKN030,0.00,VWS V14.01,2013-06-12 04:33:00,
2013-06-12 00:34:00,81.4,80.8,29.97,SW,217,6.0,7.0,98,0.00,,BKN030,0.00,VWS V14.01,2013-06-12 04:34:00,
2013-06-12 00:35:00,81.4,80.8,29.97,SW,215,8.0,10.0,98,0.00,,BKN030,0.00,VWS V14.01,2013-06-12 04:35:00,
2013-06-12 00:36:00,81.4,80.8,29.97,SW,214,9.0,9.0,98,0.00,,BKN085,0.00,VWS V14.01,2013-06-12 04:36:00,
2013-06-12 00:37:00,81.4,80.8,29.97,SW,231,6.0,9.0,98,0.00,,BKN030,0.00,VWS V14.01,2013-06-12 04:37:00,
2013-06-12 00:38:00,81.4,80.8,29.97,WSW,240,6.0,7.0,98,0.00,,BKN030,0.00,VWS V14.01,2013-06-12 04:38:00,
2013-06-12 00:40:00,81.2,80.6,29.97,SW,217,5.0,12.0,98,0.00,,BKN030,0.00,VWS V14.01,2013-06-12 04:40:00,
2013-06-12 00:41:00,81.2,80.6,29.97,SW,216,10.0,10.0,98,0.00,,BKN100,0.00,VWS V14.01,2013-06-12 04:41:00,
2013-06-12 00:42:00,81.2,80.6,29.97,SW,228,9.0,10.0,98,0.00,,BKN030,0.00,VWS V14.01,2013-06-12 04:42:00,
2013-06-12 00:43:00,81.2,80.6,29.97,SW,236,10.0,10.0,98,0.00,,BKN030,0.00,VWS V14.01,2013-06-12 04:43:00,
2013-06-12 00:44:00,81.2,80.6,29.97,SW,232,7.0,10.0,98,0.00,,BKN030,0.00,VWS V14.01,2013-06-12 04:44:00,
2013-06-12 00:45:00,81.2,80.6,29.97,SSW,199,10.0,10.0,98,0.00,,BKN030,0.00,VWS V14.01,2013-06-12 04:45:00,
2013-06-12 00:46:00,81.2,80.6,29.97,SSW,207,8.0,10.0,98,0.00,,BKN100,0.00,VWS V14.01,2013-06-12 04:46:00,
2013-06-12 00:47:00,81.2,80.6,29.97,SW,220,8.0,10.0,98,0.00,,BKN030,0.00,VWS V14.01,2013-06-12 04:47:00,
2013-06-12 00:48:00,81.2,80.6,29.97,SW,232,6.0,11.0,98,0.00,,BKN030,0.00,VWS V14.01,2013-06-12 04:48:00,
2013-06-12 00:49:00,81.2,80.6,29.97,SW,220,10.0,10.0,98,0.00,,BKN030,0.00,VWS V14.01,2013-06-12 04:49:00,
2013-06-12 00:50:00,81.2,80.6,29.97,SW,215,8.0,11.0,98,0.00,,BKN030,0.00,VWS V14.01,2013-06-12 04:50:00,
2013-06-12 00:51:00,81.4,80.8,29.97,SSW,200,10.0,10.0,98,0.00,,BKN100,0.00,VWS V14.01,2013-06-12 04:51:00,
2013-06-12 00:52:00,81.4,80.8,29.97,SSW,209,10.0,10.0,98,0.00,,BKN030,0.00,VWS V14.01,2013-06-12 04:52:00,
2013-06-12 00:53:00,81.4,80.8,29.97,SW,228,9.0,10.0,98,0.00,,BKN030,0.00,VWS V14.01,2013-06-12 04:53:00,
2013-06-12 00:54:00,81.4,80.8,29.97,SW,217,5.0,9.0,98,0.00,,BKN030,0.00,VWS V14.01,2013-06-12 04:54:00,
2013-06-12 00:55:00,81.4,80.8,29.97,SSW,202,7.0,7.0,98,0.00,,BKN030,0.00,VWS V14.01,2013-06-12 04:55:00,
2013-06-12 00:56:00,81.4,80.8,29.97,SW,232,7.0,7.0,98,0.00,,BKN100,0.00,VWS V14.01,2013-06-12 04:56:00,
2013-06-12 00:57:00,81.4,80.8,29.97,SSW,211,7.0,9.0,98,0.00,,BKN030,0.00,VWS V14.01,2013-06-12 04:57:00,
2013-06-12 00:58:00,81.4,80.8,29.97,SW,219,8.0,9.0,98,0.00,,BKN030,0.00,VWS V14.01,2013-06-12 04:58:00,
2013-06-12 00:59:00,81.4,80.8,29.97,SSW,197,7.0,9.0,98,0.00,,BKN030,0.00,VWS V14.01,2013-06-12 04:59:00,
2013-06-12 01:00:00,81.4,80.8,29.97,SW,221,6.0,9.0,98,0.00,,BKN030,0.00,VWS V14.01,2013-06-12 05:00:00,
2013-06-12 01:01:00,81.4,80.8,29.97,SSW,208,11.0,11.0,98,0.00,,BKN100,0.00,VWS V14.01,2013-06-12 05:01:00,
2013-06-12 01:02:00,81.4,80.8,29.97,SW,224,9.0,11.0,98,0.00,,BKN030,0.00,VWS V14.01,2013-06-12 05:02:00,
2013-06-12 01:03:00,81.4,80.8,29.97,SW,220,6.0,10.0,98,0.00,,BKN030,0.00,VWS V14.01,2013-06-12 05:03:00,
2013-06-12 01:04:00,81.4,80.8,29.97,SSW,208,7.0,10.0,98,0.00,,BKN030,0.00,VWS V14.01,2013-06-12 05:04:00,
2013-06-12 01:05:00,81.4,80.8,29.97,SW,218,7.0,10.0,98,0.00,,BKN030,0.00,VWS V14.01,2013-06-12 05:05:00,
2013-06-12 01:06:00,81.4,80.8,29.97,SSW,203,7.0,7.0,98,0.00,,BKN100,0.00,VWS V14.01,2013-06-12 05:06:00,
2013-06-12 01:07:00,81.4,80.8,29.97,WSW,256,6.0,8.0,98,0.00,,BKN030,0.00,VWS V14.01,2013-06-12 05:07:00,
2013-06-12 01:08:00,81.4,80.8,29.97,WSW,242,4.0,6.0,98,0.00,,BKN030,0.00,VWS V14.01,2013-06-12 05:08:00,
2013-06-12 01:09:00,81.4,80.8,29.97,SW,232,3.0,6.0,98,0.00,,BKN030,0.00,VWS V14.01,2013-06-12 05:09:00,
2013-06-12 01:10:00,81.4,80.8,29.97,WSW,240,3.0,7.0,98,0.00,,BKN030,0.00,VWS V14.01,2013-06-12 05:10:00,
2013-06-12 01:11:00,81.4,80.8,29.97,SW,214,5.0,5.0,98,0.00,,BKN100,0.00,VWS V14.01,2013-06-12 05:11:00,
2013-06-12 01:12:00,81.4,80.8,29.97,WSW,256,2.0,5.0,98,0.00,,BKN030,0.00,VWS V14.01,2013-06-12 05:12:00,
2013-06-12 01:13:00,81.4,80.8,29.97,WSW,254,3.0,3.0,98,0.00,,BKN030,0.00,VWS V14.01,2013-06-12 05:13:00,
2013-06-12 01:14:00,81.4,80.8,29.97,WSW,239,2.0,4.0,98,0.00,,BKN030,0.00,VWS V14.01,2013-06-12 05:14:00,
2013-06-12 01:15:00,81.4,80.8,29.97,WSW,255,2.0,3.0,98,0.00,,BKN030,0.00,VWS V14.01,2013-06-12 05:15:00,
2013-06-12 01:16:00,81.4,80.8,29.97,WSW,241,4.0,4.0,98,0.00,,BKN100,0.00,VWS V14.01,2013-06-12 05:16:00,
2013-06-12 01:17:00,81.4,80.8,29.97,SW,236,2.0,4.0,98,0.00,,BKN030,0.00,VWS V14.01,2013-06-12 05:17:00,
2013-06-12 01:18:00,81.4,80.8,29.97,WSW,246,4.0,4.0,98,0.00,,BKN030,0.00,VWS V14.01,2013-06-12 05:18:00,
2013-06-12 01:19:00,81.4,80.8,29.97,WSW,254,2.0,4.0,98,0.00,,BKN030,0.00,VWS V14.01,2013-06-12 05:19:00,
2013-06-12 01:20:00,81.4,80.8,29.97,WSW,240,5.0,5.0,98,0.00,,BKN030,0.00,VWS V14.01,2013-06-12 05:20:00,
2013-06-12 01:21:00,81.4,80.8,29.97,WSW,240,4.0,6.0,98,0.00,,BKN100,0.00,VWS V14.01,2013-06-12 05:21:00,
2013-06-12 01:22:00,81.2,80.6,29.97,WSW,249,2.0,6.0,98,0.00,,BKN030,0.00,VWS V14.01,2013-06-12 05:22:00,
2013-06-12 01:23:00,81.2,80.6,29.97,SW,234,5.0,5.0,98,0.00,,BKN030,0.00,VWS V14.01,2013-06-12 05:23:00,
2013-06-12 01:24:00,81.2,80.6,29.97,WSW,240,2.0,5.0,98,0.00,,BKN030,0.00,VWS V14.01,2013-06-12 05:24:00,
2013-06-12 01:25:00,81.2,80.6,29.97,West,273,2.0,4.0,98,0.00,,BKN030,0.00,VWS V14.01,2013-06-12 05:25:00,
2013-06-12 01:26:00,81.2,80.6,29.97,WSW,250,5.0,6.0,98,0.00,,BKN100,0.00,VWS V14.01,2013-06-12 05:26:00,
2013-06-12 01:27:00,81.2,80.6,29.97,WSW,242,7.0,7.0,98,0.00,,BKN030,0.00,VWS V14.01,2013-06-12 05:27:00,
2013-06-12 01:28:00,81.1,80.5,29.97,WSW,244,3.0,7.0,98,0.00,,BKN030,0.00,VWS V14.01,2013-06-12 05:28:00,
2013-06-12 01:29:00,81.1,80.5,29.97,WSW,240,6.0,7.0,98,0.00,,BKN030,0.00,VWS V14.01,2013-06-12 05:29:00,
2013-06-12 01:30:00,80.9,80.3,29.97,WSW,253,5.0,6.0,98,0.00,,BKN030,0.00,VWS V14.01,2013-06-12 05:30:00,
2013-06-12 01:31:00,80.9,80.3,29.97,WSW,242,9.0,9.0,98,0.00,,BKN100,0.00,VWS V14.01,2013-06-12 05:31:00,
2013-06-12 01:32:00,80.7,80.1,29.97,WSW,241,3.0,9.0,98,0.00,,BKN030,0.00,VWS V14.01,2013-06-12 05:32:00,
2013-06-12 01:33:00,80.7,80.1,29.97,WSW,238,7.0,7.0,98,0.00,,BKN030,0.00,VWS V14.01,2013-06-12 05:33:00,
2013-06-12 01:34:00,80.5,79.6,29.96,WSW,250,6.0,8.0,97,0.00,,BKN030,0.00,VWS V14.01,2013-06-12 05:34:00,
2013-06-12 01:35:00,80.3,79.4,29.96,WSW,252,4.0,7.0,97,0.00,,BKN030,0.00,VWS V14.01,2013-06-12 05:35:00,
2013-06-12 01:36:00,80.3,79.4,29.96,WSW,242,6.0,9.0,97,0.00,,CLR,0.00,VWS V14.01,2013-06-12 05:36:00,
2013-06-12 01:37:00,80.1,79.2,29.96,WSW,245,4.0,9.0,97,0.00,,BKN030,0.00,VWS V14.01,2013-06-12 05:37:00,
2013-06-12 01:38:00,80.1,79.2,29.96,WSW,238,5.0,5.0,97,0.00,,BKN030,0.00,VWS V14.01,2013-06-12 05:38:00,
2013-06-12 01:39:00,80.1,79.2,29.96,WSW,241,5.0,8.0,97,0.00,,BKN030,0.00,VWS V14.01,2013-06-12 05:39:00,
2013-06-12 01:40:00,79.9,79.0,29.96,WSW,257,4.0,5.0,97,0.00,,BKN030,0.00,VWS V14.01,2013-06-12 05:40:00,
2013-06-12 01:41:00,79.9,79.0,29.96,WSW,253,2.0,4.0,97,0.00,,CLR,0.00,VWS V14.01,2013-06-12 05:41:00,
2013-06-12 01:42:00,79.9,79.0,29.96,WSW,253,4.0,4.0,97,0.00,,BKN030,0.00,VWS V14.01,2013-06-12 05:42:00,
2013-06-12 01:43:00,79.9,79.0,29.96,West,261,5.0,6.0,97,0.00,,BKN030,0.00,VWS V14.01,2013-06-12 05:43:00,
2013-06-12 01:44:00,79.9,78.7,29.96,SW,236,6.0,6.0,96,0.00,,BKN030,0.00,VWS V14.01,2013-06-12 05:44:00,
2013-06-12 01:45:00,79.8,78.6,29.96,WSW,239,5.0,6.0,96,0.00,,BKN030,0.00,VWS V14.01,2013-06-12 05:45:00,
2013-06-12 01:46:00,79.6,78.4,29.96,WSW,246,4.0,6.0,96,0.00,,CLR,0.00,VWS V14.01,2013-06-12 05:46:00,
2013-06-12 01:47:00,79.6,78.4,29.96,WSW,254,5.0,6.0,96,0.00,,BKN030,0.00,VWS V14.01,2013-06-12 05:47:00,
2013-06-12 01:48:00,79.6,78.1,29.96,SW,230,5.0,5.0,95,0.00,,BKN030,0.00,VWS V14.01,2013-06-12 05:48:00,
2013-06-12 01:49:00,79.6,78.1,29.96,SW,235,5.0,6.0,95,0.00,,BKN030,0.00,VWS V14.01,2013-06-12 05:49:00,
2013-06-12 01:50:00,79.4,77.8,29.96,WSW,240,9.0,9.0,95,0.00,,BKN030,0.00,VWS V14.01,2013-06-12 05:50:00,
2013-06-12 01:51:00,79.4,77.5,29.96,WSW,241,4.0,5.0,94,0.00,,CLR,0.00,VWS V14.01,2013-06-12 05:51:00,
2013-06-12 01:52:00,79.4,77.5,29.96,WSW,244,3.0,5.0,94,0.00,,BKN030,0.00,VWS V14.01,2013-06-12 05:52:00,
2013-06-12 01:53:00,79.4,77.5,29.96,WSW,243,3.0,8.0,94,0.00,,BKN030,0.00,VWS V14.01,2013-06-12 05:53:00,
2013-06-12 01:54:00,79.4,77.5,29.96,WSW,248,7.0,7.0,94,0.00,,BKN030,0.00,VWS V14.01,2013-06-12 05:54:00,
2013-06-12 01:55:00,79.6,77.4,29.96,WSW,238,6.0,7.0,93,0.00,,BKN030,0.00,VWS V14.01,2013-06-12 05:55:00,
2013-06-12 01:56:00,79.6,77.4,29.96,SW,227,10.0,10.0,93,0.00,,CLR,0.00,VWS V14.01,2013-06-12 05:56:00,
2013-06-12 01:57:00,79.6,77.4,29.96,WSW,254,4.0,10.0,93,0.00,,BKN030,0.00,VWS V14.01,2013-06-12 05:57:00,
2013-06-12 01:58:00,79.6,77.1,29.96,WSW,250,9.0,9.0,92,0.00,,BKN030,0.00,VWS V14.01,2013-06-12 05:58:00,
2013-06-12 01:59:00,79.6,77.1,29.96,West,259,6.0,9.0,92,0.00,,BKN030,0.00,VWS V14.01,2013-06-12 05:59:00,
2013-06-12 02:00:00,79.6,76.8,29.96,WNW,294,3.0,6.0,91,0.00,,BKN030,0.00,VWS V14.01,2013-06-12 06:00:00,
2013-06-12 02:01:00,79.6,76.8,29.96,WSW,241,5.0,5.0,91,0.00,,CLR,0.00,VWS V14.01,2013-06-12 06:01:00,
2013-06-12 02:02:00,79.8,76.9,29.96,WSW,253,5.0,5.0,91,0.00,,BKN030,0.00,VWS V14.01,2013-06-12 06:02:00,
2013-06-12 02:03:00,79.8,76.6,29.96,West,270,3.0,5.0,90,0.00,,BKN030,0.00,VWS V14.01,2013-06-12 06:03:00,
2013-06-12 02:04:00,79.8,76.6,29.96,WSW,254,5.0,5.0,90,0.00,,BKN030,0.00,VWS V14.01,2013-06-12 06:04:00,
2013-06-12 02:05:00,79.8,76.6,29.96,WSW,255,5.0,9.0,90,0.00,,BKN030,0.00,VWS V14.01,2013-06-12 06:05:00,
2013-06-12 02:06:00,79.8,76.3,29.96,SSW,205,7.0,9.0,89,0.00,,CLR,0.00,VWS V14.01,2013-06-12 06:06:00,
2013-06-12 02:07:00,79.8,76.3,29.96,WSW,240,5.0,9.0,89,0.00,,BKN030,0.00,VWS V14.01,2013-06-12 06:07:00,
2013-06-12 02:08:00,79.8,76.3,29.96,WSW,248,3.0,11.0,89,0.00,,BKN030,0.00,VWS V14.01,2013-06-12 06:08:00,
2013-06-12 02:09:00,79.8,76.3,29.96,West,275,4.0,10.0,89,0.00,,BKN030,0.00,VWS V14.01,2013-06-12 06:09:00,
2013-06-12 02:10:00,79.8,75.6,29.96,WSW,250,4.0,10.0,87,0.00,,BKN030,0.00,VWS V14.01,2013-06-12 06:10:00,
2013-06-12 02:11:00,79.9,75.3,29.96,West,273,4.0,5.0,86,0.00,,CLR,0.00,VWS V14.01,2013-06-12 06:11:00,
2013-06-12 02:12:00,79.9,75.3,29.96,WSW,243,8.0,8.0,86,0.00,,BKN030,0.00,VWS V14.01,2013-06-12 06:12:00,
2013-06-12 02:13:00,79.9,75.3,29.96,West,271,6.0,8.0,86,0.00,,BKN030,0.00,VWS V14.01,2013-06-12 06:13:00,
2013-06-12 02:14:00,79.9,75.3,29.96,West,273,5.0,11.0,86,0.00,,BKN030,0.00,VWS V14.01,2013-06-12 06:14:00,
2013-06-12 02:15:00,80.1,75.2,29.96,WSW,257,2.0,5.0,85,0.00,,BKN030,0.00,VWS V14.01,2013-06-12 06:15:00,
2013-06-12 02:16:00,80.1,75.2,29.96,SW,222,4.0,6.0,85,0.00,,CLR,0.00,VWS V14.01,2013-06-12 06:16:00,
2013-06-12 02:17:00,80.1,74.8,29.96,West,273,3.0,6.0,84,0.00,,BKN030,0.00,VWS V14.01,2013-06-12 06:17:00,
2013-06-12 02:18:00,80.1,74.8,29.96,West,260,2.0,9.0,84,0.00,,BKN030,0.00,VWS V14.01,2013-06-12 06:18:00,
2013-06-12 02:19:00,80.1,74.8,29.96,WSW,244,3.0,6.0,84,0.00,,BKN030,0.00,VWS V14.01,2013-06-12 06:19:00,
2013-06-12 02:20:00,80.1,74.8,29.96,WSW,242,6.0,6.0,84,0.00,,BKN030,0.00,VWS V14.01,2013-06-12 06:20:00,
2013-06-12 02:21:00,80.1,74.5,29.96,WSW,252,7.0,7.0,83,0.00,,CLR,0.00,VWS V14.01,2013-06-12 06:21:00,
2013-06-12 02:22:00,80.3,74.7,29.96,SW,227,9.0,9.0,83,0.00,,BKN030,0.00,VWS V14.01,2013-06-12 06:22:00,
2013-06-12 02:23:00,80.3,74.7,29.96,West,281,3.0,9.0,83,0.00,,BKN030,0.00,VWS V14.01,2013-06-12 06:23:00,
2013-06-12 02:24:00,80.3,74.7,29.96,WSW,240,6.0,7.0,83,0.00,,BKN030,0.00,VWS V14.01,2013-06-12 06:24:00,
2013-06-12 02:25:00,80.3,74.7,29.96,SW,234,6.0,6.0,83,0.00,,BKN030,0.00,VWS V14.01,2013-06-12 06:25:00,
2013-06-12 02:26:00,80.3,74.3,29.96,WNW,287,1.0,3.0,82,0.00,,CLR,0.00,VWS V14.01,2013-06-12 06:26:00,
2013-06-12 02:27:00,80.3,74.3,29.96,WSW,246,1.0,7.0,82,0.00,,BKN030,0.00,VWS V14.01,2013-06-12 06:27:00,
2013-06-12 02:28:00,80.3,74.3,29.96,WSW,252,2.0,5.0,82,0.00,,BKN030,0.00,VWS V14.01,2013-06-12 06:28:00,
2013-06-12 02:29:00,80.3,74.3,29.96,West,259,2.0,4.0,82,0.00,,BKN030,0.00,VWS V14.01,2013-06-12 06:29:00,
2013-06-12 02:30:00,80.3,74.3,29.96,WSW,250,3.0,6.0,82,0.00,,BKN030,0.00,VWS V14.01,2013-06-12 06:30:00,
2013-06-12 02:31:00,80.3,74.3,29.96,WSW,245,4.0,4.0,82,0.00,,CLR,0.00,VWS V14.01,2013-06-12 06:31:00,
2013-06-12 02:32:00,80.3,74.3,29.96,West,273,3.0,6.0,82,0.00,,BKN030,0.00,VWS V14.01,2013-06-12 06:32:00,
2013-06-12 02:33:00,80.3,74.3,29.96,West,275,3.0,5.0,82,0.00,,BKN030,0.00,VWS V14.01,2013-06-12 06:33:00,
2013-06-12 02:34:00,80.3,74.3,29.96,WSW,252,5.0,6.0,82,0.00,,BKN030,0.00,VWS V14.01,2013-06-12 06:34:00,
2013-06-12 02:35:00,80.3,74.3,29.95,West,263,4.0,5.0,82,0.00,,BKN030,0.00,VWS V14.01,2013-06-12 06:35:00,
2013-06-12 02:36:00,80.3,74.3,29.95,WSW,243,4.0,4.0,82,0.00,,CLR,0.00,VWS V14.01,2013-06-12 06:36:00,
2013-06-12 02:37:00,80.3,74.3,29.95,WSW,243,1.0,4.0,82,0.00,,BKN030,0.00,VWS V14.01,2013-06-12 06:37:00,
2013-06-12 02:38:00,80.3,74.3,29.95,West,259,3.0,3.0,82,0.00,,BKN030,0.00,VWS V14.01,2013-06-12 06:38:00,
2013-06-12 02:39:00,80.3,74.3,29.95,West,276,1.0,3.0,82,0.00,,BKN030,0.00,VWS V14.01,2013-06-12 06:39:00,
2013-06-12 02:40:00,80.3,73.9,29.95,WSW,248,2.0,3.0,81,0.00,,CLR,0.00,VWS V14.01,2013-06-12 06:40:00,
2013-06-12 02:41:00,80.3,73.9,29.95,WSW,248,3.0,5.0,81,0.00,,BKN030,0.00,VWS V14.01,2013-06-12 06:41:00,
2013-06-12 02:42:00,80.3,73.9,29.95,WSW,249,6.0,6.0,81,0.00,,BKN030,0.00,VWS V14.01,2013-06-12 06:42:00,
2013-06-12 02:43:00,80.3,73.9,29.95,WSW,249,2.0,6.0,81,0.00,,BKN030,0.00,VWS V14.01,2013-06-12 06:43:00,
2013-06-12 02:44:00,80.3,73.9,29.95,WSW,250,2.0,4.0,81,0.00,,BKN030,0.00,VWS V14.01,2013-06-12 06:44:00,
2013-06-12 02:45:00,80.3,73.9,29.95,WSW,241,4.0,5.0,81,0.00,,CLR,0.00,VWS V14.01,2013-06-12 06:45:00,
2013-06-12 02:46:00,80.3,73.9,29.95,West,267,2.0,5.0,81,0.00,,BKN030,0.00,VWS V14.01,2013-06-12 06:46:00,
2013-06-12 02:47:00,80.3,73.9,29.95,WSW,250,4.0,6.0,81,0.00,,BKN030,0.00,VWS V14.01,2013-06-12 06:47:00,
2013-06-12 02:48:00,80.3,73.9,29.95,WSW,253,2.0,4.0,81,0.00,,BKN030,0.00,VWS V14.01,2013-06-12 06:48:00,
2013-06-12 02:49:00,80.3,73.9,29.95,WSW,249,4.0,4.0,81,0.00,,BKN030,0.00,VWS V14.01,2013-06-12 06:49:00,
2013-06-12 02:50:00,80.3,73.9,29.95,WSW,249,4.0,4.0,81,0.00,,CLR,0.00,VWS V14.01,2013-06-12 06:50:00,
2013-06-12 02:51:00,80.3,73.9,29.95,WSW,240,3.0,5.0,81,0.00,,BKN030,0.00,VWS V14.01,2013-06-12 06:51:00,
2013-06-12 02:52:00,80.3,73.9,29.95,WSW,254,5.0,9.0,81,0.00,,BKN030,0.00,VWS V14.01,2013-06-12 06:52:00,
2013-06-12 02:53:00,80.3,73.9,29.95,WSW,250,7.0,7.0,81,0.00,,BKN030,0.00,VWS V14.01,2013-06-12 06:53:00,
2013-06-12 02:54:00,80.3,73.9,29.95,West,263,5.0,7.0,81,0.00,,BKN030,0.00,VWS V14.01,2013-06-12 06:54:00,
2013-06-12 02:55:00,80.3,73.9,29.95,West,260,2.0,3.0,81,0.00,,CLR,0.00,VWS V14.01,2013-06-12 06:55:00,
2013-06-12 02:56:00,80.3,73.9,29.95,West,260,3.0,5.0,81,0.00,,BKN030,0.00,VWS V14.01,2013-06-12 06:56:00,
2013-06-12 02:57:00,80.3,73.9,29.95,WNW,288,2.0,3.0,81,0.00,,BKN030,0.00,VWS V14.01,2013-06-12 06:57:00,
2013-06-12 02:58:00,80.3,73.9,29.95,SW,222,5.0,5.0,81,0.00,,BKN030,0.00,VWS V14.01,2013-06-12 06:58:00,
2013-06-12 02:59:00,80.3,73.9,29.95,WNW,294,2.0,5.0,81,0.00,,BKN030,0.00,VWS V14.01,2013-06-12 06:59:00,
2013-06-12 03:00:00,80.3,73.9,29.95,WSW,245,5.0,5.0,81,0.00,,CLR,0.00,VWS V14.01,2013-06-12 07:00:00,
2013-06-12 03:01:00,80.3,73.9,29.95,WNW,285,3.0,3.0,81,0.00,,BKN030,0.00,VWS V14.01,2013-06-12 07:01:00,
2013-06-12 03:02:00,80.3,73.9,29.95,WSW,251,5.0,5.0,81,0.00,,BKN030,0.00,VWS V14.01,2013-06-12 07:02:00,
2013-06-12 03:03:00,80.3,73.9,29.95,WSW,241,4.0,6.0,81,0.00,,BKN030,0.00,VWS V14.01,2013-06-12 07:03:00,
2013-06-12 03:04:00,80.3,73.9,29.95,WSW,252,2.0,4.0,81,0.00,,BKN030,0.00,VWS V14.01,2013-06-12 07:04:00,
2013-06-12 03:05:00,80.1,73.8,29.95,WSW,246,6.0,6.0,81,0.00,,CLR,0.00,VWS V14.01,2013-06-12 07:05:00,
2013-06-12 03:06:00,80.1,73.8,29.95,WSW,249,5.0,5.0,81,0.00,,BKN030,0.00,VWS V14.01,2013-06-12 07:06:00,
2013-06-12 03:07:00,80.1,73.8,29.95,WSW,253,4.0,6.0,81,0.00,,BKN030,0.00,VWS V14.01,2013-06-12 07:07:00,
2013-06-12 03:08:00,80.1,73.8,29.95,WSW,250,3.0,4.0,81,0.00,,BKN030,0.00,VWS V14.01,2013-06-12 07:08:00,
2013-06-12 03:09:00,80.3,73.9,29.95,WSW,241,2.0,4.0,81,0.00,,BKN030,0.00,VWS V14.01,2013-06-12 07:09:00,
2013-06-12 03:10:00,80.1,73.8,29.95,WSW,247,9.0,9.0,81,0.00,,CLR,0.00,VWS V14.01,2013-06-12 07:10:00,
2013-06-12 03:11:00,80.1,73.8,29.95,WSW,257,6.0,8.0,81,0.00,,BKN030,0.00,VWS V14.01,2013-06-12 07:11:00,
2013-06-12 03:12:00,80.1,73.8,29.95,West,259,3.0,9.0,81,0.00,,BKN030,0.00,VWS V14.01,2013-06-12 07:12:00,
2013-06-12 03:13:00,80.1,73.8,29.95,WSW,253,5.0,5.0,81,0.00,,BKN030,0.00,VWS V14.01,2013-06-12 07:13:00,
2013-06-12 03:14:00,80.1,73.8,29.95,SW,236,3.0,5.0,81,0.00,,BKN030,0.00,VWS V14.01,2013-06-12 07:14:00,
2013-06-12 03:15:00,80.1,73.8,29.95,West,265,2.0,2.0,81,0.00,,CLR,0.00,VWS V14.01,2013-06-12 07:15:00,
2013-06-12 03:16:00,80.1,73.8,29.95,West,265,2.0,4.0,81,0.00,,BKN030,0.00,VWS V14.01,2013-06-12 07:16:00,
2013-06-12 03:17:00,80.1,73.8,29.95,WNW,282,2.0,7.0,81,0.00,,BKN030,0.00,VWS V14.01,2013-06-12 07:17:00,
2013-06-12 03:18:00,80.1,73.8,29.95,WNW,283,2.0,2.0,81,0.00,,BKN030,0.00,VWS V14.01,2013-06-12 07:18:00,
2013-06-12 03:19:00,80.1,73.8,29.95,WSW,242,5.0,9.0,81,0.00,,BKN030,0.00,VWS V14.01,2013-06-12 07:19:00,
2013-06-12 03:20:00,80.1,73.8,29.95,WSW,252,4.0,4.0,81,0.00,,CLR,0.00,VWS V14.01,2013-06-12 07:20:00,
2013-06-12 03:21:00,80.1,73.8,29.95,WSW,240,2.0,5.0,81,0.00,,BKN030,0.00,VWS V14.01,2013-06-12 07:21:00,
2013-06-12 03:22:00,80.1,73.8,29.95,SW,232,4.0,4.0,81,0.00,,BKN030,0.00,VWS V14.01,2013-06-12 07:22:00,
2013-06-12 03:23:00,80.3,73.9,29.95,West,264,4.0,6.0,81,0.00,,BKN030,0.00,VWS V14.01,2013-06-12 07:23:00,
2013-06-12 03:24:00,80.3,73.9,29.95,West,270,3.0,4.0,81,0.00,,BKN030,0.00,VWS V14.01,2013-06-12 07:24:00,
2013-06-12 03:25:00,80.3,73.9,29.95,SW,233,5.0,5.0,81,0.00,,CLR,0.00,VWS V14.01,2013-06-12 07:25:00,
2013-06-12 03:26:00,80.3,73.9,29.95,WSW,257,4.0,4.0,81,0.00,,BKN030,0.00,VWS V14.01,2013-06-12 07:26:00,
2013-06-12 03:27:00,80.3,73.9,29.95,WNW,286,4.0,5.0,81,0.00,,BKN030,0.00,VWS V14.01,2013-06-12 07:27:00,
2013-06-12 03:28:00,80.3,73.9,29.95,WSW,250,4.0,5.0,81,0.00,,BKN030,0.00,VWS V14.01,2013-06-12 07:28:00,
2013-06-12 03:29:00,80.3,73.9,29.95,West,271,5.0,5.0,81,0.00,,BKN030,0.00,VWS V14.01,2013-06-12 07:29:00,
2013-06-12 03:30:00,80.3,73.9,29.95,West,265,5.0,5.0,81,0.00,,CLR,0.00,VWS V14.01,2013-06-12 07:30:00,
2013-06-12 03:31:00,80.3,73.9,29.95,West,259,2.0,3.0,81,0.00,,BKN030,0.00,VWS V14.01,2013-06-12 07:31:00,
2013-06-12 03:32:00,80.3,73.9,29.95,WSW,254,3.0,5.0,81,0.00,,BKN030,0.00,VWS V14.01,2013-06-12 07:32:00,
2013-06-12 03:33:00,80.1,73.8,29.95,West,263,9.0,9.0,81,0.00,,BKN030,0.00,VWS V14.01,2013-06-12 07:33:00,
2013-06-12 03:34:00,80.1,73.8,29.95,West,270,0.0,9.0,81,0.00,,BKN030,0.00,VWS V14.01,2013-06-12 07:34:00,
2013-06-12 03:35:00,80.1,73.8,29.95,West,259,2.0,3.0,81,0.00,,CLR,0.00,VWS V14.01,2013-06-12 07:35:00,
2013-06-12 03:37:00,80.1,73.8,29.95,WNW,286,3.0,3.0,81,0.00,,BKN030,0.00,VWS V14.01,2013-06-12 07:37:00,
2013-06-12 03:38:00,80.1,73.8,29.95,West,266,4.0,4.0,81,0.00,,BKN030,0.00,VWS V14.01,2013-06-12 07:38:00,
2013-06-12 03:39:00,80.1,73.8,29.95,WSW,237,3.0,5.0,81,0.00,,BKN030,0.00,VWS V14.01,2013-06-12 07:39:00,
2013-06-12 03:40:00,80.1,73.8,29.95,WSW,237,5.0,5.0,81,0.00,,FEW050,0.00,VWS V14.01,2013-06-12 07:40:00,
2013-06-12 03:41:00,80.1,73.8,29.95,WSW,241,4.0,5.0,81,0.00,,BKN030,0.00,VWS V14.01,2013-06-12 07:41:00,
2013-06-12 03:42:00,80.1,73.8,29.95,WSW,238,2.0,5.0,81,0.00,,BKN030,0.00,VWS V14.01,2013-06-12 07:42:00,
2013-06-12 03:43:00,80.1,73.8,29.95,SSW,209,2.0,4.0,81,0.00,,BKN030,0.00,VWS V14.01,2013-06-12 07:43:00,
2013-06-12 03:44:00,80.1,73.8,29.95,WSW,250,2.0,3.0,81,0.00,,BKN030,0.00,VWS V14.01,2013-06-12 07:44:00,
2013-06-12 03:45:00,80.1,74.1,29.95,West,281,2.0,4.0,82,0.00,,FEW050,0.00,VWS V14.01,2013-06-12 07:45:00,
2013-06-12 03:46:00,80.1,74.1,29.95,West,281,4.0,4.0,82,0.00,,BKN030,0.00,VWS V14.01,2013-06-12 07:46:00,
2013-06-12 03:47:00,80.1,74.1,29.95,West,281,1.0,4.0,82,0.00,,BKN030,0.00,VWS V14.01,2013-06-12 07:47:00,
2013-06-12 03:48:00,79.9,73.9,29.95,West,281,1.0,4.0,82,0.00,,BKN030,0.00,VWS V14.01,2013-06-12 07:48:00,
2013-06-12 03:49:00,79.9,73.9,29.95,WSW,250,5.0,6.0,82,0.00,,BKN030,0.00,VWS V14.01,2013-06-12 07:49:00,
2013-06-12 03:50:00,79.9,73.9,29.95,West,266,6.0,6.0,82,0.00,,FEW050,0.00,VWS V14.01,2013-06-12 07:50:00,
2013-06-12 03:51:00,79.9,73.9,29.95,WSW,244,4.0,5.0,82,0.00,,BKN030,0.00,VWS V14.01,2013-06-12 07:51:00,
2013-06-12 03:52:00,79.9,73.9,29.95,West,259,5.0,6.0,82,0.00,,BKN030,0.00,VWS V14.01,2013-06-12 07:52:00,
2013-06-12 03:53:00,79.9,73.9,29.95,West,261,2.0,5.0,82,0.00,,BKN030,0.00,VWS V14.01,2013-06-12 07:53:00,
2013-06-12 03:54:00,79.9,73.9,29.95,WSW,247,4.0,4.0,82,0.00,,BKN030,0.00,VWS V14.01,2013-06-12 07:54:00,
2013-06-12 03:55:00,79.9,73.9,29.95,WSW,257,2.0,4.0,82,0.00,,FEW050,0.00,VWS V14.01,2013-06-12 07:55:00,
2013-06-12 03:56:00,79.9,73.9,29.95,WSW,256,4.0,4.0,82,0.00,,BKN030,0.00,VWS V14.01,2013-06-12 07:56:00,
2013-06-12 03:57:00,79.9,73.9,29.95,West,270,3.0,4.0,82,0.00,,BKN030,0.00,VWS V14.01,2013-06-12 07:57:00,
2013-06-12 03:58:00,79.8,73.8,29.95,West,259,5.0,5.0,82,0.00,,BKN030,0.00,VWS V14.01,2013-06-12 07:58:00,
2013-06-12 03:59:00,79.8,73.8,29.95,WSW,251,2.0,5.0,82,0.00,,BKN030,0.00,VWS V14.01,2013-06-12 07:59:00,
2013-06-12 04:00:00,79.8,73.8,29.95,WSW,256,3.0,4.0,82,0.00,,FEW050,0.00,VWS V14.01,2013-06-12 08:00:00,
2013-06-12 04:01:00,79.8,73.8,29.95,WSW,255,4.0,5.0,82,0.00,,BKN030,0.00,VWS V14.01,2013-06-12 08:01:00,
2013-06-12 04:02:00,79.8,74.2,29.95,WSW,255,2.0,4.0,83,0.00,,BKN030,0.00,VWS V14.01,2013-06-12 08:02:00,
2013-06-12 04:03:00,79.8,74.2,29.95,West,262,3.0,5.0,83,0.00,,BKN030,0.00,VWS V14.01,2013-06-12 08:03:00,
2013-06-12 04:04:00,79.8,74.2,29.95,WSW,256,4.0,6.0,83,0.00,,BKN030,0.00,VWS V14.01,2013-06-12 08:04:00,
2013-06-12 04:05:00,79.8,74.2,29.95,WSW,244,3.0,4.0,83,0.00,,FEW050,0.00,VWS V14.01,2013-06-12 08:05:00,
2013-06-12 04:06:00,79.8,74.2,29.95,West,275,3.0,4.0,83,0.00,,BKN030,0.00,VWS V14.01,2013-06-12 08:06:00,
2013-06-12 04:07:00,79.6,74.0,29.95,WSW,246,4.0,4.0,83,0.00,,BKN030,0.00,VWS V14.01,2013-06-12 08:07:00,
2013-06-12 04:08:00,79.6,74.0,29.95,West,271,1.0,4.0,83,0.00,,BKN030,0.00,VWS V14.01,2013-06-12 08:08:00,
2013-06-12 04:09:00,79.6,74.0,29.95,West,271,0.0,1.0,83,0.00,,BKN030,0.00,VWS V14.01,2013-06-12 08:09:00,
2013-06-12 04:10:00,79.6,74.0,29.95,WSW,252,1.0,2.0,83,0.00,,FEW050,0.00,VWS V14.01,2013-06-12 08:10:00,
2013-06-12 04:11:00,79.6,74.0,29.95,WSW,252,2.0,4.0,83,0.00,,BKN030,0.00,VWS V14.01,2013-06-12 08:11:00,
2013-06-12 04:12:00,79.6,74.0,29.95,West,265,2.0,3.0,83,0.00,,BKN030,0.00,VWS V14.01,2013-06-12 08:12:00,
2013-06-12 04:13:00,79.6,74.0,29.95,West,259,4.0,7.0,83,0.00,,BKN030,0.00,VWS V14.01,2013-06-12 08:13:00,
2013-06-12 04:14:00,79.6,74.0,29.95,WSW,242,7.0,7.0,83,0.00,,BKN030,0.00,VWS V14.01,2013-06-12 08:14:00,
2013-06-12 04:15:00,79.6,74.0,29.95,WSW,241,3.0,4.0,83,0.00,,FEW050,0.00,VWS V14.01,2013-06-12 08:15:00,
2013-06-12 04:16:00,79.6,74.0,29.95,WSW,241,4.0,5.0,83,0.00,,BKN030,0.00,VWS V14.01,2013-06-12 08:16:00,
2013-06-12 04:17:00,79.6,74.0,29.95,WSW,244,5.0,5.0,83,0.00,,BKN030,0.00,VWS V14.01,2013-06-12 08:17:00,
2013-06-12 04:18:00,79.6,74.0,29.95,West,259,2.0,5.0,83,0.00,,BKN030,0.00,VWS V14.01,2013-06-12 08:18:00,
2013-06-12 04:19:00,79.6,74.0,29.95,WSW,255,0.0,3.0,83,0.00,,BKN030,0.00,VWS V14.01,2013-06-12 08:19:00,
2013-06-12 04:20:00,79.6,74.0,29.95,WSW,250,1.0,2.0,83,0.00,,FEW050,0.00,VWS V14.01,2013-06-12 08:20:00,
2013-06-12 04:21:00,79.6,74.0,29.95,WSW,250,2.0,4.0,83,0.00,,BKN030,0.00,VWS V14.01,2013-06-12 08:21:00,
2013-06-12 04:22:00,79.6,74.3,29.95,West,259,2.0,5.0,84,0.00,,BKN030,0.00,VWS V14.01,2013-06-12 08:22:00,
2013-06-12 04:23:00,79.4,74.2,29.95,WSW,243,5.0,5.0,84,0.00,,BKN030,0.00,VWS V14.01,2013-06-12 08:23:00,
2013-06-12 04:24:00,79.4,74.2,29.95,WSW,239,6.0,6.0,84,0.00,,BKN030,0.00,VWS V14.01,2013-06-12 08:24:00,
2013-06-12 04:25:00,79.4,74.2,29.95,WSW,246,3.0,3.0,84,0.00,,FEW050,0.00,VWS V14.01,2013-06-12 08:25:00,
2013-06-12 04:26:00,79.4,74.2,29.95,WSW,250,3.0,5.0,84,0.00,,BKN030,0.00,VWS V14.01,2013-06-12 08:26:00,
2013-06-12 04:27:00,79.4,74.2,29.95,WSW,251,5.0,5.0,84,0.00,,BKN030,0.00,VWS V14.01,2013-06-12 08:27:00,
2013-06-12 04:28:00,79.4,74.2,29.95,WSW,238,6.0,6.0,84,0.00,,BKN030,0.00,VWS V14.01,2013-06-12 08:28:00,
2013-06-12 04:29:00,79.4,74.2,29.94,SW,235,2.0,6.0,84,0.00,,BKN030,0.00,VWS V14.01,2013-06-12 08:29:00,
2013-06-12 04:30:00,79.4,74.2,29.94,WSW,246,6.0,6.0,84,0.00,,FEW050,0.00,VWS V14.01,2013-06-12 08:30:00,
2013-06-12 04:31:00,79.4,74.2,29.94,WSW,252,3.0,6.0,84,0.00,,BKN030,0.00,VWS V14.01,2013-06-12 08:31:00,
2013-06-12 04:32:00,79.4,74.2,29.94,West,267,6.0,6.0,84,0.00,,BKN030,0.00,VWS V14.01,2013-06-12 08:32:00,
2013-06-12 04:33:00,79.4,74.2,29.94,WSW,253,3.0,6.0,84,0.00,,BKN030,0.00,VWS V14.01,2013-06-12 08:33:00,
2013-06-12 04:34:00,79.4,74.2,29.94,West,270,2.0,5.0,84,0.00,,BKN030,0.00,VWS V14.01,2013-06-12 08:34:00,
2013-06-12 04:35:00,79.4,74.2,29.94,West,262,3.0,3.0,84,0.00,,FEW050,0.00,VWS V14.01,2013-06-12 08:35:00,
2013-06-12 04:36:00,79.4,74.2,29.94,WSW,243,3.0,5.0,84,0.00,,BKN030,0.00,VWS V14.01,2013-06-12 08:36:00,
2013-06-12 04:37:00,79.4,74.2,29.94,WSW,254,3.0,3.0,84,0.00,,BKN030,0.00,VWS V14.01,2013-06-12 08:37:00,
2013-06-12 04:38:00,79.4,74.2,29.94,West,265,4.0,4.0,84,0.00,,BKN030,0.00,VWS V14.01,2013-06-12 08:38:00,
2013-06-12 04:39:00,79.4,74.2,29.94,WSW,243,5.0,5.0,84,0.00,,BKN030,0.00,VWS V14.01,2013-06-12 08:39:00,
2013-06-12 04:40:00,79.4,74.2,29.94,WSW,246,5.0,5.0,84,0.00,,FEW055,0.00,VWS V14.01,2013-06-12 08:40:00,
2013-06-12 04:41:00,79.4,74.2,29.94,WSW,251,3.0,8.0,84,0.00,,BKN030,0.00,VWS V14.01,2013-06-12 08:41:00,
2013-06-12 04:42:00,79.4,74.2,29.94,WSW,252,6.0,6.0,84,0.00,,BKN030,0.00,VWS V14.01,2013-06-12 08:42:00,
2013-06-12 04:43:00,79.4,74.2,29.94,WSW,244,2.0,7.0,84,0.00,,BKN030,0.00,VWS V14.01,2013-06-12 08:43:00,
2013-06-12 04:44:00,79.4,74.2,29.94,WSW,243,6.0,6.0,84,0.00,,BKN030,0.00,VWS V14.01,2013-06-12 08:44:00,
2013-06-12 04:45:00,79.4,74.2,29.94,WSW,253,4.0,4.0,84,0.00,,FEW055,0.00,VWS V14.01,2013-06-12 08:45:00,
2013-06-12 04:46:00,79.4,74.2,29.94,West,261,4.0,5.0,84,0.00,,BKN030,0.00,VWS V14.01,2013-06-12 08:46:00,
2013-06-12 04:47:00,79.4,73.8,29.94,WSW,248,4.0,4.0,83,0.00,,BKN030,0.00,VWS V14.01,2013-06-12 08:47:00,
2013-06-12 04:48:00,79.4,73.8,29.94,WSW,254,3.0,5.0,83,0.00,,BKN030,0.00,VWS V14.01,2013-06-12 08:48:00,
2013-06-12 04:49:00,79.4,73.8,29.94,WSW,257,6.0,6.0,83,0.00,,BKN030,0.00,VWS V14.01,2013-06-12 08:49:00,
2013-06-12 04:50:00,79.4,73.8,29.94,West,259,3.0,4.0,83,0.00,,FEW055,0.00,VWS V14.01,2013-06-12 08:50:00,
2013-06-12 04:51:00,79.4,73.8,29.94,WSW,251,4.0,6.0,83,0.00,,BKN030,0.00,VWS V14.01,2013-06-12 08:51:00,
2013-06-12 04:52:00,79.4,73.8,29.94,WSW,250,6.0,7.0,83,0.00,,BKN030,0.00,VWS V14.01,2013-06-12 08:52:00,
2013-06-12 04:53:00,79.4,73.8,29.94,WSW,246,4.0,6.0,83,0.00,,BKN030,0.00,VWS V14.01,2013-06-12 08:53:00,
2013-06-12 04:54:00,79.4,73.8,29.94,West,279,5.0,5.0,83,0.00,,BKN030,0.00,VWS V14.01,2013-06-12 08:54:00,
2013-06-12 04:55:00,79.4,73.8,29.94,WNW,284,4.0,4.0,83,0.00,,FEW055,0.00,VWS V14.01,2013-06-12 08:55:00,
2013-06-12 04:56:00,79.4,73.8,29.94,West,260,3.0,4.0,83,0.00,,BKN030,0.00,VWS V14.01,2013-06-12 08:56:00,
2013-06-12 04:57:00,79.4,73.8,29.94,WNW,283,4.0,4.0,83,0.00,,BKN030,0.00,VWS V14.01,2013-06-12 08:57:00,
2013-06-12 04:58:00,79.4,73.8,29.94,WNW,283,3.0,4.0,83,0.00,,BKN030,0.00,VWS V14.01,2013-06-12 08:58:00,
2013-06-12 04:59:00,79.4,73.8,29.94,West,273,3.0,5.0,83,0.00,,BKN030,0.00,VWS V14.01,2013-06-12 08:59:00,
2013-06-12 05:00:00,79.4,73.8,29.94,WSW,254,2.0,3.0,83,0.00,,FEW055,0.00,VWS V14.01,2013-06-12 09:00:00,
2013-06-12 05:01:00,79.4,73.8,29.94,WSW,255,3.0,4.0,83,0.00,,BKN030,0.00,VWS V14.01,2013-06-12 09:01:00,
2013-06-12 05:02:00,79.4,73.8,29.94,West,259,4.0,4.0,83,0.00,,BKN030,0.00,VWS V14.01,2013-06-12 09:02:00,
2013-06-12 05:03:00,79.4,73.8,29.94,West,276,3.0,6.0,83,0.00,,BKN030,0.00,VWS V14.01,2013-06-12 09:03:00,
2013-06-12 05:04:00,79.4,73.8,29.94,West,266,3.0,8.0,83,0.00,,BKN030,0.00,VWS V14.01,2013-06-12 09:04:00,
2013-06-12 05:05:00,79.4,73.8,29.94,SW,235,6.0,6.0,83,0.00,,FEW055,0.00,VWS V14.01,2013-06-12 09:05:00,
2013-06-12 05:06:00,79.4,73.8,29.94,WSW,242,4.0,6.0,83,0.00,,BKN030,0.00,VWS V14.01,2013-06-12 09:06:00,
2013-06-12 05:07:00,79.4,73.8,29.94,West,266,3.0,6.0,83,0.00,,BKN030,0.00,VWS V14.01,2013-06-12 09:07:00,
2013-06-12 05:08:00,79.4,73.8,29.94,West,269,3.0,5.0,83,0.00,,BKN030,0.00,VWS V14.01,2013-06-12 09:08:00,
2013-06-12 05:09:00,79.4,73.8,29.94,SW,230,2.0,5.0,83,0.00,,BKN030,0.00,VWS V14.01,2013-06-12 09:09:00,
2013-06-12 05:10:00,79.4,74.2,29.94,WSW,247,1.0,2.0,84,0.00,,FEW055,0.00,VWS V14.01,2013-06-12 09:10:00,
2013-06-12 05:11:00,79.4,74.2,29.94,WSW,247,2.0,5.0,84,0.00,,BKN030,0.00,VWS V14.01,2013-06-12 09:11:00,
2013-06-12 05:12:00,79.4,74.2,29.94,WSW,248,2.0,3.0,84,0.00,,BKN030,0.00,VWS V14.01,2013-06-12 09:12:00,
2013-06-12 05:13:00,79.4,74.2,29.94,WNW,287,3.0,4.0,84,0.00,,BKN030,0.00,VWS V14.01,2013-06-12 09:13:00,
2013-06-12 05:14:00,79.4,74.2,29.94,WNW,287,1.0,3.0,84,0.00,,BKN030,0.00,VWS V14.01,2013-06-12 09:14:00,
2013-06-12 05:15:00,79.4,74.2,29.94,WSW,247,2.0,5.0,84,0.00,,FEW055,0.00,VWS V14.01,2013-06-12 09:15:00,
2013-06-12 05:16:00,79.4,74.2,29.94,WSW,247,2.0,5.0,84,0.00,,BKN030,0.00,VWS V14.01,2013-06-12 09:16:00,
2013-06-12 05:17:00,79.4,74.2,29.94,WSW,247,1.0,3.0,84,0.00,,BKN030,0.00,VWS V14.01,2013-06-12 09:17:00,
2013-06-12 05:18:00,79.4,74.2,29.94,West,263,5.0,5.0,84,0.00,,BKN030,0.00,VWS V14.01,2013-06-12 09:18:00,
2013-06-12 05:19:00,79.4,74.2,29.94,WSW,244,2.0,5.0,84,0.00,,BKN030,0.00,VWS V14.01,2013-06-12 09:19:00,
2013-06-12 05:20:00,79.4,74.2,29.94,WSW,250,4.0,4.0,84,0.00,,FEW055,0.00,VWS V14.01,2013-06-12 09:20:00,
2013-06-12 05:21:00,79.4,74.2,29.94,WSW,254,3.0,4.0,84,0.00,,BKN030,0.00,VWS V14.01,2013-06-12 09:21:00,
2013-06-12 05:22:00,79.4,74.2,29.94,WSW,257,4.0,5.0,84,0.00,,BKN030,0.00,VWS V14.01,2013-06-12 09:22:00,
2013-06-12 05:23:00,79.4,74.2,29.94,WSW,244,5.0,5.0,84,0.00,,BKN030,0.00,VWS V14.01,2013-06-12 09:23:00,
2013-06-12 05:24:00,79.4,74.2,29.94,WSW,246,3.0,5.0,84,0.00,,BKN030,0.00,VWS V14.01,2013-06-12 09:24:00,
2013-06-12 05:25:00,79.2,74.3,29.94,WSW,250,4.0,5.0,85,0.00,,FEW055,0.00,VWS V14.01,2013-06-12 09:25:00,
2013-06-12 05:26:00,79.2,73.9,29.94,SW,231,5.0,5.0,84,0.00,,BKN030,0.00,VWS V14.01,2013-06-12 09:26:00,
2013-06-12 05:27:00,79.2,74.3,29.94,WSW,242,3.0,5.0,85,0.00,,BKN030,0.00,VWS V14.01,2013-06-12 09:27:00,
2013-06-12 05:28:00,79.2,74.3,29.94,WSW,238,5.0,5.0,85,0.00,,BKN030,0.00,VWS V14.01,2013-06-12 09:28:00,
2013-06-12 05:29:00,79.2,74.3,29.94,WSW,246,4.0,5.0,85,0.00,,BKN030,0.00,VWS V14.01,2013-06-12 09:29:00,
2013-06-12 05:30:00,79.2,74.3,29.94,WSW,246,3.0,3.0,85,0.00,,FEW055,0.00,VWS V14.01,2013-06-12 09:30:00,
2013-06-12 05:31:00,79.2,74.3,29.94,WSW,246,2.0,2.0,85,0.00,,BKN030,0.00,VWS V14.01,2013-06-12 09:31:00,
2013-06-12 05:32:00,79.2,74.3,29.94,WSW,246,3.0,3.0,85,0.00,,BKN030,0.00,VWS V14.01,2013-06-12 09:32:00,
2013-06-12 05:33:00,79.0,74.1,29.95,WSW,247,3.0,3.0,85,0.00,,BKN030,0.00,VWS V14.01,2013-06-12 09:33:00,
2013-06-12 05:34:00,79.0,74.1,29.94,WSW,247,2.0,3.0,85,0.00,,BKN030,0.00,VWS V14.01,2013-06-12 09:34:00,
2013-06-12 05:35:00,79.0,74.5,29.95,WSW,247,2.0,3.0,86,0.00,,FEW055,0.00,VWS V14.01,2013-06-12 09:35:00,
2013-06-12 05:36:00,79.0,74.5,29.95,WSW,247,2.0,3.0,86,0.00,,BKN030,0.00,VWS V14.01,2013-06-12 09:36:00,
2013-06-12 05:37:00,79.0,74.5,29.95,West,261,2.0,4.0,86,0.00,,BKN030,0.00,VWS V14.01,2013-06-12 09:37:00,
2013-06-12 05:38:00,78.8,74.3,29.95,West,261,2.0,2.0,86,0.00,,BKN030,0.00,VWS V14.01,2013-06-12 09:38:00,
2013-06-12 05:39:00,78.8,74.3,29.95,West,263,5.0,5.0,86,0.00,,BKN030,0.00,VWS V14.01,2013-06-12 09:39:00,
2013-06-12 05:40:00,78.8,74.3,29.95,West,262,2.0,3.0,86,0.00,,FEW055,0.00,VWS V14.01,2013-06-12 09:40:00,
2013-06-12 05:41:00,78.8,74.3,29.95,West,262,2.0,3.0,86,0.00,,BKN030,0.00,VWS V14.01,2013-06-12 09:41:00,
2013-06-12 05:42:00,78.8,74.3,29.95,WSW,257,1.0,4.0,86,0.00,,BKN030,0.00,VWS V14.01,2013-06-12 09:42:00,
2013-06-12 05:43:00,78.8,74.3,29.95,West,268,3.0,5.0,86,0.00,,BKN030,0.00,VWS V14.01,2013-06-12 09:43:00,
2013-06-12 05:44:00,78.8,74.3,29.95,West,265,3.0,5.0,86,0.00,,BKN030,0.00,VWS V14.01,2013-06-12 09:44:00,
2013-06-12 05:45:00,78.8,74.3,29.95,West,266,3.0,3.0,86,0.00,,FEW055,0.00,VWS V14.01,2013-06-12 09:45:00,
2013-06-12 05:46:00,78.8,74.3,29.95,West,266,3.0,3.0,86,0.00,,BKN030,0.00,VWS V14.01,2013-06-12 09:46:00,
2013-06-12 05:47:00,78.6,74.1,29.95,West,265,5.0,5.0,86,0.00,,BKN030,0.00,VWS V14.01,2013-06-12 09:47:00,
2013-06-12 05:48:00,78.6,74.1,29.95,West,277,2.0,5.0,86,0.00,,BKN030,0.00,VWS V14.01,2013-06-12 09:48:00,
2013-06-12 05:49:00,78.6,74.4,29.95,WSW,241,3.0,5.0,87,0.00,,BKN030,0.00,VWS V14.01,2013-06-12 09:49:00,
2013-06-12 05:50:00,78.6,74.4,29.95,WSW,250,0.0,1.0,87,0.00,,FEW055,0.00,VWS V14.01,2013-06-12 09:50:00,
2013-06-12 05:51:00,78.6,74.4,29.95,WSW,250,1.0,2.0,87,0.00,,BKN030,0.00,VWS V14.01,2013-06-12 09:51:00,
2013-06-12 05:52:00,78.6,74.4,29.95,WSW,250,3.0,4.0,87,0.00,,BKN030,0.00,VWS V14.01,2013-06-12 09:52:00,
2013-06-12 05:53:00,78.6,74.4,29.95,West,262,3.0,4.0,87,0.00,,BKN030,0.00,VWS V14.01,2013-06-12 09:53:00,
2013-06-12 05:54:00,78.6,74.4,29.95,WSW,237,4.0,5.0,87,0.00,,BKN030,0.00,VWS V14.01,2013-06-12 09:54:00,
2013-06-12 05:55:00,78.6,74.4,29.95,West,277,4.0,7.0,87,0.00,,CLR,0.00,VWS V14.01,2013-06-12 09:55:00,
2013-06-12 05:56:00,78.6,74.4,29.95,West,277,4.0,7.0,87,0.00,,BKN030,0.00,VWS V14.01,2013-06-12 09:56:00,
2013-06-12 05:57:00,78.6,74.4,29.95,WNW,288,2.0,4.0,87,0.00,,BKN030,0.00,VWS V14.01,2013-06-12 09:57:00,
2013-06-12 05:58:00,78.6,74.4,29.95,WNW,288,1.0,2.0,87,0.00,,BKN030,0.00,VWS V14.01,2013-06-12 09:58:00,
2013-06-12 05:59:00,78.5,74.3,29.95,West,277,2.0,4.0,87,0.00,,BKN030,0.00,VWS V14.01,2013-06-12 09:59:00,
2013-06-12 06:00:00,78.5,74.3,29.95,WSW,252,2.0,4.0,87,0.00,,CLR,0.00,VWS V14.01,2013-06-12 10:00:00,
2013-06-12 06:01:00,78.5,74.3,29.95,WSW,252,2.0,4.0,87,0.00,,BKN030,0.00,VWS V14.01,2013-06-12 10:01:00,
2013-06-12 06:02:00,78.5,74.3,29.95,WSW,241,6.0,6.0,87,0.00,,BKN030,0.00,VWS V14.01,2013-06-12 10:02:00,
2013-06-12 06:03:00,78.5,74.3,29.95,West,267,4.0,6.0,87,0.00,,BKN030,0.00,VWS V14.01,2013-06-12 10:03:00,
2013-06-12 06:04:00,78.5,74.3,29.95,West,259,3.0,4.0,87,0.00,,BKN030,0.00,VWS V14.01,2013-06-12 10:04:00,
2013-06-12 06:05:00,78.5,74.3,29.95,WSW,240,3.0,5.0,87,0.00,,CLR,0.00,VWS V14.01,2013-06-12 10:05:00,
2013-06-12 06:06:00,78.5,74.3,29.95,WSW,242,5.0,5.0,87,0.00,,BKN030,0.00,VWS V14.01,2013-06-12 10:06:00,
2013-06-12 06:07:00,78.5,74.3,29.95,West,259,3.0,5.0,87,0.00,,BKN030,0.00,VWS V14.01,2013-06-12 10:07:00,
2013-06-12 06:08:00,78.5,74.3,29.95,West,267,3.0,3.0,87,0.00,,BKN030,0.00,VWS V14.01,2013-06-12 10:08:00,
2013-06-12 06:09:00,78.5,74.3,29.95,WSW,257,3.0,4.0,87,0.00,,BKN030,0.00,VWS V14.01,2013-06-12 10:09:00,
2013-06-12 06:10:00,78.5,74.3,29.96,West,277,2.0,4.0,87,0.00,,CLR,0.00,VWS V14.01,2013-06-12 10:10:00,
2013-06-12 06:11:00,78.5,74.3,29.96,West,277,2.0,4.0,87,0.00,,BKN030,0.00,VWS V14.01,2013-06-12 10:11:00,
2013-06-12 06:12:00,78.5,74.3,29.96,West,275,2.0,4.0,87,0.00,,BKN030,0.00,VWS V14.01,2013-06-12 10:12:00,
2013-06-12 06:13:00,78.5,74.3,29.96,West,270,1.0,4.0,87,0.00,,BKN030,0.00,VWS V14.01,2013-06-12 10:13:00,
2013-06-12 06:14:00,78.5,74.3,29.96,West,270,3.0,3.0,87,0.00,,BKN030,0.00,VWS V14.01,2013-06-12 10:14:00,
2013-06-12 06:15:00,78.5,74.3,29.96,West,270,1.0,2.0,87,0.00,,CLR,0.00,VWS V14.01,2013-06-12 10:15:00,
2013-06-12 06:16:00,78.5,74.3,29.96,West,270,1.0,2.0,87,0.00,,BKN030,0.00,VWS V14.01,2013-06-12 10:16:00,
2013-06-12 06:17:00,78.5,74.3,29.96,WSW,249,3.0,4.0,87,0.00,,BKN030,0.00,VWS V14.01,2013-06-12 10:17:00,
2013-06-12 06:18:00,78.5,74.3,29.96,WSW,240,3.0,3.0,87,0.00,,BKN030,0.00,VWS V14.01,2013-06-12 10:18:00,
2013-06-12 06:19:00,78.5,74.3,29.96,WSW,242,4.0,5.0,87,0.00,,BKN030,0.00,VWS V14.01,2013-06-12 10:19:00,
2013-06-12 06:20:00,78.5,74.7,29.96,WSW,256,1.0,6.0,88,0.00,,CLR,0.00,VWS V14.01,2013-06-12 10:20:00,
2013-06-12 06:21:00,78.5,74.7,29.96,WSW,256,1.0,6.0,88,0.00,,BKN030,0.00,VWS V14.01,2013-06-12 10:21:00,
2013-06-12 06:22:00,78.5,74.7,29.96,WSW,238,4.0,4.0,88,0.00,,BKN030,0.00,VWS V14.01,2013-06-12 10:22:00,
2013-06-12 06:23:00,78.5,74.7,29.96,WNW,291,5.0,5.0,88,0.00,,BKN030,0.00,VWS V14.01,2013-06-12 10:23:00,
2013-06-12 06:24:00,78.5,74.7,29.97,West,269,3.0,5.0,88,0.00,,BKN030,0.00,VWS V14.01,2013-06-12 10:24:00,
2013-06-12 06:25:00,78.5,74.7,29.96,West,279,2.0,2.0,88,0.00,,CLR,0.00,VWS V14.01,2013-06-12 10:25:00,
2013-06-12 06:26:00,78.5,74.7,29.96,West,279,2.0,2.0,88,0.00,,BKN030,0.00,VWS V14.01,2013-06-12 10:26:00,
2013-06-12 06:27:00,78.5,74.7,29.97,WSW,250,5.0,6.0,88,0.00,,BKN030,0.00,VWS V14.01,2013-06-12 10:27:00,
2013-06-12 06:28:00,78.5,74.7,29.97,WSW,239,0.0,5.0,88,0.00,,BKN030,0.00,VWS V14.01,2013-06-12 10:28:00,
2013-06-12 06:29:00,78.5,74.7,29.97,WNW,296,3.0,4.0,88,0.00,,BKN030,0.00,VWS V14.01,2013-06-12 10:29:00,
2013-06-12 06:30:00,78.5,74.7,29.97,SW,231,6.0,6.0,88,0.00,,CLR,0.00,VWS V14.01,2013-06-12 10:30:00,
2013-06-12 06:31:00,78.5,74.7,29.97,SW,231,6.0,6.0,88,0.00,,BKN030,0.00,VWS V14.01,2013-06-12 10:31:00,
2013-06-12 06:32:00,78.5,74.7,29.97,West,266,1.0,6.0,88,0.00,,BKN030,0.00,VWS V14.01,2013-06-12 10:32:00,
2013-06-12 06:33:00,78.5,74.7,29.97,West,266,2.0,2.0,88,0.00,,BKN030,0.00,VWS V14.01,2013-06-12 10:33:00,
2013-06-12 06:34:00,78.5,74.7,29.97,WSW,244,8.0,8.0,88,0.00,,BKN030,0.00,VWS V14.01,2013-06-12 10:34:00,
2013-06-12 06:35:00,78.5,74.7,29.97,WNW,298,2.0,6.0,88,0.00,,CLR,0.00,VWS V14.01,2013-06-12 10:35:00,
2013-06-12 06:36:00,78.5,74.7,29.97,WNW,298,2.0,6.0,88,0.00,,BKN030,0.00,VWS V14.01,2013-06-12 10:36:00,
2013-06-12 06:37:00,78.5,74.7,29.97,NW,309,1.0,3.0,88,0.00,,BKN030,0.00,VWS V14.01,2013-06-12 10:37:00,
2013-06-12 06:38:00,78.5,74.7,29.97,WNW,299,4.0,6.0,88,0.00,,BKN030,0.00,VWS V14.01,2013-06-12 10:38:00,
2013-06-12 06:39:00,78.5,74.7,29.97,West,266,1.0,4.0,88,0.00,,BKN030,0.00,VWS V14.01,2013-06-12 10:39:00,
2013-06-12 06:40:00,78.5,74.7,29.97,WNW,296,3.0,3.0,88,0.00,,CLR,0.00,VWS V14.01,2013-06-12 10:40:00,
2013-06-12 06:41:00,78.5,74.7,29.97,WNW,296,3.0,3.0,88,0.00,,BKN030,0.00,VWS V14.01,2013-06-12 10:41:00,
2013-06-12 06:42:00,78.5,74.7,29.97,West,277,2.0,5.0,88,0.00,,BKN030,0.00,VWS V14.01,2013-06-12 10:42:00,
2013-06-12 06:43:00,78.5,74.7,29.97,WSW,250,5.0,5.0,88,0.00,,BKN030,0.00,VWS V14.01,2013-06-12 10:43:00,
2013-06-12 06:44:00,78.5,74.7,29.97,West,260,6.0,6.0,88,0.00,,BKN030,0.00,VWS V14.01,2013-06-12 10:44:00,
2013-06-12 06:45:00,78.6,74.8,29.97,WNW,300,1.0,5.0,88,0.00,,CLR,0.00,VWS V14.01,2013-06-12 10:45:00,
2013-06-12 06:46:00,78.6,74.8,29.97,WNW,300,1.0,5.0,88,0.00,,BKN030,0.00,VWS V14.01,2013-06-12 10:46:00,
2013-06-12 06:47:00,78.6,74.8,29.97,West,261,5.0,5.0,88,0.00,,BKN030,0.00,VWS V14.01,2013-06-12 10:47:00,
2013-06-12 06:48:00,78.6,74.8,29.97,WNW,296,1.0,5.0,88,0.00,,BKN030,0.00,VWS V14.01,2013-06-12 10:48:00,
2013-06-12 06:49:00,78.6,74.8,29.97,WNW,292,3.0,3.0,88,0.00,,BKN030,0.00,VWS V14.01,2013-06-12 10:49:00,
2013-06-12 06:50:00,78.6,74.8,29.97,NW,306,2.0,6.0,88,0.00,,CLR,0.00,VWS V14.01,2013-06-12 10:50:00,
2013-06-12 06:51:00,78.6,74.8,29.97,NW,306,2.0,6.0,88,0.00,,BKN030,0.00,VWS V14.01,2013-06-12 10:51:00,
2013-06-12 06:52:00,78.6,74.8,29.97,SW,231,4.0,4.0,88,0.00,,BKN030,0.00,VWS V14.01,2013-06-12 10:52:00,
2013-06-12 06:53:00,78.6,74.8,29.97,NW,304,2.0,7.0,88,0.00,,BKN030,0.00,VWS V14.01,2013-06-12 10:53:00,
2013-06-12 06:54:00,78.6,74.8,29.97,WNW,300,4.0,4.0,88,0.00,,BKN030,0.00,VWS V14.01,2013-06-12 10:54:00,
2013-06-12 06:55:00,78.6,74.8,29.97,WNW,301,1.0,3.0,88,0.00,,CLR,0.00,VWS V14.01,2013-06-12 10:55:00,
2013-06-12 06:56:00,78.6,74.8,29.97,WNW,300,2.0,3.0,88,0.00,,BKN030,0.00,VWS V14.01,2013-06-12 10:56:00,
2013-06-12 06:57:00,78.6,74.8,29.97,West,275,3.0,5.0,88,0.00,,BKN030,0.00,VWS V14.01,2013-06-12 10:57:00,
2013-06-12 06:58:00,78.8,74.9,29.97,WNW,288,2.0,4.0,88,0.00,,BKN030,0.00,VWS V14.01,2013-06-12 10:58:00,
2013-06-12 06:59:00,78.8,74.9,29.97,WNW,282,4.0,5.0,88,0.00,,BKN030,0.00,VWS V14.01,2013-06-12 10:59:00,
2013-06-12 07:00:00,78.8,74.6,29.97,WSW,258,4.0,4.0,87,0.00,,CLR,0.00,VWS V14.01,2013-06-12 11:00:00,
2013-06-12 07:01:00,78.8,74.6,29.97,WSW,258,4.0,4.0,87,0.00,,BKN030,0.00,VWS V14.01,2013-06-12 11:01:00,
2013-06-12 07:02:00,78.8,74.6,29.97,WSW,256,2.0,6.0,87,0.00,,BKN030,0.00,VWS V14.01,2013-06-12 11:02:00,
2013-06-12 07:03:00,78.8,74.6,29.97,West,261,2.0,2.0,87,0.00,,BKN030,0.00,VWS V14.01,2013-06-12 11:03:00,
2013-06-12 07:04:00,78.8,74.6,29.97,West,273,5.0,5.0,87,0.00,,BKN030,0.00,VWS V14.01,2013-06-12 11:04:00,
2013-06-12 07:05:00,78.8,74.6,29.97,WSW,254,5.0,8.0,87,0.00,,CLR,0.00,VWS V14.01,2013-06-12 11:05:00,
2013-06-12 07:06:00,78.8,74.6,29.97,WSW,254,5.0,8.0,87,0.00,,BKN030,0.00,VWS V14.01,2013-06-12 11:06:00,
2013-06-12 07:07:00,78.8,74.6,29.97,West,262,1.0,5.0,87,0.00,,BKN030,0.00,VWS V14.01,2013-06-12 11:07:00,
2013-06-12 07:08:00,78.8,74.6,29.97,West,262,3.0,3.0,87,0.00,,BKN030,0.00,VWS V14.01,2013-06-12 11:08:00,
2013-06-12 07:09:00,78.8,74.6,29.97,West,261,1.0,3.0,87,0.00,,BKN030,0.00,VWS V14.01,2013-06-12 11:09:00,
2013-06-12 07:10:00,79.0,74.8,29.97,SW,236,2.0,5.0,87,0.00,,CLR,0.00,VWS V14.01,2013-06-12 11:10:00,
2013-06-12 07:11:00,79.0,74.8,29.97,SW,236,2.0,5.0,87,0.00,,BKN030,0.00,VWS V14.01,2013-06-12 11:11:00,
2013-06-12 07:12:00,79.0,74.8,29.97,West,262,2.0,4.0,87,0.00,,BKN030,0.00,VWS V14.01,2013-06-12 11:12:00,
2013-06-12 07:13:00,79.0,74.8,29.97,NW,306,3.0,4.0,87,0.00,,BKN030,0.00,VWS V14.01,2013-06-12 11:13:00,
2013-06-12 07:14:00,79.0,74.8,29.97,West,272,2.0,6.0,87,0.00,,BKN030,0.00,VWS V14.01,2013-06-12 11:14:00,
2013-06-12 07:15:00,79.0,74.8,29.97,WNW,288,3.0,4.0,87,0.00,,CLR,0.00,VWS V14.01,2013-06-12 11:15:00,
2013-06-12 07:16:00,79.0,74.8,29.97,WNW,288,3.0,4.0,87,0.00,,BKN030,0.00,VWS V14.01,2013-06-12 11:16:00,
2013-06-12 07:17:00,79.0,74.8,29.97,WNW,298,3.0,6.0,87,0.00,,BKN030,0.00,VWS V14.01,2013-06-12 11:17:00,
2013-06-12 07:18:00,79.2,75.0,29.97,WNW,297,2.0,7.0,87,0.00,,BKN030,0.00,VWS V14.01,2013-06-12 11:18:00,
2013-06-12 07:19:00,79.2,74.7,29.97,WSW,251,2.0,5.0,86,0.00,,BKN030,0.00,VWS V14.01,2013-06-12 11:19:00,
2013-06-12 07:20:00,79.2,74.7,29.97,WNW,292,4.0,6.0,86,0.00,,CLR,0.00,VWS V14.01,2013-06-12 11:20:00,
2013-06-12 07:21:00,79.2,74.7,29.97,WNW,292,4.0,6.0,86,0.00,,BKN030,0.00,VWS V14.01,2013-06-12 11:21:00,
2013-06-12 07:22:00,79.2,73.6,29.97,WSW,258,6.0,6.0,83,0.00,,BKN030,0.00,VWS V14.01,2013-06-12 11:22:00,
2013-06-12 07:23:00,79.2,74.7,29.97,NW,307,3.0,6.0,86,0.00,,BKN030,0.00,VWS V14.01,2013-06-12 11:23:00,
2013-06-12 07:24:00,79.2,74.7,29.97,NW,306,6.0,7.0,86,0.00,,BKN030,0.00,VWS V14.01,2013-06-12 11:24:00,
2013-06-12 07:25:00,79.2,74.7,29.97,WNW,287,2.0,6.0,86,0.00,,CLR,0.00,VWS V14.01,2013-06-12 11:25:00,
2013-06-12 07:26:00,79.2,74.7,29.97,WNW,287,2.0,6.0,86,0.00,,BKN030,0.00,VWS V14.01,2013-06-12 11:26:00,
2013-06-12 07:27:00,79.4,74.8,29.97,NW,309,3.0,4.0,86,0.00,,BKN030,0.00,VWS V14.01,2013-06-12 11:27:00,
2013-06-12 07:28:00,79.4,74.8,29.97,West,281,11.0,11.0,86,0.00,,BKN030,0.00,VWS V14.01,2013-06-12 11:28:00,
2013-06-12 07:29:00,79.4,74.8,29.97,West,280,7.0,11.0,86,0.00,,BKN030,0.00,VWS V14.01,2013-06-12 11:29:00,
2013-06-12 07:30:00,79.4,74.8,29.97,WSW,255,2.0,5.0,86,0.00,,CLR,0.00,VWS V14.01,2013-06-12 11:30:00,
2013-06-12 07:31:00,79.4,74.8,29.97,WSW,255,2.0,5.0,86,0.00,,BKN030,0.00,VWS V14.01,2013-06-12 11:31:00,
2013-06-12 07:32:00,79.4,74.8,29.97,SW,233,6.0,10.0,86,0.00,,BKN030,0.00,VWS V14.01,2013-06-12 11:32:00,
2013-06-12 07:33:00,79.4,74.8,29.97,WSW,255,1.0,6.0,86,0.00,,BKN030,0.00,VWS V14.01,2013-06-12 11:33:00,
2013-06-12 07:34:00,79.6,75.1,29.97,WSW,254,2.0,2.0,86,0.00,,BKN030,0.00,VWS V14.01,2013-06-12 11:34:00,
2013-06-12 07:35:00,79.6,75.1,29.97,West,281,3.0,6.0,86,0.00,,CLR,0.00,VWS V14.01,2013-06-12 11:35:00,
2013-06-12 07:36:00,79.6,75.1,29.97,West,281,3.0,6.0,86,0.00,,BKN030,0.00,VWS V14.01,2013-06-12 11:36:00,
2013-06-12 07:37:00,79.6,75.1,29.97,WNW,296,2.0,7.0,86,0.00,,BKN030,0.00,VWS V14.01,2013-06-12 11:37:00,
2013-06-12 07:38:00,79.6,75.1,29.97,WNW,286,4.0,7.0,86,0.00,,BKN030,0.00,VWS V14.01,2013-06-12 11:38:00,
2013-06-12 07:39:00,79.6,74.7,29.97,NW,311,1.0,5.0,85,0.00,,BKN030,0.00,VWS V14.01,2013-06-12 11:39:00,
2013-06-12 07:40:00,79.8,74.9,29.97,NW,306,2.0,4.0,85,0.00,,CLR,0.00,VWS V14.01,2013-06-12 11:40:00,
2013-06-12 07:41:00,79.8,74.9,29.97,NW,304,2.0,4.0,85,0.00,,BKN030,0.00,VWS V14.01,2013-06-12 11:41:00,
2013-06-12 07:42:00,79.8,74.9,29.97,SW,223,3.0,4.0,85,0.00,,BKN030,0.00,VWS V14.01,2013-06-12 11:42:00,
2013-06-12 07:43:00,79.8,74.9,29.97,WSW,246,10.0,10.0,85,0.00,,BKN030,0.00,VWS V14.01,2013-06-12 11:43:00,
2013-06-12 07:44:00,79.8,74.9,29.97,NW,319,2.0,10.0,85,0.00,,BKN030,0.00,VWS V14.01,2013-06-12 11:44:00,
2013-06-12 07:45:00,79.9,75.0,29.97,WNW,283,5.0,5.0,85,0.00,,FEW100,0.00,VWS V14.01,2013-06-12 11:45:00,
2013-06-12 07:46:00,79.9,75.0,29.97,WNW,283,5.0,5.0,85,0.00,,BKN030,0.00,VWS V14.01,2013-06-12 11:46:00,
2013-06-12 07:47:00,79.9,75.0,29.97,WNW,291,2.0,5.0,85,0.00,,BKN030,0.00,VWS V14.01,2013-06-12 11:47:00,
2013-06-12 07:48:00,79.9,75.0,29.97,West,280,6.0,12.0,85,0.00,,BKN030,0.00,VWS V14.01,2013-06-12 11:48:00,
2013-06-12 07:49:00,79.9,75.0,29.97,North,355,3.0,6.0,85,0.00,,BKN030,0.00,VWS V14.01,2013-06-12 11:49:00,
2013-06-12 07:50:00,80.1,75.2,29.97,WSW,248,5.0,5.0,85,0.00,,FEW100,0.00,VWS V14.01,2013-06-12 11:50:00,
2013-06-12 07:51:00,80.1,75.2,29.97,WSW,248,5.0,5.0,85,0.00,,BKN030,0.00,VWS V14.01,2013-06-12 11:51:00,
2013-06-12 07:52:00,80.1,74.8,29.97,West,264,5.0,9.0,84,0.00,,BKN030,0.00,VWS V14.01,2013-06-12 11:52:00,
2013-06-12 07:53:00,80.1,74.8,29.97,NW,312,2.0,5.0,84,0.00,,BKN030,0.00,VWS V14.01,2013-06-12 11:53:00,
2013-06-12 07:54:00,80.1,74.8,29.97,West,259,1.0,6.0,84,0.00,,BKN030,0.00,VWS V14.01,2013-06-12 11:54:00,
2013-06-12 07:55:00,80.3,75.0,29.97,WNW,286,7.0,7.0,84,0.00,,FEW100,0.00,VWS V14.01,2013-06-12 11:55:00,
2013-06-12 07:56:00,80.3,75.0,29.97,WNW,294,2.0,7.0,84,0.00,,BKN030,0.00,VWS V14.01,2013-06-12 11:56:00,
2013-06-12 07:57:00,80.3,75.0,29.93,WSW,250,3.0,5.0,84,0.00,,BKN030,0.00,VWS V14.01,2013-06-12 11:57:00,
2013-06-12 07:58:00,80.3,75.0,29.93,NNW,334,3.0,3.0,84,0.00,,BKN030,0.00,VWS V14.01,2013-06-12 11:58:00,
2013-06-12 07:59:00,80.3,75.0,29.97,WSW,245,3.0,4.0,84,0.00,,BKN030,0.00,VWS V14.01,2013-06-12 11:59:00,
2013-06-12 08:00:00,80.5,75.2,29.97,WNW,296,4.0,4.0,84,0.00,,FEW100,0.00,VWS V14.01,2013-06-12 12:00:00,
2013-06-12 08:01:00,80.5,75.2,29.97,WSW,254,6.0,6.0,84,0.00,,BKN030,0.00,VWS V14.01,2013-06-12 12:01:00,
2013-06-12 08:02:00,80.5,75.2,29.97,NW,317,3.0,6.0,84,0.00,,BKN030,0.00,VWS V14.01,2013-06-12 12:02:00,
2013-06-12 08:03:00,80.5,75.2,29.97,WNW,295,2.0,4.0,84,0.00,,BKN030,0.00,VWS V14.01,2013-06-12 12:03:00,
2013-06-12 08:04:00,80.5,75.2,29.97,NNW,341,2.0,5.0,84,0.00,,BKN030,0.00,VWS V14.01,2013-06-12 12:04:00,
2013-06-12 08:05:00,80.7,75.1,29.97,West,262,11.0,11.0,83,0.00,,FEW100,0.00,VWS V14.01,2013-06-12 12:05:00,
2013-06-12 08:06:00,80.7,75.1,29.97,WNW,297,6.0,11.0,83,0.00,,BKN030,0.00,VWS V14.01,2013-06-12 12:06:00,
2013-06-12 08:07:00,80.7,75.1,29.97,North,355,4.0,6.0,83,0.00,,BKN030,0.00,VWS V14.01,2013-06-12 12:07:00,
2013-06-12 08:08:00,80.7,75.1,29.97,SW,215,1.0,5.0,83,0.00,,BKN030,0.00,VWS V14.01,2013-06-12 12:08:00,
2013-06-12 08:09:00,80.7,75.1,29.97,West,270,4.0,5.0,83,0.00,,BKN030,0.00,VWS V14.01,2013-06-12 12:09:00,
2013-06-12 08:10:00,80.9,75.3,29.97,NW,323,3.0,8.0,83,0.00,,FEW100,0.00,VWS V14.01,2013-06-12 12:10:00,
2013-06-12 08:11:00,80.9,75.3,29.97,WSW,248,9.0,9.0,83,0.00,,BKN030,0.00,VWS V14.01,2013-06-12 12:11:00,
2013-06-12 08:12:00,80.9,75.3,29.97,NW,316,10.0,10.0,83,0.00,,BKN030,0.00,VWS V14.01,2013-06-12 12:12:00,
2013-06-12 08:13:00,80.9,75.3,29.97,West,278,4.0,10.0,83,0.00,,BKN030,0.00,VWS V14.01,2013-06-12 12:13:00,
2013-06-12 08:14:00,80.9,75.3,29.97,NNW,344,4.0,8.0,83,0.00,,BKN030,0.00,VWS V14.01,2013-06-12 12:14:00,
2013-06-12 08:15:00,80.9,75.3,29.92,West,263,7.0,7.0,83,0.00,,FEW100,0.00,VWS V14.01,2013-06-12 12:15:00,
2013-06-12 08:16:00,80.9,75.3,29.92,West,281,2.0,7.0,83,0.00,,BKN030,0.00,VWS V14.01,2013-06-12 12:16:00,
2013-06-12 08:17:00,80.9,75.3,29.98,WSW,245,6.0,6.0,83,0.00,,BKN030,0.00,VWS V14.01,2013-06-12 12:17:00,
2013-06-12 08:18:00,81.1,75.1,29.98,NNW,345,2.0,6.0,82,0.00,,BKN030,0.00,VWS V14.01,2013-06-12 12:18:00,
2013-06-12 08:19:00,81.1,75.1,29.98,West,263,4.0,4.0,82,0.00,,BKN030,0.00,VWS V14.01,2013-06-12 12:19:00,
2013-06-12 08:20:00,81.1,75.1,29.98,West,271,4.0,6.0,82,0.00,,FEW100,0.00,VWS V14.01,2013-06-12 12:20:00,
2013-06-12 08:21:00,81.1,75.1,29.98,West,261,5.0,6.0,82,0.00,,BKN030,0.00,VWS V14.01,2013-06-12 12:21:00,
2013-06-12 08:22:00,81.1,75.1,29.98,WSW,250,5.0,5.0,82,0.00,,BKN030,0.00,VWS V14.01,2013-06-12 12:22:00,
2013-06-12 08:23:00,81.2,75.2,29.98,WSW,252,4.0,5.0,82,0.00,,BKN030,0.00,VWS V14.01,2013-06-12 12:23:00,
2013-06-12 08:24:00,81.2,75.2,29.98,WNW,297,5.0,5.0,82,0.00,,BKN030,0.00,VWS V14.01,2013-06-12 12:24:00,
2013-06-12 08:25:00,81.2,75.2,29.98,West,265,4.0,5.0,82,0.00,,FEW100,0.00,VWS V14.01,2013-06-12 12:25:00,
2013-06-12 08:26:00,81.2,75.2,29.98,West,265,4.0,5.0,82,0.00,,BKN030,0.00,VWS V14.01,2013-06-12 12:26:00,
2013-06-12 08:27:00,81.4,75.4,29.75,WNW,298,1.0,4.0,82,0.00,,BKN030,0.00,VWS V14.01,2013-06-12 12:27:00,
2013-06-12 08:28:00,81.4,75.4,29.75,WNW,298,7.0,7.0,82,0.00,,BKN030,0.00,VWS V14.01,2013-06-12 12:28:00,
2013-06-12 08:29:00,81.4,75.4,29.75,West,279,8.0,10.0,82,0.00,,BKN030,0.00,VWS V14.01,2013-06-12 12:29:00,
2013-06-12 08:30:00,81.4,75.4,29.98,NNW,348,4.0,12.0,82,0.00,,FEW100,0.00,VWS V14.01,2013-06-12 12:30:00,
2013-06-12 08:31:00,81.4,75.4,29.98,NNW,348,1.0,12.0,82,0.00,,BKN030,0.00,VWS V14.01,2013-06-12 12:31:00,
2013-06-12 08:32:00,81.6,75.6,29.98,NW,323,4.0,7.0,82,0.00,,BKN030,0.00,VWS V14.01,2013-06-12 12:32:00,
2013-06-12 08:33:00,81.6,75.6,29.98,West,263,2.0,4.0,82,0.00,,BKN030,0.00,VWS V14.01,2013-06-12 12:33:00,
2013-06-12 08:34:00,81.6,75.6,29.98,WNW,290,3.0,4.0,82,0.00,,BKN030,0.00,VWS V14.01,2013-06-12 12:34:00,
2013-06-12 08:35:00,81.8,75.8,29.98,North,355,3.0,3.0,82,0.00,,FEW100,0.00,VWS V14.01,2013-06-12 12:35:00,
2013-06-12 08:36:00,81.8,75.8,29.98,North,355,4.0,4.0,82,0.00,,BKN030,0.00,VWS V14.01,2013-06-12 12:36:00,
2013-06-12 08:37:00,81.8,75.8,29.98,North,355,3.0,4.0,82,0.00,,BKN030,0.00,VWS V14.01,2013-06-12 12:37:00,
2013-06-12 08:38:00,82.0,76.0,29.98,North,355,14.0,14.0,82,0.00,,BKN030,0.00,VWS V14.01,2013-06-12 12:38:00,
2013-06-12 08:39:00,82.0,76.0,29.98,North,355,6.0,14.0,82,0.00,,BKN030,0.00,VWS V14.01,2013-06-12 12:39:00,
2013-06-12 08:40:00,82.0,75.6,29.98,NW,319,9.0,10.0,81,0.00,,FEW100,0.00,VWS V14.01,2013-06-12 12:40:00,
2013-06-12 08:41:00,82.0,75.6,29.98,NW,319,9.0,10.0,81,0.00,,BKN030,0.00,VWS V14.01,2013-06-12 12:41:00,
2013-06-12 08:42:00,82.0,75.6,29.98,WNW,285,5.0,10.0,81,0.00,,BKN030,0.00,VWS V14.01,2013-06-12 12:42:00,
2013-06-12 08:43:00,82.0,75.6,29.98,WNW,284,6.0,9.0,81,0.00,,BKN030,0.00,VWS V14.01,2013-06-12 12:43:00,
2013-06-12 08:44:00,82.0,76.0,29.98,WNW,284,1.0,6.0,82,0.00,,BKN030,0.00,VWS V14.01,2013-06-12 12:44:00,
2013-06-12 08:45:00,82.2,76.2,29.67,NW,317,3.0,5.0,82,0.00,,FEW100,0.00,VWS V14.01,2013-06-12 12:45:00,
2013-06-12 08:46:00,82.2,75.8,29.67,NW,317,2.0,5.0,81,0.00,,BKN030,0.00,VWS V14.01,2013-06-12 12:46:00,
2013-06-12 08:47:00,82.2,75.8,29.76,West,269,3.0,4.0,81,0.00,,BKN030,0.00,VWS V14.01,2013-06-12 12:47:00,
2013-06-12 08:48:00,82.2,75.8,29.76,WNW,286,9.0,9.0,81,0.00,,BKN030,0.00,VWS V14.01,2013-06-12 12:48:00,
2013-06-12 08:49:00,82.2,75.8,29.76,West,275,2.0,9.0,81,0.00,,BKN030,0.00,VWS V14.01,2013-06-12 12:49:00,
2013-06-12 08:50:00,82.4,76.0,29.76,WSW,255,4.0,5.0,81,0.00,,FEW100,0.00,VWS V14.01,2013-06-12 12:50:00,
2013-06-12 08:51:00,82.4,76.0,29.76,West,275,5.0,5.0,81,0.00,,BKN030,0.00,VWS V14.01,2013-06-12 12:51:00,
2013-06-12 08:52:00,82.4,76.0,29.76,WNW,291,4.0,5.0,81,0.00,,BKN030,0.00,VWS V14.01,2013-06-12 12:52:00,
2013-06-12 08:53:00,82.6,76.2,29.76,NW,314,2.0,4.0,81,0.00,,BKN030,0.00,VWS V14.01,2013-06-12 12:53:00,
2013-06-12 08:54:00,82.6,76.2,29.85,WNW,283,2.0,5.0,81,0.00,,BKN030,0.00,VWS V14.01,2013-06-12 12:54:00,
2013-06-12 08:55:00,82.6,76.2,29.85,NNW,341,4.0,6.0,81,0.00,,FEW100,0.00,VWS V14.01,2013-06-12 12:55:00,
2013-06-12 08:56:00,82.6,76.2,29.85,WSW,244,5.0,6.0,81,0.00,,BKN030,0.00,VWS V14.01,2013-06-12 12:56:00,
2013-06-12 08:57:00,82.8,76.4,29.93,NNE,18,0.0,5.0,81,0.00,,BKN030,0.00,VWS V14.01,2013-06-12 12:57:00,
2013-06-12 08:58:00,82.8,76.4,29.93,North,5,3.0,4.0,81,0.00,,BKN030,0.00,VWS V14.01,2013-06-12 12:58:00,
2013-06-12 08:59:00,82.8,76.4,29.93,North,5,3.0,3.0,81,0.00,,BKN030,0.00,VWS V14.01,2013-06-12 12:59:00,
2013-06-12 09:00:00,83.0,76.2,29.93,NNW,340,1.0,6.0,80,0.00,,FEW100,0.00,VWS V14.01,2013-06-12 13:00:00,
2013-06-12 09:01:00,83.0,76.2,29.93,WNW,299,7.0,7.0,80,0.00,,BKN030,0.00,VWS V14.01,2013-06-12 13:01:00,
2013-06-12 09:02:00,83.0,76.2,29.93,WSW,252,7.0,7.0,80,0.00,,BKN030,0.00,VWS V14.01,2013-06-12 13:02:00,
2013-06-12 09:03:00,83.0,75.8,29.93,West,264,6.0,11.0,79,0.00,,BKN030,0.00,VWS V14.01,2013-06-12 13:03:00,
2013-06-12 09:04:00,83.0,75.8,29.93,NNW,330,3.0,6.0,79,0.00,,BKN030,0.00,VWS V14.01,2013-06-12 13:04:00,
2013-06-12 09:05:00,83.2,76.0,29.98,West,267,5.0,5.0,79,0.00,,FEW100,0.00,VWS V14.01,2013-06-12 13:05:00,
2013-06-12 09:06:00,83.2,76.0,29.98,NW,309,4.0,5.0,79,0.00,,BKN030,0.00,VWS V14.01,2013-06-12 13:06:00,
2013-06-12 09:07:00,83.2,76.0,29.98,NW,309,3.0,5.0,79,0.00,,BKN030,0.00,VWS V14.01,2013-06-12 13:07:00,
2013-06-12 09:08:00,83.2,76.0,29.98,North,9,6.0,6.0,79,0.00,,BKN030,0.00,VWS V14.01,2013-06-12 13:08:00,
2013-06-12 09:09:00,83.4,76.6,29.98,West,269,6.0,6.0,80,0.00,,BKN030,0.00,VWS V14.01,2013-06-12 13:09:00,
2013-06-12 09:10:00,83.4,76.2,29.98,West,274,2.0,2.0,79,0.00,,FEW100,0.00,VWS V14.01,2013-06-12 13:10:00,
2013-06-12 09:11:00,83.4,76.2,29.98,West,279,1.0,2.0,79,0.00,,BKN030,0.00,VWS V14.01,2013-06-12 13:11:00,
2013-06-12 09:12:00,83.6,76.8,29.98,NNW,344,2.0,3.0,80,0.00,,BKN030,0.00,VWS V14.01,2013-06-12 13:12:00,
2013-06-12 09:13:00,83.6,76.8,29.98,NW,326,2.0,4.0,80,0.00,,BKN030,0.00,VWS V14.01,2013-06-12 13:13:00,
2013-06-12 09:14:00,83.8,76.6,29.98,WNW,293,4.0,4.0,79,0.00,,BKN030,0.00,VWS V14.01,2013-06-12 13:14:00,
2013-06-12 09:15:00,83.8,76.6,29.96,NW,319,4.0,5.0,79,0.00,,FEW100,0.00,VWS V14.01,2013-06-12 13:15:00,
2013-06-12 09:16:00,83.8,76.6,29.96,West,278,4.0,5.0,79,0.00,,BKN030,0.00,VWS V14.01,2013-06-12 13:16:00,
2013-06-12 09:17:00,83.8,76.2,29.96,WNW,284,2.0,6.0,78,0.00,,BKN030,0.00,VWS V14.01,2013-06-12 13:17:00,
2013-06-12 09:18:00,83.8,76.2,29.96,WSW,255,5.0,6.0,78,0.00,,BKN030,0.00,VWS V14.01,2013-06-12 13:18:00,
2013-06-12 09:19:00,83.8,76.2,29.97,North,360,3.0,6.0,78,0.00,,BKN030,0.00,VWS V14.01,2013-06-12 13:19:00,
2013-06-12 09:20:00,84.0,76.4,29.98,North,360,1.0,5.0,78,0.00,,FEW100,0.00,VWS V14.01,2013-06-12 13:20:00,
2013-06-12 09:21:00,84.0,76.4,29.98,West,277,5.0,5.0,78,0.00,,BKN030,0.00,VWS V14.01,2013-06-12 13:21:00,
2013-06-12 09:22:00,84.0,76.4,29.98,NW,314,5.0,6.0,78,0.00,,BKN030,0.00,VWS V14.01,2013-06-12 13:22:00,
2013-06-12 09:23:00,84.0,76.4,29.98,NW,317,3.0,6.0,78,0.00,,BKN030,0.00,VWS V14.01,2013-06-12 13:23:00,
2013-06-12 09:24:00,84.0,76.4,29.98,West,275,3.0,3.0,78,0.00,,BKN030,0.00,VWS V14.01,2013-06-12 13:24:00,
2013-06-12 09:25:00,84.1,76.5,29.98,WNW,299,4.0,8.0,78,0.00,,FEW100,0.00,VWS V14.01,2013-06-12 13:25:00,
2013-06-12 09:26:00,84.1,76.5,29.98,NW,309,3.0,8.0,78,0.00,,BKN030,0.00,VWS V14.01,2013-06-12 13:26:00,
2013-06-12 09:27:00,84.1,76.5,29.88,NW,323,2.0,4.0,78,0.00,,BKN030,0.00,VWS V14.01,2013-06-12 13:27:00,
2013-06-12 09:28:00,84.1,76.5,29.88,SW,233,4.0,4.0,78,0.00,,BKN030,0.00,VWS V14.01,2013-06-12 13:28:00,
2013-06-12 09:29:00,84.1,76.5,29.75,SW,229,5.0,5.0,78,0.00,,BKN030,0.00,VWS V14.01,2013-06-12 13:29:00,
2013-06-12 09:30:00,84.3,76.3,29.75,West,263,7.0,9.0,77,0.00,,FEW100,0.00,VWS V14.01,2013-06-12 13:30:00,
2013-06-12 09:31:00,84.3,76.3,29.75,West,277,7.0,9.0,77,0.00,,BKN030,0.00,VWS V14.01,2013-06-12 13:31:00,
2013-06-12 09:32:00,84.3,76.3,29.75,WNW,295,5.0,7.0,77,0.00,,BKN030,0.00,VWS V14.01,2013-06-12 13:32:00,
2013-06-12 09:33:00,84.3,76.3,29.75,WNW,296,3.0,7.0,77,0.00,,BKN030,0.00,VWS V14.01,2013-06-12 13:33:00,
2013-06-12 09:34:00,84.3,76.3,29.75,SSW,212,5.0,5.0,77,0.00,,BKN030,0.00,VWS V14.01,2013-06-12 13:34:00,
2013-06-12 09:35:00,84.5,76.5,29.75,NNW,347,5.0,6.0,77,0.00,,FEW100,0.00,VWS V14.01,2013-06-12 13:35:00,
2013-06-12 09:36:00,84.5,76.5,29.75,West,272,4.0,6.0,77,0.00,,BKN030,0.00,VWS V14.01,2013-06-12 13:36:00,
2013-06-12 09:37:00,84.5,76.5,29.75,West,261,7.0,9.0,77,0.00,,BKN030,0.00,VWS V14.01,2013-06-12 13:37:00,
2013-06-12 09:38:00,84.5,76.5,29.75,West,278,1.0,7.0,77,0.00,,BKN030,0.00,VWS V14.01,2013-06-12 13:38:00,
2013-06-12 09:39:00,84.5,76.5,29.75,WSW,250,2.0,2.0,77,0.00,,BKN030,0.00,VWS V14.01,2013-06-12 13:39:00,
2013-06-12 09:40:00,84.7,76.7,29.75,WNW,303,3.0,5.0,77,0.00,,FEW100,0.00,VWS V14.01,2013-06-12 13:40:00,
2013-06-12 09:41:00,84.7,76.7,29.76,WNW,303,2.0,5.0,77,0.00,,BKN030,0.00,VWS V14.01,2013-06-12 13:41:00,
2013-06-12 09:42:00,84.9,76.9,29.76,NW,306,2.0,2.0,77,0.00,,BKN030,0.00,VWS V14.01,2013-06-12 13:42:00,
2013-06-12 09:43:00,84.9,76.9,29.76,NW,306,1.0,3.0,77,0.00,,BKN030,0.00,VWS V14.01,2013-06-12 13:43:00,
2013-06-12 09:44:00,84.9,76.5,29.76,NNW,338,4.0,5.0,76,0.00,,BKN030,0.00,VWS V14.01,2013-06-12 13:44:00,
2013-06-12 09:45:00,85.1,76.3,29.76,NNW,340,4.0,8.0,75,0.00,,FEW200,0.00,VWS V14.01,2013-06-12 13:45:00,
2013-06-12 09:46:00,85.1,76.3,29.76,NW,320,9.0,9.0,75,0.00,,BKN030,0.00,VWS V14.01,2013-06-12 13:46:00,
2013-06-12 09:47:00,85.1,76.3,29.76,WNW,289,9.0,9.0,75,0.00,,BKN030,0.00,VWS V14.01,2013-06-12 13:47:00,
2013-06-12 09:48:00,85.1,76.3,29.48,SW,236,6.0,9.0,75,0.00,,BKN030,0.00,VWS V14.01,2013-06-12 13:48:00,
2013-06-12 09:49:00,85.1,76.3,29.49,NNW,336,4.0,6.0,75,0.00,,BKN030,0.00,VWS V14.01,2013-06-12 13:49:00,
2013-06-12 09:50:00,85.1,76.3,29.51,West,277,10.0,10.0,75,0.00,,FEW100,0.00,VWS V14.01,2013-06-12 13:50:00,
2013-06-12 09:51:00,85.1,76.3,29.51,West,262,5.0,10.0,75,0.00,,BKN030,0.00,VWS V14.01,2013-06-12 13:51:00,
2013-06-12 09:52:00,85.1,76.3,29.51,NW,304,5.0,5.0,75,0.00,,BKN030,0.00,VWS V14.01,2013-06-12 13:52:00,
2013-06-12 09:53:00,85.3,76.5,29.51,WNW,299,4.0,10.0,75,0.00,,BKN030,0.00,VWS V14.01,2013-06-12 13:53:00,
2013-06-12 09:54:00,85.3,76.5,29.51,North,355,4.0,4.0,75,0.00,,BKN030,0.00,VWS V14.01,2013-06-12 13:54:00,
2013-06-12 09:55:00,85.3,76.5,29.47,West,278,2.0,7.0,75,0.00,,FEW200,0.00,VWS V14.01,2013-06-12 13:55:00,
2013-06-12 09:56:00,85.3,76.5,29.47,West,278,1.0,7.0,75,0.00,,BKN030,0.00,VWS V14.01,2013-06-12 13:56:00,
2013-06-12 09:57:00,85.3,76.5,29.48,WSW,249,5.0,5.0,75,0.00,,BKN030,0.00,VWS V14.01,2013-06-12 13:57:00,
2013-06-12 09:58:00,85.5,77.1,29.48,NW,305,3.0,5.0,76,0.00,,BKN030,0.00,VWS V14.01,2013-06-12 13:58:00,
2013-06-12 09:59:00,85.5,76.7,29.48,SW,232,4.0,5.0,75,0.00,,BKN030,0.00,VWS V14.01,2013-06-12 13:59:00,
2013-06-12 10:00:00,85.7,76.5,29.48,NW,308,3.0,3.0,74,0.00,,FEW200,0.00,VWS V14.01,2013-06-12 14:00:00,
2013-06-12 10:01:00,85.7,76.5,29.48,NW,311,4.0,4.0,74,0.00,,BKN030,0.00,VWS V14.01,2013-06-12 14:01:00,
2013-06-12 10:02:00,85.7,76.5,29.48,NW,319,2.0,5.0,74,0.00,,BKN030,0.00,VWS V14.01,2013-06-12 14:02:00,
2013-06-12 10:03:00,85.9,76.7,29.48,NW,324,2.0,4.0,74,0.00,,BKN030,0.00,VWS V14.01,2013-06-12 14:03:00,
2013-06-12 10:04:00,85.9,76.2,29.47,WSW,240,2.0,6.0,73,0.00,,BKN030,0.00,VWS V14.01,2013-06-12 14:04:00,
2013-06-12 10:05:00,86.1,76.8,29.47,WNW,288,4.0,6.0,74,0.00,,FEW200,0.00,VWS V14.01,2013-06-12 14:05:00,
2013-06-12 10:06:00,86.1,76.4,29.47,NW,304,2.0,6.0,73,0.00,,BKN030,0.00,VWS V14.01,2013-06-12 14:06:00,
2013-06-12 10:07:00,86.1,76.4,29.49,West,270,3.0,3.0,73,0.00,,BKN030,0.00,VWS V14.01,2013-06-12 14:07:00,
2013-06-12 10:08:00,86.3,76.6,29.49,NW,305,1.0,4.0,73,0.00,,BKN030,0.00,VWS V14.01,2013-06-12 14:08:00,
2013-06-12 10:09:00,86.3,76.2,29.49,West,270,4.0,6.0,72,0.00,,BKN030,0.00,VWS V14.01,2013-06-12 14:09:00,
2013-06-12 10:10:00,86.3,76.2,29.47,WNW,292,3.0,5.0,72,0.00,,FEW200,0.00,VWS V14.01,2013-06-12 14:10:00,
2013-06-12 10:11:00,86.5,76.4,29.47,WSW,258,4.0,5.0,72,0.00,,BKN030,0.00,VWS V14.01,2013-06-12 14:11:00,
2013-06-12 10:12:00,86.5,76.4,29.47,NNW,327,4.0,8.0,72,0.00,,BKN030,0.00,VWS V14.01,2013-06-12 14:12:00,
2013-06-12 10:13:00,86.5,76.0,29.43,WSW,257,4.0,10.0,71,0.00,,BKN030,0.00,VWS V14.01,2013-06-12 14:13:00,
2013-06-12 10:14:00,86.5,76.4,29.43,WNW,282,9.0,9.0,72,0.00,,BKN030,0.00,VWS V14.01,2013-06-12 14:14:00,
2013-06-12 10:15:00,86.5,76.0,29.43,NNW,328,4.0,4.0,71,0.00,,FEW200,0.00,VWS V14.01,2013-06-12 14:15:00,
2013-06-12 10:16:00,86.5,76.0,29.43,WNW,301,3.0,4.0,71,0.00,,BKN030,0.00,VWS V14.01,2013-06-12 14:16:00,
2013-06-12 10:17:00,86.5,76.0,29.43,NW,325,3.0,6.0,71,0.00,,BKN030,0.00,VWS V14.01,2013-06-12 14:17:00,
2013-06-12 10:18:00,86.5,76.0,29.43,WNW,290,2.0,3.0,71,0.00,,BKN030,0.00,VWS V14.01,2013-06-12 14:18:00,
2013-06-12 10:19:00,86.5,76.0,29.43,West,279,2.0,6.0,71,0.00,,BKN030,0.00,VWS V14.01,2013-06-12 14:19:00,
2013-06-12 10:20:00,86.7,76.2,29.43,NNW,342,4.0,10.0,71,0.00,,FEW200,0.00,VWS V14.01,2013-06-12 14:20:00,
2013-06-12 10:21:00,86.7,76.2,29.43,NNW,346,3.0,10.0,71,0.00,,BKN030,0.00,VWS V14.01,2013-06-12 14:21:00,
2013-06-12 10:22:00,87.0,76.5,29.43,NNW,346,2.0,3.0,71,0.00,,BKN030,0.00,VWS V14.01,2013-06-12 14:22:00,
2013-06-12 10:23:00,87.0,76.5,29.43,North,355,4.0,5.0,71,0.00,,BKN030,0.00,VWS V14.01,2013-06-12 14:23:00,
2013-06-12 10:24:00,87.2,76.7,29.43,North,355,1.0,4.0,71,0.00,,BKN030,0.00,VWS V14.01,2013-06-12 14:24:00,
2013-06-12 10:25:00,87.2,76.7,29.43,NNW,346,5.0,5.0,71,0.00,,FEW200,0.00,VWS V14.01,2013-06-12 14:25:00,
2013-06-12 10:26:00,87.2,76.7,29.43,NNW,346,2.0,5.0,71,0.00,,BKN030,0.00,VWS V14.01,2013-06-12 14:26:00,
2013-06-12 10:27:00,87.4,76.4,29.43,NNW,336,4.0,5.0,70,0.00,,BKN030,0.00,VWS V14.01,2013-06-12 14:27:00,
2013-06-12 10:28:00,87.4,76.4,29.43,NNW,342,1.0,4.0,70,0.00,,BKN030,0.00,VWS V14.01,2013-06-12 14:28:00,
2013-06-12 10:29:00,87.4,76.4,29.43,NNW,341,3.0,3.0,70,0.00,,BKN030,0.00,VWS V14.01,2013-06-12 14:29:00,
2013-06-12 10:30:00,87.6,76.6,29.43,NNW,329,3.0,3.0,70,0.00,,FEW200,0.00,VWS V14.01,2013-06-12 14:30:00,
2013-06-12 10:31:00,87.8,76.8,29.43,NNW,336,4.0,4.0,70,0.00,,BKN030,0.00,VWS V14.01,2013-06-12 14:31:00,
2013-06-12 10:32:00,87.8,76.4,29.43,NNW,339,1.0,4.0,69,0.00,,BKN030,0.00,VWS V14.01,2013-06-12 14:32:00,
2013-06-12 10:33:00,88.0,77.8,29.43,NW,323,5.0,5.0,72,0.00,,BKN030,0.00,VWS V14.01,2013-06-12 14:33:00,
2013-06-12 10:34:00,88.0,77.0,29.43,West,268,4.0,10.0,70,0.00,,BKN030,0.00,VWS V14.01,2013-06-12 14:34:00,
2013-06-12 10:35:00,88.2,76.3,29.43,West,277,3.0,4.0,68,0.00,,FEW200,0.00,VWS V14.01,2013-06-12 14:35:00,
2013-06-12 10:36:00,88.2,76.3,29.43,WSW,247,6.0,6.0,68,0.00,,BKN030,0.00,VWS V14.01,2013-06-12 14:36:00,
2013-06-12 10:37:00,88.2,76.8,29.43,SW,219,1.0,6.0,69,0.00,,BKN030,0.00,VWS V14.01,2013-06-12 14:37:00,
2013-06-12 10:38:00,88.2,76.8,29.43,NW,321,2.0,5.0,69,0.00,,BKN030,0.00,VWS V14.01,2013-06-12 14:38:00,
2013-06-12 10:39:00,88.2,76.8,29.43,WSW,256,2.0,5.0,69,0.00,,BKN030,0.00,VWS V14.01,2013-06-12 14:39:00,
2013-06-12 10:40:00,88.4,76.5,29.43,WSW,242,6.0,6.0,68,0.00,,FEW200,0.00,VWS V14.01,2013-06-12 14:40:00,
2013-06-12 10:41:00,88.4,76.5,29.43,SW,215,7.0,7.0,68,0.00,,BKN030,0.00,VWS V14.01,2013-06-12 14:41:00,
2013-06-12 10:42:00,88.4,76.5,29.43,WSW,254,5.0,8.0,68,0.00,,BKN030,0.00,VWS V14.01,2013-06-12 14:42:00,
2013-06-12 10:43:00,88.4,76.5,29.43,WSW,240,5.0,5.0,68,0.00,,BKN030,0.00,VWS V14.01,2013-06-12 14:43:00,
2013-06-12 10:44:00,88.4,76.5,29.43,SW,229,6.0,6.0,68,0.00,,BKN030,0.00,VWS V14.01,2013-06-12 14:44:00,
2013-06-12 10:45:00,88.4,76.1,29.43,West,277,1.0,7.0,67,0.00,,SCT200,0.00,VWS V14.01,2013-06-12 14:45:00,
2013-06-12 10:46:00,88.4,76.1,29.43,WSW,239,5.0,7.0,67,0.00,,BKN030,0.00,VWS V14.01,2013-06-12 14:46:00,
2013-06-12 10:47:00,88.4,76.5,29.43,West,279,1.0,5.0,68,0.00,,BKN030,0.00,VWS V14.01,2013-06-12 14:47:00,
2013-06-12 10:48:00,88.4,76.9,29.93,West,280,1.0,3.0,69,0.00,,BKN030,0.00,VWS V14.01,2013-06-12 14:48:00,
2013-06-12 10:49:00,88.6,77.1,29.93,NW,304,2.0,3.0,69,0.00,,BKN030,0.00,VWS V14.01,2013-06-12 14:49:00,
2013-06-12 10:50:00,88.6,77.1,29.93,West,259,7.0,7.0,69,0.00,,SCT200,0.00,VWS V14.01,2013-06-12 14:50:00,
2013-06-12 10:51:00,88.6,76.7,29.93,WSW,244,2.0,7.0,68,0.00,,BKN030,0.00,VWS V14.01,2013-06-12 14:51:00,
2013-06-12 10:52:00,88.6,76.7,29.93,West,263,9.0,9.0,68,0.00,,BKN030,0.00,VWS V14.01,2013-06-12 14:52:00,
2013-06-12 10:53:00,88.6,76.7,29.93,NW,323,6.0,9.0,68,0.00,,BKN030,0.00,VWS V14.01,2013-06-12 14:53:00,
2013-06-12 10:54:00,88.6,76.7,29.93,NW,312,5.0,6.0,68,0.00,,BKN030,0.00,VWS V14.01,2013-06-12 14:54:00,
2013-06-12 10:55:00,88.6,76.7,29.93,WSW,254,2.0,3.0,68,0.00,,SCT200,0.00,VWS V14.01,2013-06-12 14:55:00,
2013-06-12 10:56:00,88.6,77.1,29.93,WSW,254,2.0,3.0,69,0.00,,BKN030,0.00,VWS V14.01,2013-06-12 14:56:00,
2013-06-12 10:57:00,88.6,76.2,29.93,SW,236,6.0,9.0,67,0.00,,BKN030,0.00,VWS V14.01,2013-06-12 14:57:00,
2013-06-12 10:58:00,88.6,76.2,29.96,WNW,284,4.0,7.0,67,0.00,,BKN030,0.00,VWS V14.01,2013-06-12 14:58:00,
2013-06-12 10:59:00,88.8,76.4,29.96,West,269,4.0,9.0,67,0.00,,BKN030,0.00,VWS V14.01,2013-06-12 14:59:00,
2013-06-12 11:00:00,88.8,76.4,29.94,West,268,3.0,9.0,67,0.00,,SCT200,0.00,VWS V14.01,2013-06-12 15:00:00,
2013-06-12 11:01:00,88.8,76.0,29.94,West,266,6.0,9.0,66,0.00,,BKN030,0.00,VWS V14.01,2013-06-12 15:01:00,
2013-06-12 11:02:00,88.8,76.0,29.98,WSW,253,3.0,6.0,66,0.00,,BKN030,0.00,VWS V14.01,2013-06-12 15:02:00,
2013-06-12 11:03:00,88.8,76.0,29.98,WSW,244,0.0,4.0,66,0.00,,BKN030,0.00,VWS V14.01,2013-06-12 15:03:00,
2013-06-12 11:04:00,89.0,76.6,29.98,West,274,2.0,2.0,67,0.00,,BKN030,0.00,VWS V14.01,2013-06-12 15:04:00,
2013-06-12 11:05:00,89.3,76.9,29.81,WNW,285,3.0,3.0,67,0.00,,SCT200,0.00,VWS V14.01,2013-06-12 15:05:00,
2013-06-12 11:06:00,89.3,76.0,29.81,WNW,285,0.0,3.0,65,0.00,,BKN030,0.00,VWS V14.01,2013-06-12 15:06:00,
2013-06-12 11:07:00,89.5,76.2,29.81,WSW,244,4.0,4.0,65,0.00,,BKN030,0.00,VWS V14.01,2013-06-12 15:07:00,
2013-06-12 11:08:00,89.7,76.8,29.97,WSW,244,1.0,4.0,66,0.00,,BKN030,0.00,VWS V14.01,2013-06-12 15:08:00,
2013-06-12 11:09:00,89.9,77.0,29.97,WNW,286,6.0,6.0,66,0.00,,BKN030,0.00,VWS V14.01,2013-06-12 15:09:00,
2013-06-12 11:10:00,89.9,76.1,29.97,WSW,250,5.0,5.0,64,0.00,,SCT200,0.00,VWS V14.01,2013-06-12 15:10:00,
2013-06-12 11:11:00,89.9,76.1,29.94,West,268,4.0,5.0,64,0.00,,BKN030,0.00,VWS V14.01,2013-06-12 15:11:00,
2013-06-12 11:12:00,89.9,75.6,29.94,NW,313,2.0,4.0,63,0.00,,BKN030,0.00,VWS V14.01,2013-06-12 15:12:00,
2013-06-12 11:13:00,89.9,76.1,29.92,WNW,286,6.0,6.0,64,0.00,,BKN030,0.00,VWS V14.01,2013-06-12 15:13:00,
2013-06-12 11:14:00,89.9,76.1,29.92,WSW,255,5.0,6.0,64,0.00,,BKN030,0.00,VWS V14.01,2013-06-12 15:14:00,
2013-06-12 11:15:00,89.9,76.1,29.92,WSW,253,1.0,4.0,64,0.00,,SCT200,0.00,VWS V14.01,2013-06-12 15:15:00,
2013-06-12 11:16:00,89.9,76.1,29.92,WSW,253,2.0,4.0,64,0.00,,BKN030,0.00,VWS V14.01,2013-06-12 15:16:00,
2013-06-12 11:17:00,90.1,76.3,29.92,WSW,254,2.0,2.0,64,0.00,,BKN030,0.00,VWS V14.01,2013-06-12 15:17:00,
2013-06-12 11:19:00,90.3,75.5,29.97,WNW,288,2.0,4.0,62,0.00,,BKN030,0.00,VWS V14.01,2013-06-12 15:19:00,
2013-06-12 11:20:00,90.3,75.0,29.97,WNW,293,1.0,7.0,61,0.00,,SCT200,0.00,VWS V14.01,2013-06-12 15:20:00,
2013-06-12 11:21:00,90.3,75.0,29.97,WNW,293,2.0,7.0,61,0.00,,BKN030,0.00,VWS V14.01,2013-06-12 15:21:00,
2013-06-12 11:22:00,90.3,75.5,29.97,West,273,4.0,4.0,62,0.00,,BKN030,0.00,VWS V14.01,2013-06-12 15:22:00,
2013-06-12 11:24:00,90.3,76.0,29.85,NW,306,4.0,6.0,63,0.00,,BKN030,0.00,VWS V14.01,2013-06-12 15:24:00,
2013-06-12 11:25:00,90.3,76.0,29.85,SW,229,1.0,3.0,63,0.00,,SCT200,0.00,VWS V14.01,2013-06-12 15:25:00,
2013-06-12 11:26:00,90.3,76.0,29.85,SW,229,2.0,3.0,63,0.00,,BKN030,0.00,VWS V14.01,2013-06-12 15:26:00,
2013-06-12 11:27:00,90.5,76.2,29.85,WSW,253,6.0,6.0,63,0.00,,BKN030,0.00,VWS V14.01,2013-06-12 15:27:00,
2013-06-12 11:28:00,90.5,75.7,29.80,SW,236,4.0,8.0,62,0.00,,BKN030,0.00,VWS V14.01,2013-06-12 15:28:00,
2013-06-12 11:29:00,90.5,75.2,29.80,WNW,302,4.0,7.0,61,0.00,,BKN030,0.00,VWS V14.01,2013-06-12 15:29:00,
2013-06-12 11:30:00,90.5,75.2,29.80,SW,235,7.0,7.0,61,0.00,,SCT200,0.00,VWS V14.01,2013-06-12 15:30:00,
2013-06-12 11:31:00,90.5,75.2,29.80,West,281,3.0,7.0,61,0.00,,BKN030,0.00,VWS V14.01,2013-06-12 15:31:00,
2013-06-12 11:32:00,90.7,74.9,29.80,West,278,4.0,5.0,60,0.00,,BKN030,0.00,VWS V14.01,2013-06-12 15:32:00,
2013-06-12 11:34:00,91.0,75.7,29.80,NNE,31,1.0,3.0,61,0.00,,BKN030,0.00,VWS V14.01,2013-06-12 15:34:00,
2013-06-12 11:35:00,91.2,75.4,29.68,NW,304,3.0,4.0,60,0.00,,SCT200,0.00,VWS V14.01,2013-06-12 15:35:00,
2013-06-12 11:36:00,91.2,75.4,29.68,West,273,3.0,4.0,60,0.00,,BKN030,0.00,VWS V14.01,2013-06-12 15:36:00,
2013-06-12 11:37:00,91.2,74.9,29.68,West,273,2.0,3.0,59,0.00,,BKN030,0.00,VWS V14.01,2013-06-12 15:37:00,
2013-06-12 11:38:00,91.4,75.1,29.68,West,265,6.0,6.0,59,0.00,,BKN030,0.00,VWS V14.01,2013-06-12 15:38:00,
2013-06-12 11:39:00,91.6,74.7,29.68,WNW,285,5.0,6.0,58,0.00,,BKN030,0.00,VWS V14.01,2013-06-12 15:39:00,
2013-06-12 11:40:00,91.6,74.2,29.68,NW,304,4.0,5.0,57,0.00,,SCT200,0.00,VWS V14.01,2013-06-12 15:40:00,
2013-06-12 11:41:00,91.4,74.0,29.68,West,271,2.0,7.0,57,0.00,,BKN030,0.00,VWS V14.01,2013-06-12 15:41:00,
2013-06-12 11:42:00,91.6,75.2,29.68,SW,219,5.0,5.0,59,0.00,,BKN030,0.00,VWS V14.01,2013-06-12 15:42:00,
2013-06-12 11:43:00,91.6,74.7,29.68,WSW,240,4.0,7.0,58,0.00,,BKN030,0.00,VWS V14.01,2013-06-12 15:43:00,
2013-06-12 11:44:00,91.6,74.7,29.68,WSW,253,6.0,6.0,58,0.00,,BKN030,0.00,VWS V14.01,2013-06-12 15:44:00,
2013-06-12 11:45:00,91.8,74.9,29.68,WSW,244,6.0,6.0,58,0.00,,SCT200,0.00,VWS V14.01,2013-06-12 15:45:00,
2013-06-12 11:46:00,91.8,74.4,29.68,NNW,344,3.0,6.0,57,0.00,,BKN030,0.00,VWS V14.01,2013-06-12 15:46:00,
2013-06-12 11:47:00,91.6,75.2,29.72,SSW,208,1.0,3.0,59,0.00,,BKN030,0.00,VWS V14.01,2013-06-12 15:47:00,
2013-06-12 11:48:00,91.8,75.4,29.72,NNW,335,5.0,9.0,59,0.00,,BKN030,0.00,VWS V14.01,2013-06-12 15:48:00,
2013-06-12 11:49:00,91.8,75.4,29.72,WSW,251,4.0,5.0,59,0.00,,BKN030,0.00,VWS V14.01,2013-06-12 15:49:00,
2013-06-12 11:50:00,92.1,74.7,29.72,NNE,19,1.0,3.0,57,0.00,,SCT200,0.00,VWS V14.01,2013-06-12 15:50:00,
2013-06-12 11:51:00,92.1,75.2,29.72,SW,232,5.0,5.0,58,0.00,,BKN030,0.00,VWS V14.01,2013-06-12 15:51:00,
2013-06-12 11:52:00,92.1,74.2,29.72,WSW,237,2.0,5.0,56,0.00,,BKN030,0.00,VWS V14.01,2013-06-12 15:52:00,
2013-06-12 11:53:00,92.1,74.2,29.72,West,262,11.0,11.0,56,0.00,,BKN030,0.00,VWS V14.01,2013-06-12 15:53:00,
2013-06-12 11:54:00,92.1,74.7,29.92,WNW,288,4.0,11.0,57,0.00,,BKN030,0.00,VWS V14.01,2013-06-12 15:54:00,
2013-06-12 11:55:00,92.1,75.2,29.84,SW,234,3.0,4.0,58,0.00,,SCT200,0.00,VWS V14.01,2013-06-12 15:55:00,
2013-06-12 11:56:00,92.1,75.2,29.84,SW,232,12.0,12.0,58,0.00,,BKN030,0.00,VWS V14.01,2013-06-12 15:56:00,
2013-06-12 11:57:00,92.1,75.2,29.84,West,265,3.0,12.0,58,0.00,,BKN030,0.00,VWS V14.01,2013-06-12 15:57:00,
2013-06-12 11:58:00,92.1,75.2,29.94,NW,305,4.0,6.0,58,0.00,,BKN030,0.00,VWS V14.01,2013-06-12 15:58:00,
2013-06-12 11:59:00,92.1,75.2,29.94,NNW,333,3.0,4.0,58,0.00,,BKN030,0.00,VWS V14.01,2013-06-12 15:59:00,
2013-06-12 12:00:00,91.8,74.4,29.86,SW,233,3.0,6.0,57,0.00,,SCT200,0.00,VWS V14.01,2013-06-12 16:00:00,
2013-06-12 12:01:00,92.1,74.7,29.86,West,263,9.0,9.0,57,0.00,,BKN030,0.00,VWS V14.01,2013-06-12 16:01:00,
2013-06-12 12:02:00,91.8,73.9,29.86,WNW,293,3.0,9.0,56,0.00,,BKN030,0.00,VWS V14.01,2013-06-12 16:02:00,
2013-06-12 12:03:00,91.8,74.4,29.77,West,265,5.0,5.0,57,0.00,,BKN030,0.00,VWS V14.01,2013-06-12 16:03:00,
2013-06-12 12:04:00,91.8,74.4,29.77,WSW,239,5.0,5.0,57,0.00,,BKN030,0.00,VWS V14.01,2013-06-12 16:04:00,
2013-06-12 12:05:00,92.1,75.2,29.77,WNW,297,6.0,8.0,58,0.00,,SCT200,0.00,VWS V14.01,2013-06-12 16:05:00,
2013-06-12 12:06:00,92.1,75.2,29.77,WNW,290,3.0,8.0,58,0.00,,BKN030,0.00,VWS V14.01,2013-06-12 16:06:00,
2013-06-12 12:07:00,91.8,73.9,29.72,West,264,6.0,6.0,56,0.00,,BKN030,0.00,VWS V14.01,2013-06-12 16:07:00,
2013-06-12 12:08:00,91.8,74.4,29.73,NNW,339,5.0,6.0,57,0.00,,BKN030,0.00,VWS V14.01,2013-06-12 16:08:00,
2013-06-12 12:09:00,91.8,74.4,29.73,West,260,5.0,5.0,57,0.00,,BKN030,0.00,VWS V14.01,2013-06-12 16:09:00,
2013-06-12 12:10:00,91.8,74.9,29.73,SW,228,9.0,9.0,58,0.00,,SCT200,0.00,VWS V14.01,2013-06-12 16:10:00,
2013-06-12 12:11:00,91.8,74.9,29.73,NNW,329,3.0,9.0,58,0.00,,BKN030,0.00,VWS V14.01,2013-06-12 16:11:00,
2013-06-12 12:12:00,91.8,73.9,29.73,WNW,302,6.0,8.0,56,0.00,,BKN030,0.00,VWS V14.01,2013-06-12 16:12:00,
2013-06-12 12:13:00,91.8,74.4,29.73,SW,225,5.0,6.0,57,0.00,,BKN030,0.00,VWS V14.01,2013-06-12 16:13:00,
2013-06-12 12:14:00,91.8,74.4,29.73,WSW,245,7.0,7.0,57,0.00,,BKN030,0.00,VWS V14.01,2013-06-12 16:14:00,
2013-06-12 12:15:00,91.8,74.4,29.73,WSW,248,4.0,9.0,57,0.00,,SCT200,0.00,VWS V14.01,2013-06-12 16:15:00,
2013-06-12 12:16:00,91.8,74.4,29.73,WNW,303,3.0,9.0,57,0.00,,BKN030,0.00,VWS V14.01,2013-06-12 16:16:00,
2013-06-12 12:17:00,91.8,74.4,29.73,West,269,6.0,6.0,57,0.00,,BKN030,0.00,VWS V14.01,2013-06-12 16:17:00,
2013-06-12 12:18:00,91.8,74.9,29.73,WSW,240,6.0,9.0,58,0.00,,BKN030,0.00,VWS V14.01,2013-06-12 16:18:00,
2013-06-12 12:19:00,91.8,73.9,29.88,SW,215,3.0,6.0,56,0.00,,BKN030,0.00,VWS V14.01,2013-06-12 16:19:00,
2013-06-12 12:20:00,91.8,74.9,29.88,NW,319,3.0,6.0,58,0.00,,SCT200,0.00,VWS V14.01,2013-06-12 16:20:00,
2013-06-12 12:21:00,91.8,74.9,29.88,North,11,6.0,6.0,58,0.00,,BKN030,0.00,VWS V14.01,2013-06-12 16:21:00,
2013-06-12 12:22:00,91.8,74.9,29.88,NW,321,2.0,6.0,58,0.00,,BKN030,0.00,VWS V14.01,2013-06-12 16:22:00,
2013-06-12 12:23:00,91.8,74.9,29.88,WSW,246,5.0,5.0,58,0.00,,BKN030,0.00,VWS V14.01,2013-06-12 16:23:00,
2013-06-12 12:24:00,91.8,74.9,29.88,West,259,2.0,5.0,58,0.00,,BKN030,0.00,VWS V14.01,2013-06-12 16:24:00,
2013-06-12 12:25:00,92.1,74.7,29.88,WNW,302,5.0,5.0,57,0.00,,SCT200,0.00,VWS V14.01,2013-06-12 16:25:00,
2013-06-12 12:26:00,92.1,74.7,29.88,West,261,8.0,8.0,57,0.00,,BKN030,0.00,VWS V14.01,2013-06-12 16:26:00,
2013-06-12 12:27:00,92.1,75.2,29.88,SW,235,7.0,8.0,58,0.00,,BKN030,0.00,VWS V14.01,2013-06-12 16:27:00,
2013-06-12 12:28:00,92.1,74.7,29.88,WSW,248,5.0,7.0,57,0.00,,BKN030,0.00,VWS V14.01,2013-06-12 16:28:00,
2013-06-12 12:29:00,92.1,74.2,29.88,SW,218,3.0,6.0,56,0.00,,BKN030,0.00,VWS V14.01,2013-06-12 16:29:00,
2013-06-12 12:30:00,92.1,74.2,29.88,WSW,257,2.0,4.0,56,0.00,,SCT200,0.00,VWS V14.01,2013-06-12 16:30:00,
2013-06-12 12:31:00,92.1,74.7,29.88,WNW,292,2.0,4.0,57,0.00,,BKN030,0.00,VWS V14.01,2013-06-12 16:31:00,
2013-06-12 12:32:00,92.1,74.7,29.88,South,188,5.0,5.0,57,0.00,,BKN030,0.00,VWS V14.01,2013-06-12 16:32:00,
2013-06-12 12:33:00,92.1,74.2,29.88,WSW,257,7.0,7.0,56,0.00,,BKN030,0.00,VWS V14.01,2013-06-12 16:33:00,
2013-06-12 12:34:00,92.3,74.3,29.88,West,261,10.0,10.0,56,0.00,,BKN030,0.00,VWS V14.01,2013-06-12 16:34:00,
2013-06-12 12:35:00,92.3,74.3,29.91,West,274,4.0,6.0,56,0.00,,SCT200,0.00,VWS V14.01,2013-06-12 16:35:00,
2013-06-12 12:36:00,92.3,74.9,29.91,WSW,246,4.0,6.0,57,0.00,,BKN030,0.00,VWS V14.01,2013-06-12 16:36:00,
2013-06-12 12:37:00,92.3,74.3,29.91,WSW,242,6.0,9.0,56,0.00,,BKN030,0.00,VWS V14.01,2013-06-12 16:37:00,
2013-06-12 12:38:00,92.3,74.3,29.98,West,259,1.0,6.0,56,0.00,,BKN030,0.00,VWS V14.01,2013-06-12 16:38:00,
2013-06-12 12:39:00,92.3,74.3,29.98,SW,225,6.0,10.0,56,0.00,,BKN030,0.00,VWS V14.01,2013-06-12 16:39:00,
2013-06-12 12:40:00,91.8,77.9,29.98,SW,234,4.0,7.0,64,0.00,,SCT200,0.00,VWS V14.01,2013-06-12 16:40:00,
2013-06-12 12:41:00,91.8,78.4,29.98,SW,221,6.0,7.0,65,0.00,,BKN030,0.00,VWS V14.01,2013-06-12 16:41:00,
2013-06-12 12:42:00,91.4,78.9,29.98,South,178,9.0,12.0,67,0.00,,BKN030,0.00,VWS V14.01,2013-06-12 16:42:00,
2013-06-12 12:43:00,91.0,79.9,29.98,South,177,12.0,12.0,70,0.00,,BKN030,0.00,VWS V14.01,2013-06-12 16:43:00,
2013-06-12 12:44:00,90.5,80.2,29.98,SE,138,9.0,12.0,72,0.00,,BKN030,0.00,VWS V14.01,2013-06-12 16:44:00,
2013-06-12 12:45:00,90.1,80.3,29.89,South,173,13.0,13.0,73,0.00,,CLR,0.00,VWS V14.01,2013-06-12 16:45:00,
2013-06-12 12:46:00,89.9,80.5,29.89,South,172,7.0,13.0,74,0.00,,BKN030,0.00,VWS V14.01,2013-06-12 16:46:00,
2013-06-12 12:47:00,89.7,80.7,29.89,SSE,161,11.0,11.0,75,0.00,,BKN030,0.00,VWS V14.01,2013-06-12 16:47:00,
2013-06-12 12:48:00,89.5,80.9,29.89,SSE,168,9.0,12.0,76,0.00,,BKN030,0.00,VWS V14.01,2013-06-12 16:48:00,
2013-06-12 12:49:00,89.3,80.7,29.89,SSE,168,12.0,14.0,76,0.00,,BKN030,0.00,VWS V14.01,2013-06-12 16:49:00,
2013-06-12 12:50:00,88.6,80.1,29.89,SSE,167,14.0,15.0,76,0.00,,CLR,0.00,VWS V14.01,2013-06-12 16:50:00,
2013-06-12 12:51:00,88.6,80.1,29.89,South,178,11.0,15.0,76,0.00,,BKN030,0.00,VWS V14.01,2013-06-12 16:51:00,
2013-06-12 12:52:00,88.2,80.1,29.89,South,175,12.0,13.0,77,0.00,,BKN030,0.00,VWS V14.01,2013-06-12 16:52:00,
2013-06-12 12:53:00,88.0,79.9,29.89,South,171,11.0,13.0,77,0.00,,BKN030,0.00,VWS V14.01,2013-06-12 16:53:00,
2013-06-12 12:54:00,88.0,80.3,29.89,SSE,166,7.0,13.0,78,0.00,,BKN030,0.00,VWS V14.01,2013-06-12 16:54:00,
2013-06-12 12:55:00,87.8,80.5,29.93,South,191,8.0,11.0,79,0.00,,CLR,0.00,VWS V14.01,2013-06-12 16:55:00,
2013-06-12 12:56:00,87.8,80.5,29.93,South,171,7.0,12.0,79,0.00,,BKN030,0.00,VWS V14.01,2013-06-12 16:56:00,
2013-06-12 12:57:00,87.6,79.9,29.98,SSE,165,10.0,11.0,78,0.00,,BKN030,0.00,VWS V14.01,2013-06-12 16:57:00,
2013-06-12 12:58:00,87.6,79.9,29.98,South,171,13.0,13.0,78,0.00,,BKN030,0.00,VWS V14.01,2013-06-12 16:58:00,
2013-06-12 12:59:00,87.4,79.7,29.98,SSE,167,10.0,14.0,78,0.00,,BKN030,0.00,VWS V14.01,2013-06-12 16:59:00,
2013-06-12 13:00:00,87.4,80.1,29.98,SSW,195,9.0,11.0,79,0.00,,CLR,0.00,VWS V14.01,2013-06-12 17:00:00,
2013-06-12 13:01:00,87.4,80.1,29.98,South,188,14.0,14.0,79,0.00,,BKN030,0.00,VWS V14.01,2013-06-12 17:01:00,
2013-06-12 13:02:00,87.2,79.5,29.98,South,182,11.0,15.0,78,0.00,,BKN030,0.00,VWS V14.01,2013-06-12 17:02:00,
2013-06-12 13:03:00,87.2,79.9,29.98,South,189,14.0,14.0,79,0.00,,BKN030,0.00,VWS V14.01,2013-06-12 17:03:00,
2013-06-12 13:04:00,87.0,79.3,29.97,South,181,11.0,14.0,78,0.00,,BKN030,0.00,VWS V14.01,2013-06-12 17:04:00,
2013-06-12 13:05:00,86.7,79.8,29.97,South,176,11.0,13.0,80,0.00,,CLR,0.00,VWS V14.01,2013-06-12 17:05:00,
2013-06-12 13:06:00,86.7,79.8,29.97,South,175,13.0,13.0,80,0.00,,BKN030,0.00,VWS V14.01,2013-06-12 17:06:00,
2013-06-12 13:07:00,86.7,79.8,29.97,South,188,11.0,16.0,80,0.00,,BKN030,0.00,VWS V14.01,2013-06-12 17:07:00,
2013-06-12 13:08:00,86.5,79.6,29.97,SSW,194,15.0,15.0,80,0.00,,BKN030,0.00,VWS V14.01,2013-06-12 17:08:00,
2013-06-12 13:09:00,86.3,79.4,29.97,South,190,14.0,15.0,80,0.00,,BKN030,0.00,VWS V14.01,2013-06-12 17:09:00,
2013-06-12 13:10:00,85.9,79.0,29.98,SSW,195,12.0,13.0,80,0.00,,CLR,0.00,VWS V14.01,2013-06-12 17:10:00,
2013-06-12 13:11:00,85.9,79.0,29.98,South,180,12.0,14.0,80,0.00,,BKN030,0.00,VWS V14.01,2013-06-12 17:11:00,
2013-06-12 13:12:00,85.7,79.2,29.97,South,177,13.0,13.0,81,0.00,,BKN030,0.00,VWS V14.01,2013-06-12 17:12:00,
2013-06-12 13:13:00,85.7,79.6,29.98,South,188,9.0,13.0,82,0.00,,BKN030,0.00,VWS V14.01,2013-06-12 17:13:00,
2013-06-12 13:14:00,85.7,79.2,29.97,South,180,10.0,13.0,81,0.00,,BKN030,0.00,VWS V14.01,2013-06-12 17:14:00,
2013-06-12 13:15:00,85.9,79.8,29.97,South,173,9.0,11.0,82,0.00,,CLR,0.00,VWS V14.01,2013-06-12 17:15:00,
2013-06-12 13:16:00,85.9,79.4,29.97,South,175,13.0,13.0,81,0.00,,BKN030,0.00,VWS V14.01,2013-06-12 17:16:00,
2013-06-12 13:17:00,85.9,79.0,29.97,South,182,13.0,15.0,80,0.00,,BKN030,0.00,VWS V14.01,2013-06-12 17:17:00,
2013-06-12 13:18:00,85.7,79.2,29.97,SSW,198,9.0,13.0,81,0.00,,BKN030,0.00,VWS V14.01,2013-06-12 17:18:00,
2013-06-12 13:19:00,85.7,79.2,29.97,South,186,13.0,13.0,81,0.00,,BKN030,0.00,VWS V14.01,2013-06-12 17:19:00,
2013-06-12 13:20:00,85.7,79.6,29.97,SSW,198,10.0,11.0,82,0.00,,CLR,0.00,VWS V14.01,2013-06-12 17:20:00,
2013-06-12 13:21:00,85.7,79.6,29.97,SSW,196,11.0,11.0,82,0.00,,BKN030,0.00,VWS V14.01,2013-06-12 17:21:00,
2013-06-12 13:22:00,85.7,79.6,29.97,South,185,10.0,12.0,82,0.00,,BKN030,0.00,VWS V14.01,2013-06-12 17:22:00,
2013-06-12 13:23:00,85.7,79.6,29.97,SSW,192,9.0,10.0,82,0.00,,BKN030,0.00,VWS V14.01,2013-06-12 17:23:00,
2013-06-12 13:24:00,85.7,79.6,29.97,SSW,203,11.0,12.0,82,0.00,,BKN030,0.00,VWS V14.01,2013-06-12 17:24:00,
2013-06-12 13:25:00,85.7,79.6,29.97,SSW,196,7.0,10.0,82,0.00,,CLR,0.00,VWS V14.01,2013-06-12 17:25:00,
2013-06-12 13:26:00,85.7,79.9,29.97,South,188,11.0,11.0,83,0.00,,BKN030,0.00,VWS V14.01,2013-06-12 17:26:00,
2013-06-12 13:27:00,85.7,79.9,29.97,SSW,210,7.0,11.0,83,0.00,,BKN030,0.00,VWS V14.01,2013-06-12 17:27:00,
2013-06-12 13:28:00,85.7,79.9,29.97,SSW,198,9.0,9.0,83,0.00,,BKN030,0.00,VWS V14.01,2013-06-12 17:28:00,
2013-06-12 13:29:00,85.7,79.6,29.97,SW,215,8.0,10.0,82,0.00,,BKN030,0.00,VWS V14.01,2013-06-12 17:29:00,
2013-06-12 13:30:00,85.7,79.9,29.97,SSW,208,10.0,10.0,83,0.00,,CLR,0.00,VWS V14.01,2013-06-12 17:30:00,
2013-06-12 13:31:00,85.7,79.9,29.97,SSW,200,10.0,11.0,83,0.00,,BKN030,0.00,VWS V14.01,2013-06-12 17:31:00,
2013-06-12 13:32:00,85.7,79.6,29.97,SSW,200,8.0,10.0,82,0.00,,BKN030,0.00,VWS V14.01,2013-06-12 17:32:00,
2013-06-12 13:33:00,85.7,79.6,29.97,SSW,200,11.0,11.0,82,0.00,,BKN030,0.00,VWS V14.01,2013-06-12 17:33:00,
2013-06-12 13:34:00,85.7,79.9,29.93,SSW,210,8.0,11.0,83,0.00,,BKN030,0.00,VWS V14.01,2013-06-12 17:34:00,
2013-06-12 13:35:00,85.7,79.9,29.93,SSW,209,11.0,11.0,83,0.00,,CLR,0.00,VWS V14.01,2013-06-12 17:35:00,
2013-06-12 13:36:00,85.7,79.9,29.93,SSW,197,6.0,11.0,83,0.00,,BKN030,0.00,VWS V14.01,2013-06-12 17:36:00,
2013-06-12 13:37:00,85.7,79.9,29.93,SSW,202,10.0,11.0,83,0.00,,BKN030,0.00,VWS V14.01,2013-06-12 17:37:00,
2013-06-12 13:38:00,85.7,79.6,29.93,SSW,196,7.0,11.0,82,0.00,,BKN030,0.00,VWS V14.01,2013-06-12 17:38:00,
2013-06-12 13:39:00,85.7,79.6,29.93,SSW,193,6.0,11.0,82,0.00,,BKN030,0.00,VWS V14.01,2013-06-12 17:39:00,
2013-06-12 13:40:00,85.7,79.2,29.96,SSW,207,7.0,10.0,81,0.00,,CLR,0.00,VWS V14.01,2013-06-12 17:40:00,
2013-06-12 13:41:00,85.7,79.2,29.96,SSW,203,6.0,10.0,81,0.00,,BKN030,0.00,VWS V14.01,2013-06-12 17:41:00,
2013-06-12 13:42:00,85.7,79.6,29.97,SSW,205,7.0,10.0,82,0.00,,BKN030,0.00,VWS V14.01,2013-06-12 17:42:00,
2013-06-12 13:43:00,85.9,79.8,29.98,SSW,207,10.0,10.0,82,0.00,,BKN030,0.00,VWS V14.01,2013-06-12 17:43:00,
2013-06-12 13:44:00,85.9,79.8,29.98,South,187,7.0,10.0,82,0.00,,BKN030,0.00,VWS V14.01,2013-06-12 17:44:00,
2013-06-12 13:45:00,86.1,80.0,29.98,SSW,209,9.0,10.0,82,0.00,,SCT200,0.00,VWS V14.01,2013-06-12 17:45:00,
2013-06-12 13:46:00,86.1,80.0,29.98,SSW,200,9.0,10.0,82,0.00,,BKN030,0.00,VWS V14.01,2013-06-12 17:46:00,
2013-06-12 13:47:00,86.1,79.6,29.98,South,189,10.0,10.0,81,0.00,,BKN030,0.00,VWS V14.01,2013-06-12 17:47:00,
2013-06-12 13:48:00,86.1,79.6,29.98,SSW,195,11.0,11.0,81,0.00,,BKN030,0.00,VWS V14.01,2013-06-12 17:48:00,
2013-06-12 13:49:00,86.3,80.2,29.98,South,173,11.0,12.0,82,0.00,,BKN030,0.00,VWS V14.01,2013-06-12 17:49:00,
2013-06-12 13:50:00,86.1,79.6,29.98,South,181,12.0,12.0,81,0.00,,SCT200,0.00,VWS V14.01,2013-06-12 17:50:00,
2013-06-12 13:53:00,86.1,79.6,29.97,South,184,11.0,13.0,81,0.00,,BKN030,0.00,VWS V14.01,2013-06-12 17:53:00,
2013-06-12 13:54:00,86.3,80.2,29.98,South,185,13.0,13.0,82,0.00,,BKN030,0.00,VWS V14.01,2013-06-12 17:54:00,
2013-06-12 13:55:00,86.1,79.6,29.97,SSE,159,7.0,11.0,81,0.00,,SCT200,0.00,VWS V14.01,2013-06-12 17:55:00,
2013-06-12 13:56:00,86.3,80.9,29.97,South,169,9.0,11.0,84,0.00,,BKN030,0.00,VWS V14.01,2013-06-12 17:56:00,
2013-06-12 13:57:00,86.5,81.1,29.97,South,180,13.0,13.0,84,0.00,,BKN030,0.00,VWS V14.01,2013-06-12 17:57:00,
2013-06-12 13:58:00,86.5,81.1,29.93,South,189,12.0,13.0,84,0.00,,BKN030,0.00,VWS V14.01,2013-06-12 17:58:00,
2013-06-12 13:59:00,86.5,80.3,29.93,South,172,12.0,14.0,82,0.00,,BKN030,0.00,VWS V14.01,2013-06-12 17:59:00,
2013-06-12 14:00:00,86.5,81.1,29.93,SSE,166,11.0,11.0,84,0.00,,SCT200,0.00,VWS V14.01,2013-06-12 18:00:00,
2013-06-12 14:01:00,86.5,81.1,29.93,South,180,14.0,15.0,84,0.00,,BKN030,0.00,VWS V14.01,2013-06-12 18:01:00,
2013-06-12 14:02:00,86.5,80.3,29.93,South,169,9.0,14.0,82,0.00,,BKN030,0.00,VWS V14.01,2013-06-12 18:02:00,
2013-06-12 14:03:00,86.5,80.3,29.93,South,178,13.0,15.0,82,0.00,,BKN030,0.00,VWS V14.01,2013-06-12 18:03:00,
2013-06-12 14:04:00,86.5,80.7,29.93,South,173,12.0,13.0,83,0.00,,BKN030,0.00,VWS V14.01,2013-06-12 18:04:00,
2013-06-12 14:05:00,86.5,80.7,29.80,South,172,11.0,12.0,83,0.00,,SCT200,0.00,VWS V14.01,2013-06-12 18:05:00,
2013-06-12 14:06:00,86.7,80.6,29.80,South,181,10.0,12.0,82,0.00,,BKN030,0.00,VWS V14.01,2013-06-12 18:06:00,
2013-06-12 14:07:00,86.7,80.9,29.80,South,188,11.0,11.0,83,0.00,,BKN030,0.00,VWS V14.01,2013-06-12 18:07:00,
2013-06-12 14:08:00,86.7,80.6,29.80,South,182,15.0,15.0,82,0.00,,BKN030,0.00,VWS V14.01,2013-06-12 18:08:00,
2013-06-12 14:09:00,86.5,80.0,29.80,South,186,11.0,15.0,81,0.00,,BKN030,0.00,VWS V14.01,2013-06-12 18:09:00,
2013-06-12 14:10:00,86.3,80.2,29.80,South,180,13.0,14.0,82,0.00,,SCT200,0.00,VWS V14.01,2013-06-12 18:10:00,
2013-06-12 14:11:00,86.3,80.2,29.80,South,184,9.0,14.0,82,0.00,,BKN030,0.00,VWS V14.01,2013-06-12 18:11:00,
2013-06-12 14:12:00,86.3,80.5,29.80,South,171,12.0,12.0,83,0.00,,BKN030,0.00,VWS V14.01,2013-06-12 18:12:00,
2013-06-12 14:13:00,86.5,80.7,29.80,South,180,9.0,12.0,83,0.00,,BKN030,0.00,VWS V14.01,2013-06-12 18:13:00,
2013-06-12 14:14:00,86.5,81.1,29.80,South,170,12.0,13.0,84,0.00,,BKN030,0.00,VWS V14.01,2013-06-12 18:14:00,
2013-06-12 14:15:00,86.5,80.7,29.80,South,180,12.0,13.0,83,0.00,,SCT200,0.00,VWS V14.01,2013-06-12 18:15:00,
2013-06-12 14:16:00,86.5,80.7,29.80,SSW,192,7.0,13.0,83,0.00,,BKN030,0.00,VWS V14.01,2013-06-12 18:16:00,
2013-06-12 14:17:00,86.7,81.3,29.97,South,169,10.0,11.0,84,0.00,,BKN030,0.00,VWS V14.01,2013-06-12 18:17:00,
2013-06-12 14:18:00,86.7,80.9,29.97,South,176,9.0,11.0,83,0.00,,BKN030,0.00,VWS V14.01,2013-06-12 18:18:00,
2013-06-12 14:19:00,86.7,80.9,29.97,SSE,165,8.0,14.0,83,0.00,,BKN030,0.00,VWS V14.01,2013-06-12 18:19:00,
2013-06-12 14:20:00,87.0,81.2,29.97,South,184,14.0,14.0,83,0.00,,SCT200,0.00,VWS V14.01,2013-06-12 18:20:00,
2013-06-12 14:21:00,87.0,81.2,29.97,South,169,12.0,14.0,83,0.00,,BKN030,0.00,VWS V14.01,2013-06-12 18:21:00,
2013-06-12 14:22:00,86.7,80.9,29.97,South,182,15.0,15.0,83,0.00,,BKN030,0.00,VWS V14.01,2013-06-12 18:22:00,
2013-06-12 14:23:00,86.7,80.9,29.97,South,181,15.0,16.0,83,0.00,,BKN030,0.00,VWS V14.01,2013-06-12 18:23:00,
2013-06-12 14:24:00,86.7,80.6,29.97,SSE,165,11.0,15.0,82,0.00,,BKN030,0.00,VWS V14.01,2013-06-12 18:24:00,
2013-06-12 14:25:00,86.7,80.9,29.97,South,191,9.0,11.0,83,0.00,,SCT200,0.00,VWS V14.01,2013-06-12 18:25:00,
2013-06-12 14:26:00,86.7,80.9,29.97,SSE,158,10.0,11.0,83,0.00,,BKN030,0.00,VWS V14.01,2013-06-12 18:26:00,
2013-06-12 14:27:00,86.7,80.9,29.97,South,170,15.0,16.0,83,0.00,,BKN030,0.00,VWS V14.01,2013-06-12 18:27:00,
2013-06-12 14:28:00,86.7,80.2,29.97,South,184,9.0,15.0,81,0.00,,BKN030,0.00,VWS V14.01,2013-06-12 18:28:00,
2013-06-12 14:29:00,86.7,80.6,29.97,SSE,163,10.0,12.0,82,0.00,,BKN030,0.00,VWS V14.01,2013-06-12 18:29:00,
2013-06-12 14:30:00,87.0,81.2,29.97,SSE,155,11.0,12.0,83,0.00,,SCT200,0.00,VWS V14.01,2013-06-12 18:30:00,
2013-06-12 14:31:00,87.0,81.2,29.97,SSE,167,14.0,14.0,83,0.00,,BKN030,0.00,VWS V14.01,2013-06-12 18:31:00,
2013-06-12 14:32:00,87.0,80.8,29.97,South,182,13.0,14.0,82,0.00,,BKN030,0.00,VWS V14.01,2013-06-12 18:32:00,
2013-06-12 14:33:00,87.0,80.8,29.96,South,175,13.0,13.0,82,0.00,,BKN030,0.00,VWS V14.01,2013-06-12 18:33:00,
2013-06-12 14:34:00,86.7,80.9,29.96,South,181,14.0,16.0,83,0.00,,BKN030,0.00,VWS V14.01,2013-06-12 18:34:00,
2013-06-12 14:35:00,86.5,80.7,29.96,South,180,16.0,17.0,83,0.00,,SCT200,0.00,VWS V14.01,2013-06-12 18:35:00,
2013-06-12 14:36:00,86.5,80.7,29.96,SSW,198,15.0,17.0,83,0.00,,BKN030,0.00,VWS V14.01,2013-06-12 18:36:00,
2013-06-12 14:37:00,86.3,80.5,29.96,South,185,16.0,16.0,83,0.00,,BKN030,0.00,VWS V14.01,2013-06-12 18:37:00,
2013-06-12 14:38:00,86.1,80.3,29.96,South,169,13.0,16.0,83,0.00,,BKN030,0.00,VWS V14.01,2013-06-12 18:38:00,
2013-06-12 14:39:00,86.3,81.3,29.96,SSE,167,11.0,15.0,85,0.00,,BKN030,0.00,VWS V14.01,2013-06-12 18:39:00,
2013-06-12 14:40:00,86.1,80.7,29.96,SSW,202,14.0,14.0,84,0.00,,SCT200,0.00,VWS V14.01,2013-06-12 18:40:00,
2013-06-12 14:41:00,86.1,80.7,29.96,South,177,11.0,14.0,84,0.00,,BKN030,0.00,VWS V14.01,2013-06-12 18:41:00,
2013-06-12 14:42:00,86.1,81.1,29.96,South,184,11.0,15.0,85,0.00,,BKN030,0.00,VWS V14.01,2013-06-12 18:42:00,
2013-06-12 14:43:00,86.1,81.1,29.96,South,180,11.0,11.0,85,0.00,,BKN030,0.00,VWS V14.01,2013-06-12 18:43:00,
2013-06-12 14:44:00,86.3,81.6,29.96,South,180,13.0,13.0,86,0.00,,BKN030,0.00,VWS V14.01,2013-06-12 18:44:00,
2013-06-12 14:45:00,86.1,80.7,29.96,South,169,11.0,11.0,84,0.00,,SCT200,0.00,VWS V14.01,2013-06-12 18:45:00,
2013-06-12 14:46:00,86.1,80.7,29.96,South,175,12.0,15.0,84,0.00,,BKN030,0.00,VWS V14.01,2013-06-12 18:46:00,
2013-06-12 14:47:00,86.1,80.7,29.96,South,180,11.0,13.0,84,0.00,,BKN030,0.00,VWS V14.01,2013-06-12 18:47:00,
2013-06-12 14:48:00,86.1,81.1,29.96,South,184,14.0,14.0,85,0.00,,BKN030,0.00,VWS V14.01,2013-06-12 18:48:00,
2013-06-12 14:49:00,85.9,80.5,29.96,SSE,167,13.0,15.0,84,0.00,,BKN030,0.00,VWS V14.01,2013-06-12 18:49:00,
2013-06-12 14:50:00,85.9,80.5,29.96,South,175,10.0,16.0,84,0.00,,SCT200,0.00,VWS V14.01,2013-06-12 18:50:00,
2013-06-12 14:51:00,85.7,80.7,29.96,South,189,14.0,16.0,85,0.00,,BKN030,0.00,VWS V14.01,2013-06-12 18:51:00,
2013-06-12 14:52:00,85.7,80.3,29.96,South,184,15.0,15.0,84,0.00,,BKN030,0.00,VWS V14.01,2013-06-12 18:52:00,
2013-06-12 14:53:00,85.5,80.5,29.96,South,175,10.0,15.0,85,0.00,,BKN030,0.00,VWS V14.01,2013-06-12 18:53:00,
2013-06-12 14:54:00,85.7,81.0,29.96,SSE,155,6.0,11.0,86,0.00,,BKN030,0.00,VWS V14.01,2013-06-12 18:54:00,
2013-06-12 14:55:00,85.9,81.6,29.96,SSE,168,10.0,10.0,87,0.00,,SCT200,0.00,VWS V14.01,2013-06-12 18:55:00,
2013-06-12 14:56:00,85.9,81.2,29.96,South,171,10.0,10.0,86,0.00,,BKN030,0.00,VWS V14.01,2013-06-12 18:56:00,
2013-06-12 14:57:00,85.9,80.9,29.96,South,173,9.0,13.0,85,0.00,,BKN030,0.00,VWS V14.01,2013-06-12 18:57:00,
2013-06-12 14:58:00,86.1,81.4,29.96,South,172,11.0,14.0,86,0.00,,BKN030,0.00,VWS V14.01,2013-06-12 18:58:00,
2013-06-12 14:59:00,86.1,81.1,29.96,South,180,14.0,14.0,85,0.00,,BKN030,0.00,VWS V14.01,2013-06-12 18:59:00,
2013-06-12 15:00:00,85.9,80.9,29.96,South,190,12.0,13.0,85,0.00,,SCT200,0.00,VWS V14.01,2013-06-12 19:00:00,
2013-06-12 15:01:00,85.9,80.9,29.96,South,172,7.0,13.0,85,0.00,,BKN030,0.00,VWS V14.01,2013-06-12 19:01:00,
2013-06-12 15:02:00,85.9,81.2,29.96,South,169,15.0,15.0,86,0.00,,BKN030,0.00,VWS V14.01,2013-06-12 19:02:00,
2013-06-12 15:03:00,85.9,80.9,29.96,South,179,12.0,15.0,85,0.00,,BKN030,0.00,VWS V14.01,2013-06-12 19:03:00,
2013-06-12 15:04:00,86.1,81.4,29.96,South,173,8.0,12.0,86,0.00,,BKN030,0.00,VWS V14.01,2013-06-12 19:04:00,
2013-06-12 15:05:00,86.1,81.1,29.96,South,181,14.0,14.0,85,0.00,,SCT200,0.00,VWS V14.01,2013-06-12 19:05:00,
2013-06-12 15:06:00,85.9,80.9,29.96,South,172,10.0,14.0,85,0.00,,BKN030,0.00,VWS V14.01,2013-06-12 19:06:00,
2013-06-12 15:07:00,86.1,81.4,29.96,SSE,161,10.0,11.0,86,0.00,,BKN030,0.00,VWS V14.01,2013-06-12 19:07:00,
2013-06-12 15:08:00,86.1,81.4,29.96,South,172,11.0,11.0,86,0.00,,BKN030,0.00,VWS V14.01,2013-06-12 19:08:00,
2013-06-12 15:09:00,86.1,81.4,29.96,SSE,167,10.0,12.0,86,0.00,,BKN030,0.00,VWS V14.01,2013-06-12 19:09:00,
2013-06-12 15:10:00,86.3,81.6,29.96,SSW,197,6.0,8.0,86,0.00,,SCT200,0.00,VWS V14.01,2013-06-12 19:10:00,
2013-06-12 15:11:00,86.5,81.8,29.96,SSE,165,5.0,8.0,86,0.00,,BKN030,0.00,VWS V14.01,2013-06-12 19:11:00,
2013-06-12 15:12:00,86.5,81.8,29.96,SSE,167,9.0,9.0,86,0.00,,BKN030,0.00,VWS V14.01,2013-06-12 19:12:00,
2013-06-12 15:13:00,86.5,81.8,29.96,South,178,11.0,11.0,86,0.00,,BKN030,0.00,VWS V14.01,2013-06-12 19:13:00,
2013-06-12 15:14:00,86.5,81.5,29.96,South,174,11.0,11.0,85,0.00,,BKN030,0.00,VWS V14.01,2013-06-12 19:14:00,
2013-06-12 15:15:00,86.5,81.5,29.96,South,183,13.0,13.0,85,0.00,,SCT200,0.00,VWS V14.01,2013-06-12 19:15:00,
2013-06-12 15:16:00,86.5,81.5,29.96,South,178,14.0,14.0,85,0.00,,BKN030,0.00,VWS V14.01,2013-06-12 19:16:00,
2013-06-12 15:17:00,86.3,81.3,29.96,South,179,10.0,14.0,85,0.00,,BKN030,0.00,VWS V14.01,2013-06-12 19:17:00,
2013-06-12 15:18:00,86.3,81.3,29.96,South,169,11.0,13.0,85,0.00,,BKN030,0.00,VWS V14.01,2013-06-12 19:18:00,
2013-06-12 15:19:00,86.3,81.3,29.96,SSE,163,10.0,11.0,85,0.00,,BKN030,0.00,VWS V14.01,2013-06-12 19:19:00,
2013-06-12 15:20:00,86.3,81.6,29.69,South,184,12.0,12.0,86,0.00,,SCT200,0.00,VWS V14.01,2013-06-12 19:20:00,
2013-06-12 15:21:00,86.3,81.6,29.69,South,172,9.0,13.0,86,0.00,,BKN030,0.00,VWS V14.01,2013-06-12 19:21:00,
2013-06-12 15:22:00,86.3,81.6,29.69,South,180,10.0,15.0,86,0.00,,BKN030,0.00,VWS V14.01,2013-06-12 19:22:00,
2013-06-12 15:23:00,86.3,81.6,29.69,South,182,12.0,12.0,86,0.00,,BKN030,0.00,VWS V14.01,2013-06-12 19:23:00,
2013-06-12 15:24:00,86.3,82.0,29.69,South,172,7.0,12.0,87,0.00,,BKN030,0.00,VWS V14.01,2013-06-12 19:24:00,
2013-06-12 15:25:00,86.3,81.6,29.69,South,176,7.0,12.0,86,0.00,,SCT200,0.00,VWS V14.01,2013-06-12 19:25:00,
2013-06-12 15:26:00,86.3,81.6,29.65,SSE,167,8.0,12.0,86,0.00,,BKN030,0.00,VWS V14.01,2013-06-12 19:26:00,
2013-06-12 15:27:00,86.3,81.6,29.65,South,179,11.0,12.0,86,0.00,,BKN030,0.00,VWS V14.01,2013-06-12 19:27:00,
2013-06-12 15:28:00,86.3,81.6,29.65,SSE,159,7.0,11.0,86,0.00,,BKN030,0.00,VWS V14.01,2013-06-12 19:28:00,
2013-06-12 15:29:00,86.3,81.6,29.73,SSE,161,10.0,12.0,86,0.00,,BKN030,0.00,VWS V14.01,2013-06-12 19:29:00,
2013-06-12 15:30:00,86.5,81.8,29.73,South,178,10.0,13.0,86,0.00,,SCT200,0.00,VWS V14.01,2013-06-12 19:30:00,
2013-06-12 15:31:00,86.5,81.8,29.73,South,181,11.0,13.0,86,0.00,,BKN030,0.00,VWS V14.01,2013-06-12 19:31:00,
2013-06-12 15:32:00,86.3,81.6,29.73,South,177,9.0,12.0,86,0.00,,BKN030,0.00,VWS V14.01,2013-06-12 19:32:00,
2013-06-12 15:33:00,86.5,82.2,29.73,SSE,165,7.0,11.0,87,0.00,,BKN030,0.00,VWS V14.01,2013-06-12 19:33:00,
2013-06-12 15:34:00,86.5,82.2,29.73,SSE,162,8.0,12.0,87,0.00,,BKN030,0.00,VWS V14.01,2013-06-12 19:34:00,
2013-06-12 15:35:00,86.5,82.2,29.73,South,169,8.0,11.0,87,0.00,,SCT200,0.00,VWS V14.01,2013-06-12 19:35:00,
2013-06-12 15:36:00,86.5,82.2,29.73,South,178,10.0,11.0,87,0.00,,BKN030,0.00,VWS V14.01,2013-06-12 19:36:00,
2013-06-12 15:37:00,86.5,81.8,29.73,South,188,13.0,13.0,86,0.00,,BKN030,0.00,VWS V14.01,2013-06-12 19:37:00,
2013-06-12 15:38:00,86.5,81.8,29.73,South,187,11.0,13.0,86,0.00,,BKN030,0.00,VWS V14.01,2013-06-12 19:38:00,
2013-06-12 15:39:00,86.5,81.8,29.73,SSE,166,10.0,13.0,86,0.00,,BKN030,0.00,VWS V14.01,2013-06-12 19:39:00,
2013-06-12 15:40:00,86.5,81.8,29.73,South,175,11.0,11.0,86,0.00,,SCT200,0.00,VWS V14.01,2013-06-12 19:40:00,
2013-06-12 15:41:00,86.5,81.8,29.73,South,180,14.0,15.0,86,0.00,,BKN030,0.00,VWS V14.01,2013-06-12 19:41:00,
2013-06-12 15:42:00,86.5,81.8,29.94,SSE,166,13.0,15.0,86,0.00,,BKN030,0.00,VWS V14.01,2013-06-12 19:42:00,
2013-06-12 15:43:00,86.5,81.8,29.94,South,170,10.0,15.0,86,0.00,,BKN030,0.00,VWS V14.01,2013-06-12 19:43:00,
2013-06-12 15:44:00,86.5,81.8,29.94,South,173,11.0,13.0,86,0.00,,BKN030,0.00,VWS V14.01,2013-06-12 19:44:00,
2013-06-12 15:45:00,86.5,81.8,29.94,SSE,157,9.0,11.0,86,0.00,,BKN200,0.00,VWS V14.01,2013-06-12 19:45:00,
2013-06-12 15:46:00,86.7,82.0,29.94,SSE,164,10.0,11.0,86,0.00,,BKN030,0.00,VWS V14.01,2013-06-12 19:46:00,
2013-06-12 15:47:00,86.5,81.8,29.95,South,184,15.0,15.0,86,0.00,,BKN030,0.00,VWS V14.01,2013-06-12 19:47:00,
2013-06-12 15:48:00,86.5,81.5,29.94,SSE,167,7.0,16.0,85,0.00,,BKN030,0.00,VWS V14.01,2013-06-12 19:48:00,
2013-06-12 15:49:00,86.7,82.0,29.94,SSE,155,11.0,12.0,86,0.00,,BKN030,0.00,VWS V14.01,2013-06-12 19:49:00,
2013-06-12 15:50:00,86.7,82.0,29.94,South,179,12.0,12.0,86,0.00,,BKN200,0.00,VWS V14.01,2013-06-12 19:50:00,
2013-06-12 15:51:00,86.7,82.0,29.94,SSE,152,13.0,13.0,86,0.00,,BKN030,0.00,VWS V14.01,2013-06-12 19:51:00,
2013-06-12 15:52:00,86.5,81.8,29.94,SSE,159,13.0,13.0,86,0.00,,BKN030,0.00,VWS V14.01,2013-06-12 19:52:00,
2013-06-12 15:53:00,86.5,81.8,29.94,SSE,148,10.0,13.0,86,0.00,,BKN030,0.00,VWS V14.01,2013-06-12 19:53:00,
2013-06-12 15:54:00,86.5,81.8,29.94,SSE,163,11.0,11.0,86,0.00,,BKN030,0.00,VWS V14.01,2013-06-12 19:54:00,
2013-06-12 15:55:00,86.5,82.2,29.94,SSE,164,12.0,12.0,87,0.00,,BKN200,0.00,VWS V14.01,2013-06-12 19:55:00,
2013-06-12 15:56:00,86.5,82.2,29.94,SSE,167,12.0,12.0,87,0.00,,BKN030,0.00,VWS V14.01,2013-06-12 19:56:00,
2013-06-12 15:57:00,86.5,82.2,29.94,SSE,161,13.0,13.0,87,0.00,,BKN030,0.00,VWS V14.01,2013-06-12 19:57:00,
2013-06-12 15:58:00,86.5,82.2,29.94,South,169,10.0,14.0,87,0.00,,BKN030,0.00,VWS V14.01,2013-06-12 19:58:00,
2013-06-12 15:59:00,86.5,82.2,29.94,SSE,150,12.0,13.0,87,0.00,,BKN030,0.00,VWS V14.01,2013-06-12 19:59:00,
2013-06-12 16:00:00,86.3,82.0,29.93,SSE,167,7.0,13.0,87,0.00,,BKN200,0.00,VWS V14.01,2013-06-12 20:00:00,
2013-06-12 16:01:00,86.3,82.0,29.93,SSE,153,7.0,13.0,87,0.00,,BKN030,0.00,VWS V14.01,2013-06-12 20:01:00,
2013-06-12 16:02:00,86.3,82.3,29.94,SSE,161,12.0,13.0,88,0.00,,BKN030,0.00,VWS V14.01,2013-06-12 20:02:00,
2013-06-12 16:03:00,86.3,82.3,29.93,SE,146,11.0,13.0,88,0.00,,BKN030,0.00,VWS V14.01,2013-06-12 20:03:00,
2013-06-12 16:04:00,86.3,82.3,29.93,SSE,166,8.0,12.0,88,0.00,,BKN030,0.00,VWS V14.01,2013-06-12 20:04:00,
2013-06-12 16:05:00,86.3,82.3,29.93,South,187,11.0,13.0,88,0.00,,BKN200,0.00,VWS V14.01,2013-06-12 20:05:00,
2013-06-12 16:06:00,86.3,82.3,29.93,SSE,163,14.0,14.0,88,0.00,,BKN030,0.00,VWS V14.01,2013-06-12 20:06:00,
2013-06-12 16:07:00,86.3,82.3,29.93,South,171,10.0,14.0,88,0.00,,BKN030,0.00,VWS V14.01,2013-06-12 20:07:00,
2013-06-12 16:08:00,86.3,82.3,29.93,SSE,158,11.0,15.0,88,0.00,,BKN030,0.00,VWS V14.01,2013-06-12 20:08:00,
2013-06-12 16:09:00,86.3,82.3,29.93,South,171,9.0,13.0,88,0.00,,BKN030,0.00,VWS V14.01,2013-06-12 20:09:00,
2013-06-12 16:10:00,86.3,82.3,29.93,South,172,11.0,11.0,88,0.00,,BKN200,0.00,VWS V14.01,2013-06-12 20:10:00,
2013-06-12 16:11:00,86.5,82.5,29.93,South,190,12.0,13.0,88,0.00,,BKN030,0.00,VWS V14.01,2013-06-12 20:11:00,
2013-06-12 16:12:00,86.3,82.3,29.93,South,180,13.0,15.0,88,0.00,,BKN030,0.00,VWS V14.01,2013-06-12 20:12:00,
2013-06-12 16:13:00,86.3,82.3,29.93,South,187,15.0,16.0,88,0.00,,BKN030,0.00,VWS V14.01,2013-06-12 20:13:00,
2013-06-12 16:14:00,86.1,82.1,29.93,South,189,16.0,16.0,88,0.00,,BKN030,0.00,VWS V14.01,2013-06-12 20:14:00,
2013-06-12 16:15:00,85.9,81.6,29.93,South,188,10.0,14.0,87,0.00,,BKN200,0.00,VWS V14.01,2013-06-12 20:15:00,
2013-06-12 16:16:00,85.9,81.6,29.93,South,182,17.0,17.0,87,0.00,,BKN030,0.00,VWS V14.01,2013-06-12 20:16:00,
2013-06-12 16:17:00,85.7,81.7,29.93,South,186,13.0,17.0,88,0.00,,BKN030,0.00,VWS V14.01,2013-06-12 20:17:00,
2013-06-12 16:18:00,85.7,81.4,29.93,SSW,192,12.0,15.0,87,0.00,,BKN030,0.00,VWS V14.01,2013-06-12 20:18:00,
2013-06-12 16:19:00,85.7,81.7,29.93,SSW,192,13.0,13.0,88,0.00,,BKN030,0.00,VWS V14.01,2013-06-12 20:19:00,
2013-06-12 16:20:00,85.7,81.7,29.93,SSW,202,14.0,14.0,88,0.00,,BKN200,0.00,VWS V14.01,2013-06-12 20:20:00,
2013-06-12 16:21:00,85.7,81.4,29.93,South,171,15.0,15.0,87,0.00,,BKN030,0.00,VWS V14.01,2013-06-12 20:21:00,
2013-06-12 16:22:00,85.7,81.4,29.93,South,175,16.0,16.0,87,0.00,,BKN030,0.00,VWS V14.01,2013-06-12 20:22:00,
2013-06-12 16:23:00,85.7,81.4,29.93,SSW,198,15.0,16.0,87,0.00,,BKN030,0.00,VWS V14.01,2013-06-12 20:23:00,
2013-06-12 16:24:00,85.7,81.4,29.93,SSW,195,13.0,16.0,87,0.00,,BKN030,0.00,VWS V14.01,2013-06-12 20:24:00,
2013-06-12 16:25:00,85.7,81.4,29.93,South,186,14.0,16.0,87,0.00,,BKN200,0.00,VWS V14.01,2013-06-12 20:25:00,
2013-06-12 16:26:00,85.7,81.4,29.93,South,188,16.0,16.0,87,0.00,,BKN030,0.00,VWS V14.01,2013-06-12 20:26:00,
2013-06-12 16:27:00,85.7,81.7,29.93,South,174,15.0,16.0,88,0.00,,BKN030,0.00,VWS V14.01,2013-06-12 20:27:00,
2013-06-12 16:28:00,85.7,81.7,29.93,South,185,12.0,16.0,88,0.00,,BKN030,0.00,VWS V14.01,2013-06-12 20:28:00,
2013-06-12 16:29:00,85.7,81.7,29.93,South,170,7.0,13.0,88,0.00,,BKN030,0.00,VWS V14.01,2013-06-12 20:29:00,
2013-06-12 16:30:00,85.9,82.3,29.93,South,172,14.0,14.0,89,0.00,,BKN200,0.00,VWS V14.01,2013-06-12 20:30:00,
2013-06-12 16:31:00,85.9,81.9,29.93,SSE,167,13.0,14.0,88,0.00,,BKN030,0.00,VWS V14.01,2013-06-12 20:31:00,
2013-06-12 16:32:00,85.9,81.9,29.93,SSE,163,11.0,13.0,88,0.00,,BKN030,0.00,VWS V14.01,2013-06-12 20:32:00,
2013-06-12 16:33:00,85.9,81.9,29.93,South,182,16.0,16.0,88,0.00,,BKN030,0.00,VWS V14.01,2013-06-12 20:33:00,
2013-06-12 16:34:00,85.9,81.9,29.93,South,179,12.0,16.0,88,0.00,,BKN030,0.00,VWS V14.01,2013-06-12 20:34:00,
2013-06-12 16:35:00,85.9,81.9,29.93,South,173,11.0,12.0,88,0.00,,BKN200,0.00,VWS V14.01,2013-06-12 20:35:00,
2013-06-12 16:36:00,85.9,81.9,29.93,South,175,12.0,12.0,88,0.00,,BKN030,0.00,VWS V14.01,2013-06-12 20:36:00,
2013-06-12 16:37:00,85.9,81.9,29.93,South,173,14.0,14.0,88,0.00,,BKN030,0.00,VWS V14.01,2013-06-12 20:37:00,
2013-06-12 16:38:00,85.9,81.9,29.93,South,173,12.0,14.0,88,0.00,,BKN030,0.00,VWS V14.01,2013-06-12 20:38:00,
2013-06-12 16:39:00,85.9,82.3,29.75,South,189,10.0,12.0,89,0.00,,BKN030,0.00,VWS V14.01,2013-06-12 20:39:00,
2013-06-12 16:40:00,85.7,81.7,29.75,SSW,194,16.0,16.0,88,0.00,,BKN200,0.00,VWS V14.01,2013-06-12 20:40:00,
2013-06-12 16:41:00,85.7,81.7,29.75,SSW,192,12.0,16.0,88,0.00,,BKN030,0.00,VWS V14.01,2013-06-12 20:41:00,
2013-06-12 16:42:00,85.7,81.7,29.75,South,178,13.0,13.0,88,0.00,,BKN030,0.00,VWS V14.01,2013-06-12 20:42:00,
2013-06-12 16:43:00,85.7,82.1,29.75,South,180,13.0,15.0,89,0.00,,BKN030,0.00,VWS V14.01,2013-06-12 20:43:00,
2013-06-12 16:44:00,85.7,82.1,29.75,South,173,14.0,14.0,89,0.00,,BKN030,0.00,VWS V14.01,2013-06-12 20:44:00,
2013-06-12 16:45:00,85.7,82.1,29.92,SSW,192,13.0,14.0,89,0.00,,BKN200,0.00,VWS V14.01,2013-06-12 20:45:00,
2013-06-12 16:46:00,85.5,81.5,29.92,South,172,13.0,15.0,88,0.00,,BKN030,0.00,VWS V14.01,2013-06-12 20:46:00,
2013-06-12 16:47:00,85.5,81.9,29.92,South,190,14.0,14.0,89,0.00,,BKN030,0.00,VWS V14.01,2013-06-12 20:47:00,
2013-06-12 16:48:00,85.5,81.5,29.92,SSW,205,14.0,17.0,88,0.00,,BKN030,0.00,VWS V14.01,2013-06-12 20:48:00,
2013-06-12 16:49:00,85.5,81.5,29.92,South,183,13.0,14.0,88,0.00,,BKN030,0.00,VWS V14.01,2013-06-12 20:49:00,
2013-06-12 16:50:00,85.5,81.9,29.92,South,186,10.0,13.0,89,0.00,,BKN200,0.00,VWS V14.01,2013-06-12 20:50:00,
2013-06-12 16:51:00,85.5,81.9,29.92,SSW,202,14.0,14.0,89,0.00,,BKN030,0.00,VWS V14.01,2013-06-12 20:51:00,
2013-06-12 16:52:00,85.5,81.5,29.92,South,189,10.0,14.0,88,0.00,,BKN030,0.00,VWS V14.01,2013-06-12 20:52:00,
2013-06-12 16:53:00,85.5,81.5,29.92,SSW,205,11.0,12.0,88,0.00,,BKN030,0.00,VWS V14.01,2013-06-12 20:53:00,
2013-06-12 16:54:00,85.5,81.9,29.92,South,186,12.0,12.0,89,0.00,,BKN030,0.00,VWS V14.01,2013-06-12 20:54:00,
2013-06-12 16:55:00,85.5,81.9,29.92,South,186,12.0,13.0,89,0.00,,BKN200,0.00,VWS V14.01,2013-06-12 20:55:00,
2013-06-12 16:56:00,85.5,81.9,29.92,South,191,12.0,13.0,89,0.00,,BKN030,0.00,VWS V14.01,2013-06-12 20:56:00,
2013-06-12 16:57:00,85.5,81.5,29.92,SSW,202,12.0,13.0,88,0.00,,BKN030,0.00,VWS V14.01,2013-06-12 20:57:00,
2013-06-12 16:58:00,85.5,81.9,29.92,South,180,13.0,14.0,89,0.00,,BKN030,0.00,VWS V14.01,2013-06-12 20:58:00,
2013-06-12 16:59:00,85.5,81.9,29.92,South,188,16.0,16.0,89,0.00,,BKN030,0.00,VWS V14.01,2013-06-12 20:59:00,
2013-06-12 17:00:00,85.5,81.5,29.92,South,190,13.0,17.0,88,0.00,,BKN200,0.00,VWS V14.01,2013-06-12 21:00:00,
2013-06-12 17:01:00,85.5,81.5,29.92,SSW,195,15.0,17.0,88,0.00,,BKN030,0.00,VWS V14.01,2013-06-12 21:01:00,
2013-06-12 17:02:00,85.5,81.5,29.92,South,181,15.0,16.0,88,0.00,,BKN030,0.00,VWS V14.01,2013-06-12 21:02:00,
2013-06-12 17:03:00,85.5,81.5,29.92,South,185,11.0,15.0,88,0.00,,BKN030,0.00,VWS V14.01,2013-06-12 21:03:00,
2013-06-12 17:04:00,85.5,81.5,29.92,South,184,12.0,14.0,88,0.00,,BKN030,0.00,VWS V14.01,2013-06-12 21:04:00,
2013-06-12 17:05:00,85.5,81.5,29.92,SSW,194,16.0,16.0,88,0.00,,BKN200,0.00,VWS V14.01,2013-06-12 21:05:00,
2013-06-12 17:06:00,85.5,81.5,29.92,SSW,195,14.0,16.0,88,0.00,,BKN030,0.00,VWS V14.01,2013-06-12 21:06:00,
2013-06-12 17:07:00,85.5,81.5,29.92,South,182,13.0,15.0,88,0.00,,BKN030,0.00,VWS V14.01,2013-06-12 21:07:00,
2013-06-12 17:08:00,85.5,81.9,29.92,South,188,12.0,15.0,89,0.00,,BKN030,0.00,VWS V14.01,2013-06-12 21:08:00,
2013-06-12 17:09:00,85.5,81.9,29.92,SSW,192,15.0,15.0,89,0.00,,BKN030,0.00,VWS V14.01,2013-06-12 21:09:00,
2013-06-12 17:10:00,85.5,81.9,29.92,South,180,13.0,14.0,89,0.00,,BKN200,0.00,VWS V14.01,2013-06-12 21:10:00,
2013-06-12 17:11:00,85.5,81.9,29.92,South,191,11.0,14.0,89,0.00,,BKN030,0.00,VWS V14.01,2013-06-12 21:11:00,
2013-06-12 17:12:00,85.5,81.9,29.92,SSW,194,10.0,14.0,89,0.00,,BKN030,0.00,VWS V14.01,2013-06-12 21:12:00,
2013-06-12 17:13:00,85.5,81.9,29.92,SSW,192,12.0,13.0,89,0.00,,BKN030,0.00,VWS V14.01,2013-06-12 21:13:00,
2013-06-12 17:14:00,85.5,81.9,29.92,South,189,11.0,12.0,89,0.00,,BKN030,0.00,VWS V14.01,2013-06-12 21:14:00,
2013-06-12 17:15:00,85.5,81.5,29.92,SSW,198,14.0,14.0,88,0.00,,BKN200,0.00,VWS V14.01,2013-06-12 21:15:00,
2013-06-12 17:16:00,85.5,81.9,29.92,South,173,9.0,14.0,89,0.00,,BKN030,0.00,VWS V14.01,2013-06-12 21:16:00,
2013-06-12 17:17:00,85.5,81.9,29.92,South,173,12.0,13.0,89,0.00,,BKN030,0.00,VWS V14.01,2013-06-12 21:17:00,
2013-06-12 17:18:00,85.5,81.9,29.92,South,183,10.0,12.0,89,0.00,,BKN030,0.00,VWS V14.01,2013-06-12 21:18:00,
2013-06-12 17:19:00,85.5,81.9,29.92,SSW,196,12.0,16.0,89,0.00,,BKN030,0.00,VWS V14.01,2013-06-12 21:19:00,
2013-06-12 17:20:00,85.5,81.9,29.92,South,187,12.0,14.0,89,0.00,,BKN200,0.00,VWS V14.01,2013-06-12 21:20:00,
2013-06-12 17:21:00,85.5,81.9,29.92,South,179,12.0,14.0,89,0.00,,BKN030,0.00,VWS V14.01,2013-06-12 21:21:00,
2013-06-12 17:22:00,85.5,81.9,29.92,South,179,13.0,14.0,89,0.00,,BKN030,0.00,VWS V14.01,2013-06-12 21:22:00,
2013-06-12 17:23:00,85.5,81.5,29.92,South,184,11.0,14.0,88,0.00,,BKN030,0.00,VWS V14.01,2013-06-12 21:23:00,
2013-06-12 17:24:00,85.5,81.9,29.92,SSW,203,10.0,13.0,89,0.00,,BKN030,0.00,VWS V14.01,2013-06-12 21:24:00,
2013-06-12 17:25:00,85.5,81.9,29.92,SSW,199,9.0,9.0,89,0.00,,BKN200,0.00,VWS V14.01,2013-06-12 21:25:00,
2013-06-12 17:26:00,85.5,81.9,29.92,South,181,10.0,13.0,89,0.00,,BKN030,0.00,VWS V14.01,2013-06-12 21:26:00,
2013-06-12 17:27:00,85.5,81.5,29.92,SSW,195,11.0,13.0,88,0.00,,BKN030,0.00,VWS V14.01,2013-06-12 21:27:00,
2013-06-12 17:28:00,85.5,81.5,29.92,South,186,12.0,13.0,88,0.00,,BKN030,0.00,VWS V14.01,2013-06-12 21:28:00,
2013-06-12 17:29:00,85.5,81.9,29.92,South,175,12.0,12.0,89,0.00,,BKN030,0.00,VWS V14.01,2013-06-12 21:29:00,
2013-06-12 17:30:00,85.5,81.9,29.92,South,175,9.0,9.0,89,0.00,,BKN200,0.00,VWS V14.01,2013-06-12 21:30:00,
2013-06-12 17:31:00,85.7,82.1,29.92,South,181,10.0,10.0,89,0.00,,BKN030,0.00,VWS V14.01,2013-06-12 21:31:00,
2013-06-12 17:32:00,85.5,81.5,29.92,South,173,12.0,13.0,88,0.00,,BKN030,0.00,VWS V14.01,2013-06-12 21:32:00,
2013-06-12 17:33:00,85.5,81.5,29.92,South,185,10.0,12.0,88,0.00,,BKN030,0.00,VWS V14.01,2013-06-12 21:33:00,
2013-06-12 17:34:00,85.5,81.9,29.92,South,182,11.0,12.0,89,0.00,,BKN030,0.00,VWS V14.01,2013-06-12 21:34:00,
2013-06-12 17:35:00,85.5,81.9,29.92,SSW,205,10.0,13.0,89,0.00,,BKN200,0.00,VWS V14.01,2013-06-12 21:35:00,
2013-06-12 17:36:00,85.5,81.9,29.92,South,188,11.0,13.0,89,0.00,,BKN030,0.00,VWS V14.01,2013-06-12 21:36:00,
2013-06-12 17:37:00,85.5,81.9,29.91,SSW,194,7.0,11.0,89,0.00,,BKN030,0.00,VWS V14.01,2013-06-12 21:37:00,
2013-06-12 17:38:00,85.5,81.9,29.91,SSW,196,9.0,10.0,89,0.00,,BKN030,0.00,VWS V14.01,2013-06-12 21:38:00,
2013-06-12 17:39:00,85.5,81.9,29.91,South,183,10.0,10.0,89,0.00,,BKN030,0.00,VWS V14.01,2013-06-12 21:39:00,
2013-06-12 17:40:00,85.5,81.9,29.91,South,181,11.0,11.0,89,0.00,,BKN200,0.00,VWS V14.01,2013-06-12 21:40:00,
2013-06-12 17:41:00,85.5,81.9,29.91,SSW,194,11.0,11.0,89,0.00,,BKN030,0.00,VWS V14.01,2013-06-12 21:41:00,
2013-06-12 17:42:00,85.5,81.5,29.91,SSW,194,13.0,13.0,88,0.00,,BKN030,0.00,VWS V14.01,2013-06-12 21:42:00,
2013-06-12 17:43:00,85.5,81.9,29.91,South,180,11.0,13.0,89,0.00,,BKN030,0.00,VWS V14.01,2013-06-12 21:43:00,
2013-06-12 17:44:00,85.5,81.9,29.89,SSW,198,11.0,11.0,89,0.00,,BKN030,0.00,VWS V14.01,2013-06-12 21:44:00,
2013-06-12 17:45:00,85.5,81.9,29.89,South,182,12.0,13.0,89,0.00,,BKN200,0.00,VWS V14.01,2013-06-12 21:45:00,
2013-06-12 17:46:00,85.5,81.9,29.89,South,184,12.0,13.0,89,0.00,,BKN030,0.00,VWS V14.01,2013-06-12 21:46:00,
2013-06-12 17:47:00,85.5,81.9,29.89,South,185,11.0,12.0,89,0.00,,BKN030,0.00,VWS V14.01,2013-06-12 21:47:00,
2013-06-12 17:48:00,85.5,81.9,29.41,South,188,12.0,12.0,89,0.00,,BKN030,0.00,VWS V14.01,2013-06-12 21:48:00,
2013-06-12 17:49:00,85.5,81.5,29.43,South,190,11.0,13.0,88,0.00,,BKN030,0.00,VWS V14.01,2013-06-12 21:49:00,
2013-06-12 17:50:00,85.5,81.5,29.44,SSW,199,11.0,11.0,88,0.00,,BKN200,0.00,VWS V14.01,2013-06-12 21:50:00,
2013-06-12 17:51:00,85.5,81.5,29.44,South,188,14.0,14.0,88,0.00,,BKN030,0.00,VWS V14.01,2013-06-12 21:51:00,
2013-06-12 17:52:00,85.3,81.7,29.44,SSW,208,12.0,14.0,89,0.00,,BKN030,0.00,VWS V14.01,2013-06-12 21:52:00,
2013-06-12 17:53:00,85.3,81.7,29.42,South,172,10.0,12.0,89,0.00,,BKN030,0.00,VWS V14.01,2013-06-12 21:53:00,
2013-06-12 17:54:00,85.3,81.7,29.42,South,169,13.0,13.0,89,0.00,,BKN030,0.00,VWS V14.01,2013-06-12 21:54:00,
2013-06-12 17:55:00,85.5,81.9,29.41,SSW,192,12.0,12.0,89,0.00,,BKN200,0.00,VWS V14.01,2013-06-12 21:55:00,
2013-06-12 17:56:00,85.5,81.9,29.41,South,184,11.0,12.0,89,0.00,,BKN030,0.00,VWS V14.01,2013-06-12 21:56:00,
2013-06-12 17:57:00,85.5,81.9,29.41,South,182,12.0,13.0,89,0.00,,BKN030,0.00,VWS V14.01,2013-06-12 21:57:00,
2013-06-12 17:58:00,85.3,81.3,29.44,SSW,194,10.0,13.0,88,0.00,,BKN030,0.00,VWS V14.01,2013-06-12 21:58:00,
2013-06-12 17:59:00,85.3,81.7,29.44,South,182,12.0,12.0,89,0.00,,BKN030,0.00,VWS V14.01,2013-06-12 21:59:00,
2013-06-12 18:00:00,85.3,81.7,29.47,South,171,10.0,10.0,89,0.00,,BKN200,0.00,VWS V14.01,2013-06-12 22:00:00,
2013-06-12 18:01:00,85.5,81.9,29.47,SSW,203,11.0,11.0,89,0.00,,BKN030,0.00,VWS V14.01,2013-06-12 22:01:00,
2013-06-12 18:02:00,85.3,81.7,29.45,South,181,12.0,13.0,89,0.00,,BKN030,0.00,VWS V14.01,2013-06-12 22:02:00,
2013-06-12 18:03:00,85.5,81.9,29.46,SSE,167,9.0,12.0,89,0.00,,BKN030,0.00,VWS V14.01,2013-06-12 22:03:00,
2013-06-12 18:04:00,85.5,81.9,29.46,South,183,12.0,12.0,89,0.00,,BKN030,0.00,VWS V14.01,2013-06-12 22:04:00,
2013-06-12 18:05:00,85.5,81.5,29.52,South,186,7.0,13.0,88,0.00,,BKN200,0.00,VWS V14.01,2013-06-12 22:05:00,
2013-06-12 18:06:00,85.5,81.9,29.52,South,180,10.0,13.0,89,0.00,,BKN030,0.00,VWS V14.01,2013-06-12 22:06:00,
2013-06-12 18:07:00,85.5,81.5,29.52,South,187,13.0,13.0,88,0.00,,BKN030,0.00,VWS V14.01,2013-06-12 22:07:00,
2013-06-12 18:08:00,85.5,81.5,29.52,South,183,14.0,14.0,88,0.00,,BKN030,0.00,VWS V14.01,2013-06-12 22:08:00,
2013-06-12 18:09:00,85.3,81.3,29.52,SSW,203,12.0,14.0,88,0.00,,BKN030,0.00,VWS V14.01,2013-06-12 22:09:00,
2013-06-12 18:10:00,85.3,81.3,29.52,South,187,9.0,12.0,88,0.00,,BKN200,0.00,VWS V14.01,2013-06-12 22:10:00,
2013-06-12 18:11:00,85.3,81.3,29.52,SSW,196,11.0,12.0,88,0.00,,BKN030,0.00,VWS V14.01,2013-06-12 22:11:00,
2013-06-12 18:12:00,85.3,81.3,29.55,SSW,200,12.0,12.0,88,0.00,,BKN030,0.00,VWS V14.01,2013-06-12 22:12:00,
2013-06-12 18:13:00,85.3,81.3,29.55,South,183,11.0,12.0,88,0.00,,BKN030,0.00,VWS V14.01,2013-06-12 22:13:00,
2013-06-12 18:14:00,85.3,81.3,29.55,South,181,10.0,12.0,88,0.00,,BKN030,0.00,VWS V14.01,2013-06-12 22:14:00,
2013-06-12 18:15:00,85.5,81.5,29.55,South,174,10.0,10.0,88,0.00,,BKN200,0.00,VWS V14.01,2013-06-12 22:15:00,
2013-06-12 18:16:00,85.5,81.5,29.55,SSW,193,10.0,10.0,88,0.00,,BKN030,0.00,VWS V14.01,2013-06-12 22:16:00,
2013-06-12 18:17:00,85.5,81.5,29.47,South,190,10.0,12.0,88,0.00,,BKN030,0.00,VWS V14.01,2013-06-12 22:17:00,
2013-06-12 18:18:00,85.5,81.5,29.46,South,188,11.0,11.0,88,0.00,,BKN030,0.00,VWS V14.01,2013-06-12 22:18:00,
2013-06-12 18:19:00,85.5,81.5,29.45,South,180,12.0,12.0,88,0.00,,BKN030,0.00,VWS V14.01,2013-06-12 22:19:00,
2013-06-12 18:20:00,85.5,81.5,29.44,South,184,10.0,10.0,88,0.00,,BKN200,0.00,VWS V14.01,2013-06-12 22:20:00,
2013-06-12 18:21:00,85.5,81.5,29.44,South,169,9.0,10.0,88,0.00,,BKN030,0.00,VWS V14.01,2013-06-12 22:21:00,
2013-06-12 18:22:00,85.5,81.5,29.44,South,190,7.0,10.0,88,0.00,,BKN030,0.00,VWS V14.01,2013-06-12 22:22:00,
2013-06-12 18:23:00,85.5,81.5,29.44,South,183,9.0,9.0,88,0.00,,BKN030,0.00,VWS V14.01,2013-06-12 22:23:00,
2013-06-12 18:24:00,85.5,81.5,29.41,South,188,9.0,9.0,88,0.00,,BKN030,0.00,VWS V14.01,2013-06-12 22:24:00,
2013-06-12 18:25:00,85.5,81.5,29.44,South,190,6.0,10.0,88,0.00,,BKN200,0.00,VWS V14.01,2013-06-12 22:25:00,
2013-06-12 18:26:00,85.5,81.5,29.44,South,184,10.0,10.0,88,0.00,,BKN030,0.00,VWS V14.01,2013-06-12 22:26:00,
2013-06-12 18:27:00,85.5,81.5,29.44,South,175,7.0,10.0,88,0.00,,BKN030,0.00,VWS V14.01,2013-06-12 22:27:00,
2013-06-12 18:28:00,85.5,81.5,29.44,South,188,7.0,10.0,88,0.00,,BKN030,0.00,VWS V14.01,2013-06-12 22:28:00,
2013-06-12 18:29:00,85.5,81.5,29.44,South,184,9.0,11.0,88,0.00,,BKN030,0.00,VWS V14.01,2013-06-12 22:29:00,
2013-06-12 18:30:00,85.5,81.5,29.43,South,188,11.0,11.0,88,0.00,,BKN200,0.00,VWS V14.01,2013-06-12 22:30:00,
2013-06-12 18:31:00,85.5,81.5,29.43,South,169,6.0,11.0,88,0.00,,BKN030,0.00,VWS V14.01,2013-06-12 22:31:00,
2013-06-12 18:32:00,85.5,81.5,29.43,South,184,7.0,7.0,88,0.00,,BKN030,0.00,VWS V14.01,2013-06-12 22:32:00,
2013-06-12 18:33:00,85.5,81.5,29.42,South,182,9.0,12.0,88,0.00,,BKN030,0.00,VWS V14.01,2013-06-12 22:33:00,
2013-06-12 18:34:00,85.5,81.5,29.44,South,182,10.0,10.0,88,0.00,,BKN030,0.00,VWS V14.01,2013-06-12 22:34:00,
2013-06-12 18:35:00,85.5,81.9,29.42,South,173,7.0,11.0,89,0.00,,BKN200,0.00,VWS V14.01,2013-06-12 22:35:00,
2013-06-12 18:36:00,85.5,81.9,29.42,South,180,6.0,11.0,89,0.00,,BKN030,0.00,VWS V14.01,2013-06-12 22:36:00,
2013-06-12 18:37:00,85.5,81.9,29.43,South,182,7.0,11.0,89,0.00,,BKN030,0.00,VWS V14.01,2013-06-12 22:37:00,
2013-06-12 18:38:00,85.5,81.9,29.44,SSE,155,4.0,8.0,89,0.00,,BKN030,0.00,VWS V14.01,2013-06-12 22:38:00,
2013-06-12 18:39:00,85.5,81.5,29.44,South,182,6.0,7.0,88,0.00,,BKN030,0.00,VWS V14.01,2013-06-12 22:39:00,
2013-06-12 18:40:00,85.5,81.5,29.49,South,171,9.0,10.0,88,0.00,,BKN200,0.00,VWS V14.01,2013-06-12 22:40:00,
2013-06-12 18:41:00,85.5,81.5,29.49,SSE,168,9.0,10.0,88,0.00,,BKN030,0.00,VWS V14.01,2013-06-12 22:41:00,
2013-06-12 18:42:00,85.5,81.9,29.49,SSW,196,10.0,10.0,89,0.00,,BKN030,0.00,VWS V14.01,2013-06-12 22:42:00,
2013-06-12 18:43:00,85.5,81.9,29.49,South,178,5.0,10.0,89,0.00,,BKN030,0.00,VWS V14.01,2013-06-12 22:43:00,
2013-06-12 18:44:00,85.5,81.9,29.77,SSE,162,5.0,9.0,89,0.00,,BKN030,0.00,VWS V14.01,2013-06-12 22:44:00,
2013-06-12 18:45:00,85.5,81.9,29.90,South,185,12.0,12.0,89,0.00,,SCT200,0.00,VWS V14.01,2013-06-12 22:45:00,
2013-06-12 18:46:00,85.5,81.9,29.90,South,180,10.0,12.0,89,0.00,,BKN030,0.00,VWS V14.01,2013-06-12 22:46:00,
2013-06-12 18:47:00,85.3,81.7,29.90,South,188,11.0,11.0,89,0.00,,BKN030,0.00,VWS V14.01,2013-06-12 22:47:00,
2013-06-12 18:48:00,85.3,81.7,29.90,South,171,8.0,11.0,89,0.00,,BKN030,0.00,VWS V14.01,2013-06-12 22:48:00,
2013-06-12 18:49:00,85.1,81.5,29.90,South,180,6.0,9.0,89,0.00,,SCT200,0.00,VWS V14.01,2013-06-12 22:49:00,
2013-06-12 18:50:00,85.1,81.5,29.90,South,169,9.0,12.0,89,0.00,,BKN030,0.00,VWS V14.01,2013-06-12 22:50:00,
2013-06-12 18:51:00,85.1,81.5,29.92,South,179,10.0,13.0,89,0.00,,BKN030,0.00,VWS V14.01,2013-06-12 22:51:00,
2013-06-12 18:52:00,85.1,81.8,29.92,South,171,10.0,10.0,90,0.00,,BKN030,0.00,VWS V14.01,2013-06-12 22:52:00,
2013-06-12 18:53:00,85.1,81.8,29.91,South,188,12.0,12.0,90,0.00,,BKN030,0.00,VWS V14.01,2013-06-12 22:53:00,
2013-06-12 18:54:00,85.1,81.8,29.90,South,177,12.0,12.0,90,0.00,,SCT200,0.00,VWS V14.01,2013-06-12 22:54:00,
2013-06-12 18:55:00,85.1,81.8,29.90,South,182,10.0,10.0,90,0.00,,BKN030,0.00,VWS V14.01,2013-06-12 22:55:00,
2013-06-12 18:56:00,85.1,81.8,29.92,South,182,13.0,13.0,90,0.00,,BKN030,0.00,VWS V14.01,2013-06-12 22:56:00,
2013-06-12 18:57:00,84.9,81.6,29.92,South,173,12.0,13.0,90,0.00,,BKN030,0.00,VWS V14.01,2013-06-12 22:57:00,
2013-06-12 18:58:00,84.9,81.6,29.90,SSE,158,9.0,12.0,90,0.00,,BKN030,0.00,VWS V14.01,2013-06-12 22:58:00,
2013-06-12 18:59:00,84.9,81.6,29.91,South,172,11.0,11.0,90,0.00,,SCT200,0.00,VWS V14.01,2013-06-12 22:59:00,
2013-06-12 19:00:00,84.9,81.6,29.91,SSE,167,10.0,10.0,90,0.00,,BKN030,0.00,VWS V14.01,2013-06-12 23:00:00,
2013-06-12 19:01:00,84.9,81.6,29.91,SSE,159,9.0,11.0,90,0.00,,BKN030,0.00,VWS V14.01,2013-06-12 23:01:00,
2013-06-12 19:02:00,84.9,82.0,29.91,South,182,8.0,10.0,91,0.00,,BKN030,0.00,VWS V14.01,2013-06-12 23:02:00,
2013-06-12 19:03:00,84.9,81.6,29.91,SSE,157,12.0,14.0,90,0.00,,BKN030,0.00,VWS V14.01,2013-06-12 23:03:00,
2013-06-12 19:04:00,84.7,81.4,29.91,South,190,12.0,12.0,90,0.00,,SCT200,0.00,VWS V14.01,2013-06-12 23:04:00,
2013-06-12 19:05:00,84.7,81.4,29.91,SSE,161,11.0,13.0,90,0.00,,BKN030,0.00,VWS V14.01,2013-06-12 23:05:00,
2013-06-12 19:06:00,84.7,81.8,29.91,South,171,7.0,12.0,91,0.00,,BKN030,0.00,VWS V14.01,2013-06-12 23:06:00,
2013-06-12 19:07:00,84.7,81.8,29.91,SSW,192,10.0,13.0,91,0.00,,BKN030,0.00,VWS V14.01,2013-06-12 23:07:00,
2013-06-12 19:08:00,84.7,81.8,29.91,South,180,12.0,12.0,91,0.00,,BKN030,0.00,VWS V14.01,2013-06-12 23:08:00,
2013-06-12 19:09:00,84.7,81.8,29.91,South,188,10.0,13.0,91,0.00,,SCT200,0.00,VWS V14.01,2013-06-12 23:09:00,
2013-06-12 19:10:00,84.7,81.8,29.90,South,184,13.0,13.0,91,0.00,,BKN030,0.00,VWS V14.01,2013-06-12 23:10:00,
2013-06-12 19:11:00,84.7,81.8,29.91,South,184,7.0,13.0,91,0.00,,BKN030,0.00,VWS V14.01,2013-06-12 23:11:00,
2013-06-12 19:12:00,84.7,82.1,29.91,South,182,12.0,12.0,92,0.00,,BKN030,0.00,VWS V14.01,2013-06-12 23:12:00,
2013-06-12 19:13:00,84.5,81.6,29.91,South,186,12.0,12.0,91,0.00,,BKN030,0.00,VWS V14.01,2013-06-12 23:13:00,
2013-06-12 19:14:00,84.5,81.6,29.91,South,175,11.0,13.0,91,0.00,,SCT200,0.00,VWS V14.01,2013-06-12 23:14:00,
2013-06-12 19:15:00,84.5,81.6,29.91,South,173,13.0,13.0,91,0.00,,BKN030,0.00,VWS V14.01,2013-06-12 23:15:00,
2013-06-12 19:16:00,84.5,81.6,29.91,SSW,192,11.0,13.0,91,0.00,,BKN030,0.00,VWS V14.01,2013-06-12 23:16:00,
2013-06-12 19:17:00,84.5,81.9,29.92,South,179,9.0,11.0,92,0.00,,BKN030,0.00,VWS V14.01,2013-06-12 23:17:00,
2013-06-12 19:18:00,84.5,81.9,29.90,South,184,6.0,12.0,92,0.00,,BKN030,0.00,VWS V14.01,2013-06-12 23:18:00,
2013-06-12 19:19:00,84.5,81.9,29.91,South,190,9.0,9.0,92,0.00,,SCT200,0.00,VWS V14.01,2013-06-12 23:19:00,
2013-06-12 19:20:00,84.5,81.9,29.90,SSW,200,9.0,10.0,92,0.00,,BKN030,0.00,VWS V14.01,2013-06-12 23:20:00,
2013-06-12 19:21:00,84.5,81.9,29.91,SSW,207,7.0,9.0,92,0.00,,BKN030,0.00,VWS V14.01,2013-06-12 23:21:00,
2013-06-12 19:22:00,84.5,81.9,29.90,SSW,204,9.0,11.0,92,0.00,,BKN030,0.00,VWS V14.01,2013-06-12 23:22:00,
2013-06-12 19:23:00,84.5,81.9,29.88,SSW,207,9.0,9.0,92,0.00,,BKN030,0.00,VWS V14.01,2013-06-12 23:23:00,
2013-06-12 19:24:00,84.5,81.6,29.90,South,179,7.0,7.0,91,0.00,,SCT200,0.00,VWS V14.01,2013-06-12 23:24:00,
2013-06-12 19:25:00,84.5,81.9,29.90,SSW,206,7.0,11.0,92,0.00,,BKN030,0.00,VWS V14.01,2013-06-12 23:25:00,
2013-06-12 19:26:00,84.5,81.6,29.90,SSW,213,7.0,10.0,91,0.00,,BKN030,0.00,VWS V14.01,2013-06-12 23:26:00,
2013-06-12 19:27:00,84.5,81.6,29.92,SSW,198,9.0,9.0,91,0.00,,BKN030,0.00,VWS V14.01,2013-06-12 23:27:00,
2013-06-12 19:28:00,84.3,81.4,29.91,South,180,9.0,11.0,91,0.00,,BKN030,0.00,VWS V14.01,2013-06-12 23:28:00,
2013-06-12 19:29:00,84.5,81.9,29.92,SSW,195,8.0,8.0,92,0.00,,SCT200,0.00,VWS V14.01,2013-06-12 23:29:00,
2013-06-12 19:30:00,84.5,81.9,29.92,SSW,209,6.0,9.0,92,0.00,,BKN030,0.00,VWS V14.01,2013-06-12 23:30:00,
2013-06-12 19:31:00,84.5,81.6,29.92,SSW,211,11.0,11.0,91,0.00,,BKN030,0.00,VWS V14.01,2013-06-12 23:31:00,
2013-06-12 19:32:00,84.5,81.6,29.92,SSW,212,8.0,11.0,91,0.00,,BKN030,0.00,VWS V14.01,2013-06-12 23:32:00,
2013-06-12 19:33:00,84.5,81.6,29.92,SSW,198,9.0,11.0,91,0.00,,BKN030,0.00,VWS V14.01,2013-06-12 23:33:00,
2013-06-12 19:34:00,84.5,81.9,29.91,SW,229,9.0,9.0,92,0.00,,SCT200,0.00,VWS V14.01,2013-06-12 23:34:00,
2013-06-12 19:35:00,84.5,81.9,29.92,SSW,203,8.0,9.0,92,0.00,,BKN030,0.00,VWS V14.01,2013-06-12 23:35:00,
2013-06-12 19:36:00,84.5,81.6,29.91,SW,221,10.0,10.0,91,0.00,,BKN030,0.00,VWS V14.01,2013-06-12 23:36:00,
2013-06-12 19:37:00,84.5,81.6,29.91,SSW,211,7.0,10.0,91,0.00,,BKN030,0.00,VWS V14.01,2013-06-12 23:37:00,
2013-06-12 19:38:00,84.5,81.6,29.91,South,188,9.0,9.0,91,0.00,,BKN030,0.00,VWS V14.01,2013-06-12 23:38:00,
2013-06-12 19:39:00,84.5,81.6,29.91,SSW,198,6.0,6.0,91,0.00,,SCT200,0.00,VWS V14.01,2013-06-12 23:39:00,
2013-06-12 19:40:00,84.5,81.6,29.91,WSW,243,6.0,11.0,91,0.00,,BKN030,0.00,VWS V14.01,2013-06-12 23:40:00,
2013-06-12 19:41:00,84.5,81.6,29.91,SSW,194,6.0,10.0,91,0.00,,BKN030,0.00,VWS V14.01,2013-06-12 23:41:00,
2013-06-12 19:42:00,84.5,81.6,29.91,SSW,192,7.0,10.0,91,0.00,,BKN030,0.00,VWS V14.01,2013-06-12 23:42:00,
2013-06-12 19:43:00,84.5,81.6,29.91,South,180,7.0,9.0,91,0.00,,BKN030,0.00,VWS V14.01,2013-06-12 23:43:00,
2013-06-12 19:44:00,84.5,81.9,29.91,SSW,198,9.0,10.0,92,0.00,,SCT200,0.00,VWS V14.01,2013-06-12 23:44:00,
2013-06-12 19:45:00,84.5,81.9,29.91,South,183,10.0,10.0,92,0.00,,BKN030,0.00,VWS V14.01,2013-06-12 23:45:00,
2013-06-12 19:46:00,84.5,81.9,29.91,South,170,8.0,10.0,92,0.00,,BKN030,0.00,VWS V14.01,2013-06-12 23:46:00,
2013-06-12 19:47:00,84.3,81.7,29.91,SSW,206,9.0,10.0,92,0.00,,BKN030,0.00,VWS V14.01,2013-06-12 23:47:00,
2013-06-12 19:48:00,84.3,81.7,29.91,South,180,10.0,12.0,92,0.00,,BKN030,0.00,VWS V14.01,2013-06-12 23:48:00,
2013-06-12 19:49:00,84.3,81.4,29.74,South,188,10.0,10.0,91,0.00,,SCT200,0.00,VWS V14.01,2013-06-12 23:49:00,
2013-06-12 19:50:00,84.3,81.4,29.75,South,177,9.0,12.0,91,0.00,,BKN030,0.00,VWS V14.01,2013-06-12 23:50:00,
2013-06-12 19:51:00,84.3,81.7,29.74,South,178,14.0,14.0,92,0.00,,BKN030,0.00,VWS V14.01,2013-06-12 23:51:00,
2013-06-12 19:52:00,84.3,81.7,29.74,South,188,14.0,14.0,92,0.00,,BKN030,0.00,VWS V14.01,2013-06-12 23:52:00,
2013-06-12 19:53:00,84.1,81.5,29.74,South,180,11.0,14.0,92,0.00,,BKN030,0.00,VWS V14.01,2013-06-12 23:53:00,
2013-06-12 19:54:00,84.1,81.5,29.91,South,185,11.0,12.0,92,0.00,,SCT200,0.00,VWS V14.01,2013-06-12 23:54:00,
2013-06-12 19:55:00,84.1,81.5,29.91,South,178,9.0,15.0,92,0.00,,BKN030,0.00,VWS V14.01,2013-06-12 23:55:00,
2013-06-12 19:56:00,84.1,81.5,29.91,South,182,12.0,12.0,92,0.00,,BKN030,0.00,VWS V14.01,2013-06-12 23:56:00,
2013-06-12 19:57:00,84.1,81.5,29.91,South,176,12.0,13.0,92,0.00,,BKN030,0.00,VWS V14.01,2013-06-12 23:57:00,
2013-06-12 19:58:00,84.1,81.5,29.91,SSW,196,13.0,14.0,92,0.00,,BKN030,0.00,VWS V14.01,2013-06-12 23:58:00,
2013-06-12 19:59:00,84.0,81.4,29.91,South,186,13.0,14.0,92,0.00,,SCT200,0.00,VWS V14.01,2013-06-12 23:59:00,
2013-06-12 20:00:00,84.0,81.4,29.91,South,180,13.0,14.0,92,0.00,,BKN030,0.00,VWS V14.01,2013-06-13 00:00:00,
2013-06-12 20:01:00,84.0,81.4,29.91,South,182,11.0,14.0,92,0.00,,BKN030,0.00,VWS V14.01,2013-06-13 00:01:00,
2013-06-12 20:02:00,84.0,81.4,29.91,South,178,10.0,12.0,92,0.00,,BKN030,0.00,VWS V14.01,2013-06-13 00:02:00,
2013-06-12 20:03:00,84.0,81.8,29.91,SSW,192,13.0,13.0,93,0.00,,BKN030,0.00,VWS V14.01,2013-06-13 00:03:00,
2013-06-12 20:04:00,84.0,80.8,29.91,South,185,10.0,10.0,90,0.00,,SCT200,0.00,VWS V14.01,2013-06-13 00:04:00,
2013-06-12 20:05:00,84.0,81.4,29.91,SSW,197,10.0,13.0,92,0.00,,BKN030,0.00,VWS V14.01,2013-06-13 00:05:00,
2013-06-12 20:06:00,84.0,80.8,29.91,South,184,9.0,10.0,90,0.00,,BKN030,0.00,VWS V14.01,2013-06-13 00:06:00,
2013-06-12 20:07:00,84.0,81.4,29.83,SSW,198,11.0,13.0,92,0.00,,BKN030,0.00,VWS V14.01,2013-06-13 00:07:00,
2013-06-12 20:08:00,84.0,81.4,29.83,South,182,10.0,13.0,92,0.00,,BKN030,0.00,VWS V14.01,2013-06-13 00:08:00,
2013-06-12 20:09:00,83.8,81.2,29.74,SW,222,11.0,11.0,92,0.00,,SCT200,0.00,VWS V14.01,2013-06-13 00:09:00,
2013-06-12 20:10:00,83.8,81.6,29.87,SSW,198,10.0,13.0,93,0.00,,BKN030,0.00,VWS V14.01,2013-06-13 00:10:00,
2013-06-12 20:11:00,83.8,81.2,29.74,SSW,192,13.0,13.0,92,0.00,,BKN030,0.00,VWS V14.01,2013-06-13 00:11:00,
2013-06-12 20:12:00,83.8,81.2,29.74,SSW,194,10.0,13.0,92,0.00,,BKN030,0.00,VWS V14.01,2013-06-13 00:12:00,
2013-06-12 20:13:00,83.8,81.2,29.74,South,190,10.0,12.0,92,0.00,,BKN030,0.00,VWS V14.01,2013-06-13 00:13:00,
2013-06-12 20:14:00,84.0,81.8,29.83,South,183,10.0,10.0,93,0.00,,FEW200,0.00,VWS V14.01,2013-06-13 00:14:00,
2013-06-12 20:15:00,84.0,81.8,29.74,SSW,200,9.0,11.0,93,0.00,,BKN030,0.00,VWS V14.01,2013-06-13 00:15:00,
2013-06-12 20:16:00,84.0,81.4,29.83,South,187,12.0,12.0,92,0.00,,BKN030,0.00,VWS V14.01,2013-06-13 00:16:00,
2013-06-12 20:17:00,83.8,81.2,29.83,South,177,7.0,12.0,92,0.00,,BKN030,0.00,VWS V14.01,2013-06-13 00:17:00,
2013-06-12 20:18:00,83.8,81.2,29.83,SSW,196,5.0,9.0,92,0.00,,BKN030,0.00,VWS V14.01,2013-06-13 00:18:00,
2013-06-12 20:19:00,83.8,81.6,29.91,SSW,208,11.0,11.0,93,0.00,,FEW200,0.00,VWS V14.01,2013-06-13 00:19:00,
2013-06-12 20:20:00,83.8,81.6,29.91,SSW,192,7.0,11.0,93,0.00,,BKN030,0.00,VWS V14.01,2013-06-13 00:20:00,
2013-06-12 20:21:00,83.8,81.2,29.91,SSW,209,11.0,12.0,92,0.00,,BKN030,0.00,VWS V14.01,2013-06-13 00:21:00,
2013-06-12 20:22:00,83.8,81.2,29.91,SSW,194,12.0,12.0,92,0.00,,BKN030,0.00,VWS V14.01,2013-06-13 00:22:00,
2013-06-12 20:23:00,83.8,81.2,29.91,SW,227,12.0,12.0,92,0.00,,BKN030,0.00,VWS V14.01,2013-06-13 00:23:00,
2013-06-12 20:24:00,83.8,81.2,29.91,SSW,201,12.0,12.0,92,0.00,,FEW200,0.00,VWS V14.01,2013-06-13 00:24:00,
2013-06-12 20:25:00,83.8,81.2,29.91,SSW,200,12.0,12.0,92,0.00,,BKN030,0.00,VWS V14.01,2013-06-13 00:25:00,
2013-06-12 20:26:00,83.8,81.2,29.91,SSE,159,12.0,12.0,92,0.00,,BKN030,0.00,VWS V14.01,2013-06-13 00:26:00,
2013-06-12 20:27:00,83.8,81.2,29.91,South,185,10.0,12.0,92,0.00,,BKN030,0.00,VWS V14.01,2013-06-13 00:27:00,
2013-06-12 20:28:00,83.8,81.2,29.91,SW,217,10.0,10.0,92,0.00,,BKN030,0.00,VWS V14.01,2013-06-13 00:28:00,
2013-06-12 20:29:00,83.8,81.2,29.91,SW,214,11.0,11.0,92,0.00,,FEW200,0.00,VWS V14.01,2013-06-13 00:29:00,
2013-06-12 20:30:00,83.8,81.2,29.91,South,190,9.0,11.0,92,0.00,,BKN030,0.00,VWS V14.01,2013-06-13 00:30:00,
2013-06-12 20:31:00,83.8,81.2,29.91,SSW,198,13.0,13.0,92,0.00,,BKN030,0.00,VWS V14.01,2013-06-13 00:31:00,
2013-06-12 20:32:00,83.8,81.2,29.91,SSE,164,12.0,13.0,92,0.00,,BKN030,0.00,VWS V14.01,2013-06-13 00:32:00,
2013-06-12 20:33:00,83.8,81.2,29.91,SSW,197,13.0,13.0,92,0.00,,BKN030,0.00,VWS V14.01,2013-06-13 00:33:00,
2013-06-12 20:34:00,84.0,81.8,29.91,South,188,13.0,14.0,93,0.00,,FEW200,0.00,VWS V14.01,2013-06-13 00:34:00,
2013-06-12 20:35:00,83.8,81.6,29.91,SSW,196,14.0,14.0,93,0.00,,BKN030,0.00,VWS V14.01,2013-06-13 00:35:00,
2013-06-12 20:36:00,84.0,81.4,29.92,SSW,210,13.0,14.0,92,0.00,,BKN030,0.00,VWS V14.01,2013-06-13 00:36:00,
2013-06-12 20:37:00,84.0,81.8,29.91,South,188,12.0,15.0,93,0.00,,BKN030,0.00,VWS V14.01,2013-06-13 00:37:00,
2013-06-12 20:38:00,83.8,81.2,29.91,SSE,163,10.0,15.0,92,0.00,,BKN030,0.00,VWS V14.01,2013-06-13 00:38:00,
2013-06-12 20:39:00,83.8,81.2,29.91,South,190,11.0,14.0,92,0.00,,FEW200,0.00,VWS V14.01,2013-06-13 00:39:00,
2013-06-12 20:40:00,83.8,81.2,29.91,SSW,200,14.0,14.0,92,0.00,,BKN030,0.00,VWS V14.01,2013-06-13 00:40:00,
2013-06-12 20:41:00,83.8,81.2,29.91,SSW,205,12.0,14.0,92,0.00,,BKN030,0.00,VWS V14.01,2013-06-13 00:41:00,
2013-06-12 20:42:00,83.8,81.6,29.92,SSW,199,10.0,14.0,93,0.00,,BKN030,0.00,VWS V14.01,2013-06-13 00:42:00,
2013-06-12 20:43:00,83.8,81.6,29.92,SSW,202,10.0,13.0,93,0.00,,BKN030,0.00,VWS V14.01,2013-06-13 00:43:00,
2013-06-12 20:44:00,83.6,81.0,29.92,SSW,209,9.0,12.0,92,0.00,,FEW200,0.00,VWS V14.01,2013-06-13 00:44:00,
2013-06-12 20:45:00,83.8,81.6,29.92,SSW,211,11.0,11.0,93,0.00,,BKN030,0.00,VWS V14.01,2013-06-13 00:45:00,
2013-06-12 20:46:00,83.6,81.0,29.92,SSW,211,10.0,12.0,92,0.00,,BKN030,0.00,VWS V14.01,2013-06-13 00:46:00,
2013-06-12 20:47:00,83.8,81.6,29.92,South,172,9.0,10.0,93,0.00,,BKN030,0.00,VWS V14.01,2013-06-13 00:47:00,
2013-06-12 20:48:00,83.8,81.6,29.92,SW,221,12.0,12.0,93,0.00,,BKN030,0.00,VWS V14.01,2013-06-13 00:48:00,
2013-06-12 20:49:00,83.6,81.4,29.92,SSW,209,11.0,11.0,93,0.00,,FEW200,0.00,VWS V14.01,2013-06-13 00:49:00,
2013-06-12 20:50:00,83.6,81.4,29.92,SSW,209,9.0,11.0,93,0.00,,BKN030,0.00,VWS V14.01,2013-06-13 00:50:00,
2013-06-12 20:51:00,83.6,81.4,29.92,SW,217,10.0,11.0,93,0.00,,BKN030,0.00,VWS V14.01,2013-06-13 00:51:00,
2013-06-12 20:52:00,83.6,81.4,29.92,SW,214,12.0,14.0,93,0.00,,BKN030,0.00,VWS V14.01,2013-06-13 00:52:00,
2013-06-12 20:53:00,83.6,81.4,29.92,SSW,192,7.0,12.0,93,0.00,,BKN030,0.00,VWS V14.01,2013-06-13 00:53:00,
2013-06-12 20:54:00,83.8,81.6,29.92,SW,214,10.0,10.0,93,0.00,,FEW200,0.00,VWS V14.01,2013-06-13 00:54:00,
2013-06-12 20:55:00,83.6,81.4,29.92,SW,221,6.0,11.0,93,0.00,,BKN030,0.00,VWS V14.01,2013-06-13 00:55:00,
2013-06-12 20:56:00,83.8,81.6,29.92,SW,220,9.0,10.0,93,0.00,,BKN030,0.00,VWS V14.01,2013-06-13 00:56:00,
2013-06-12 20:57:00,83.8,81.6,29.92,SW,221,11.0,11.0,93,0.00,,BKN030,0.00,VWS V14.01,2013-06-13 00:57:00,
2013-06-12 20:58:00,83.8,81.6,29.92,SW,217,9.0,11.0,93,0.00,,BKN030,0.00,VWS V14.01,2013-06-13 00:58:00,
2013-06-12 20:59:00,83.8,81.6,29.92,SSW,210,12.0,12.0,93,0.00,,FEW200,0.00,VWS V14.01,2013-06-13 00:59:00,
2013-06-12 21:00:00,83.8,81.6,29.92,SW,227,12.0,12.0,93,0.00,,BKN030,0.00,VWS V14.01,2013-06-13 01:00:00,
2013-06-12 21:01:00,83.8,81.6,29.92,SSW,206,7.0,12.0,93,0.00,,BKN030,0.00,VWS V14.01,2013-06-13 01:01:00,
2013-06-12 21:02:00,83.8,81.6,29.92,South,190,9.0,9.0,93,0.00,,BKN030,0.00,VWS V14.01,2013-06-13 01:02:00,
2013-06-12 21:03:00,83.8,81.6,29.92,SW,216,7.0,11.0,93,0.00,,BKN030,0.00,VWS V14.01,2013-06-13 01:03:00,
2013-06-12 21:04:00,83.8,81.6,29.92,South,186,7.0,7.0,93,0.00,,FEW200,0.00,VWS V14.01,2013-06-13 01:04:00,
2013-06-12 21:05:00,83.8,81.6,29.92,South,185,7.0,12.0,93,0.00,,BKN030,0.00,VWS V14.01,2013-06-13 01:05:00,
2013-06-12 21:06:00,83.8,81.6,29.92,SSW,212,11.0,11.0,93,0.00,,BKN030,0.00,VWS V14.01,2013-06-13 01:06:00,
2013-06-12 21:07:00,83.6,81.4,29.92,SSW,211,9.0,11.0,93,0.00,,BKN030,0.00,VWS V14.01,2013-06-13 01:07:00,
2013-06-12 21:08:00,83.6,81.4,29.92,SSW,207,13.0,13.0,93,0.00,,BKN030,0.00,VWS V14.01,2013-06-13 01:08:00,
2013-06-12 21:09:00,83.6,81.4,29.92,SSW,209,11.0,11.0,93,0.00,,FEW200,0.00,VWS V14.01,2013-06-13 01:09:00,
2013-06-12 21:10:00,83.6,81.4,29.92,SSW,202,7.0,9.0,93,0.00,,BKN030,0.00,VWS V14.01,2013-06-13 01:10:00,
2013-06-12 21:11:00,83.6,81.4,29.92,SW,233,8.0,11.0,93,0.00,,BKN030,0.00,VWS V14.01,2013-06-13 01:11:00,
2013-06-12 21:12:00,83.6,81.4,29.92,SW,236,9.0,11.0,93,0.00,,BKN030,0.00,VWS V14.01,2013-06-13 01:12:00,
2013-06-12 21:13:00,83.6,81.4,29.92,SW,225,10.0,10.0,93,0.00,,BKN030,0.00,VWS V14.01,2013-06-13 01:13:00,
2013-06-12 21:14:00,83.6,81.7,29.92,SSW,209,7.0,10.0,94,0.00,,FEW200,0.00,VWS V14.01,2013-06-13 01:14:00,
2013-06-12 21:15:00,83.6,81.7,29.92,SSW,196,10.0,10.0,94,0.00,,BKN030,0.00,VWS V14.01,2013-06-13 01:15:00,
2013-06-12 21:16:00,83.6,81.4,29.92,SSW,200,10.0,10.0,93,0.00,,BKN030,0.00,VWS V14.01,2013-06-13 01:16:00,
2013-06-12 21:17:00,83.6,81.4,29.92,SSW,194,10.0,13.0,93,0.00,,BKN030,0.00,VWS V14.01,2013-06-13 01:17:00,
2013-06-12 21:18:00,83.4,81.2,29.92,SW,217,6.0,11.0,93,0.00,,BKN030,0.00,VWS V14.01,2013-06-13 01:18:00,
2013-06-12 21:19:00,83.4,81.2,29.92,SSW,200,6.0,9.0,93,0.00,,FEW200,0.00,VWS V14.01,2013-06-13 01:19:00,
2013-06-12 21:20:00,83.4,81.2,29.92,SSW,210,9.0,9.0,93,0.00,,BKN030,0.00,VWS V14.01,2013-06-13 01:20:00,
2013-06-12 21:21:00,83.6,81.7,29.92,South,190,6.0,9.0,94,0.00,,BKN030,0.00,VWS V14.01,2013-06-13 01:21:00,
2013-06-12 21:22:00,83.6,81.7,29.92,SSW,202,5.0,6.0,94,0.00,,BKN030,0.00,VWS V14.01,2013-06-13 01:22:00,
2013-06-12 21:23:00,83.6,81.7,29.92,South,186,7.0,7.0,94,0.00,,BKN030,0.00,VWS V14.01,2013-06-13 01:23:00,
2013-06-12 21:24:00,83.6,81.7,29.92,SSW,205,8.0,11.0,94,0.00,,FEW200,0.00,VWS V14.01,2013-06-13 01:24:00,
2013-06-12 21:25:00,83.6,81.7,29.92,SSW,205,8.0,11.0,94,0.00,,BKN030,0.00,VWS V14.01,2013-06-13 01:25:00,
2013-06-12 21:26:00,83.4,81.5,29.92,SSW,198,6.0,9.0,94,0.00,,BKN030,0.00,VWS V14.01,2013-06-13 01:26:00,
2013-06-12 21:27:00,83.4,81.5,29.92,SSW,205,10.0,10.0,94,0.00,,BKN030,0.00,VWS V14.01,2013-06-13 01:27:00,
2013-06-12 21:28:00,83.4,81.2,29.92,SSW,203,9.0,10.0,93,0.00,,BKN030,0.00,VWS V14.01,2013-06-13 01:28:00,
2013-06-12 21:29:00,83.4,81.5,29.92,SSW,203,8.0,8.0,94,0.00,,FEW200,0.00,VWS V14.01,2013-06-13 01:29:00,
2013-06-12 21:30:00,83.4,81.5,29.92,SSW,203,8.0,8.0,94,0.00,,BKN030,0.00,VWS V14.01,2013-06-13 01:30:00,
2013-06-12 21:31:00,83.4,81.5,29.92,South,184,9.0,11.0,94,0.00,,BKN030,0.00,VWS V14.01,2013-06-13 01:31:00,
2013-06-12 21:32:00,83.4,81.5,29.93,South,190,6.0,9.0,94,0.00,,BKN030,0.00,VWS V14.01,2013-06-13 01:32:00,
2013-06-12 21:33:00,83.4,81.5,29.93,SSW,195,6.0,7.0,94,0.00,,BKN030,0.00,VWS V14.01,2013-06-13 01:33:00,
2013-06-12 21:34:00,83.4,81.5,29.93,SSW,207,8.0,8.0,94,0.00,,FEW200,0.00,VWS V14.01,2013-06-13 01:34:00,
2013-06-12 21:35:00,83.4,81.5,29.93,SSW,205,6.0,9.0,94,0.00,,BKN030,0.00,VWS V14.01,2013-06-13 01:35:00,
2013-06-12 21:36:00,83.4,81.5,29.93,SW,234,6.0,8.0,94,0.00,,BKN030,0.00,VWS V14.01,2013-06-13 01:36:00,
2013-06-12 21:37:00,83.4,81.5,29.93,South,188,7.0,9.0,94,0.00,,BKN030,0.00,VWS V14.01,2013-06-13 01:37:00,
2013-06-12 21:38:00,83.4,81.5,29.93,SSW,202,12.0,12.0,94,0.00,,BKN030,0.00,VWS V14.01,2013-06-13 01:38:00,
2013-06-12 21:39:00,83.4,81.5,29.93,SSW,205,9.0,9.0,94,0.00,,FEW200,0.00,VWS V14.01,2013-06-13 01:39:00,
2013-06-12 21:40:00,83.4,81.5,29.93,SSW,195,6.0,9.0,94,0.00,,BKN030,0.00,VWS V14.01,2013-06-13 01:40:00,
2013-06-12 21:41:00,83.4,81.5,29.93,SSW,201,7.0,10.0,94,0.00,,BKN030,0.00,VWS V14.01,2013-06-13 01:41:00,
2013-06-12 21:42:00,83.4,81.5,29.93,SW,221,6.0,7.0,94,0.00,,BKN030,0.00,VWS V14.01,2013-06-13 01:42:00,
2013-06-12 21:43:00,83.4,81.5,29.93,SSW,207,9.0,9.0,94,0.00,,BKN030,0.00,VWS V14.01,2013-06-13 01:43:00,
2013-06-12 21:44:00,83.4,81.5,29.93,SSW,193,7.0,7.0,94,0.00,,FEW200,0.00,VWS V14.01,2013-06-13 01:44:00,
2013-06-12 21:45:00,83.4,81.5,29.93,SSW,196,6.0,7.0,94,0.00,,BKN030,0.00,VWS V14.01,2013-06-13 01:45:00,
2013-06-12 21:46:00,83.4,81.5,29.93,SW,229,9.0,10.0,94,0.00,,BKN030,0.00,VWS V14.01,2013-06-13 01:46:00,
2013-06-12 21:47:00,83.4,81.5,29.93,SW,221,6.0,9.0,94,0.00,,BKN030,0.00,VWS V14.01,2013-06-13 01:47:00,
2013-06-12 21:48:00,83.4,81.5,29.93,SSW,197,6.0,9.0,94,0.00,,BKN030,0.00,VWS V14.01,2013-06-13 01:48:00,
2013-06-12 21:49:00,83.4,81.8,29.93,SW,217,7.0,7.0,95,0.00,,FEW200,0.00,VWS V14.01,2013-06-13 01:49:00,
2013-06-12 21:50:00,83.4,81.8,29.93,SSW,203,6.0,9.0,95,0.00,,BKN030,0.00,VWS V14.01,2013-06-13 01:50:00,
2013-06-12 21:51:00,83.4,81.8,29.93,SSW,192,7.0,7.0,95,0.00,,BKN030,0.00,VWS V14.01,2013-06-13 01:51:00,
2013-06-12 21:52:00,83.4,81.5,29.93,SSW,208,5.0,10.0,94,0.00,,BKN030,0.00,VWS V14.01,2013-06-13 01:52:00,
2013-06-12 21:53:00,83.4,81.8,29.93,SW,231,9.0,10.0,95,0.00,,BKN030,0.00,VWS V14.01,2013-06-13 01:53:00,
2013-06-12 21:54:00,83.2,81.6,29.93,SSW,199,9.0,10.0,95,0.00,,FEW200,0.00,VWS V14.01,2013-06-13 01:54:00,
2013-06-12 21:55:00,83.2,81.6,29.93,SSW,199,9.0,10.0,95,0.00,,BKN030,0.00,VWS V14.01,2013-06-13 01:55:00,
2013-06-12 21:56:00,83.2,81.3,29.93,South,169,11.0,11.0,94,0.00,,BKN030,0.00,VWS V14.01,2013-06-13 01:56:00,
2013-06-12 21:57:00,83.2,81.6,29.93,South,183,13.0,13.0,95,0.00,,BKN030,0.00,VWS V14.01,2013-06-13 01:57:00,
2013-06-12 21:58:00,83.2,81.6,29.93,South,180,7.0,13.0,95,0.00,,BKN030,0.00,VWS V14.01,2013-06-13 01:58:00,
2013-06-12 21:59:00,83.2,81.3,29.93,South,180,11.0,12.0,94,0.00,,FEW200,0.00,VWS V14.01,2013-06-13 01:59:00,
2013-06-12 22:00:00,83.2,81.3,29.93,South,184,12.0,12.0,94,0.00,,BKN030,0.00,VWS V14.01,2013-06-13 02:00:00,
2013-06-12 22:01:00,83.2,81.3,29.93,SSE,167,11.0,12.0,94,0.00,,BKN030,0.00,VWS V14.01,2013-06-13 02:01:00,
2013-06-12 22:02:00,83.2,81.3,29.93,SSW,200,8.0,11.0,94,0.00,,BKN030,0.00,VWS V14.01,2013-06-13 02:02:00,
2013-06-12 22:03:00,83.2,81.6,29.93,SSW,204,9.0,10.0,95,0.00,,BKN030,0.00,VWS V14.01,2013-06-13 02:03:00,
2013-06-12 22:04:00,83.2,81.6,29.93,SSW,205,9.0,10.0,95,0.00,,FEW200,0.00,VWS V14.01,2013-06-13 02:04:00,
2013-06-12 22:05:00,83.2,81.6,29.93,SSW,205,9.0,10.0,95,0.00,,BKN030,0.00,VWS V14.01,2013-06-13 02:05:00,
2013-06-12 22:06:00,83.2,81.6,29.93,SW,220,10.0,10.0,95,0.00,,BKN030,0.00,VWS V14.01,2013-06-13 02:06:00,
2013-06-12 22:07:00,83.2,81.6,29.93,SW,216,10.0,12.0,95,0.00,,BKN030,0.00,VWS V14.01,2013-06-13 02:07:00,
2013-06-12 22:08:00,83.2,81.6,29.93,SSW,193,7.0,10.0,95,0.00,,BKN030,0.00,VWS V14.01,2013-06-13 02:08:00,
2013-06-12 22:09:00,83.2,81.3,29.93,SW,225,10.0,10.0,94,0.00,,FEW200,0.00,VWS V14.01,2013-06-13 02:09:00,
2013-06-12 22:10:00,83.2,81.3,29.93,SSW,194,9.0,12.0,94,0.00,,BKN030,0.00,VWS V14.01,2013-06-13 02:10:00,
2013-06-12 22:11:00,83.2,81.3,29.93,SSW,199,7.0,10.0,94,0.00,,BKN030,0.00,VWS V14.01,2013-06-13 02:11:00,
2013-06-12 22:12:00,83.2,81.6,29.93,SW,218,9.0,11.0,95,0.00,,BKN030,0.00,VWS V14.01,2013-06-13 02:12:00,
2013-06-12 22:13:00,83.2,81.6,29.93,SSW,208,12.0,12.0,95,0.00,,BKN030,0.00,VWS V14.01,2013-06-13 02:13:00,
2013-06-12 22:14:00,83.2,81.6,29.93,SSW,200,8.0,8.0,95,0.00,,FEW200,0.00,VWS V14.01,2013-06-13 02:14:00,
2013-06-12 22:15:00,83.2,81.6,29.93,SSW,203,8.0,9.0,95,0.00,,BKN030,0.00,VWS V14.01,2013-06-13 02:15:00,
2013-06-12 22:16:00,83.2,81.6,29.93,SW,222,10.0,12.0,95,0.00,,BKN030,0.00,VWS V14.01,2013-06-13 02:16:00,
2013-06-12 22:17:00,83.2,81.3,29.93,South,169,7.0,12.0,94,0.00,,BKN030,0.00,VWS V14.01,2013-06-13 02:17:00,
2013-06-12 22:18:00,83.2,81.3,29.94,SSW,192,9.0,13.0,94,0.00,,BKN030,0.00,VWS V14.01,2013-06-13 02:18:00,
2013-06-12 22:19:00,83.2,81.6,29.94,South,189,10.0,10.0,95,0.00,,FEW200,0.00,VWS V14.01,2013-06-13 02:19:00,
2013-06-12 22:20:00,83.2,81.6,29.94,SW,231,10.0,10.0,95,0.00,,BKN030,0.00,VWS V14.01,2013-06-13 02:20:00,
2013-06-12 22:21:00,83.2,81.6,29.94,South,186,9.0,10.0,95,0.00,,BKN030,0.00,VWS V14.01,2013-06-13 02:21:00,
2013-06-12 22:22:00,83.2,81.6,29.94,SSW,205,7.0,11.0,95,0.00,,BKN030,0.00,VWS V14.01,2013-06-13 02:22:00,
2013-06-12 22:23:00,83.2,81.3,29.94,South,181,10.0,11.0,94,0.00,,BKN030,0.00,VWS V14.01,2013-06-13 02:23:00,
2013-06-12 22:24:00,83.2,81.6,29.94,SSW,194,10.0,11.0,95,0.00,,FEW200,0.00,VWS V14.01,2013-06-13 02:24:00,
2013-06-12 22:25:00,83.2,81.6,29.94,SSW,194,10.0,11.0,95,0.00,,BKN030,0.00,VWS V14.01,2013-06-13 02:25:00,
2013-06-12 22:26:00,83.2,81.6,29.94,SSW,202,10.0,12.0,95,0.00,,BKN030,0.00,VWS V14.01,2013-06-13 02:26:00,
2013-06-12 22:27:00,83.2,81.6,29.94,South,183,11.0,12.0,95,0.00,,BKN030,0.00,VWS V14.01,2013-06-13 02:27:00,
2013-06-12 22:28:00,83.2,81.6,29.94,SSW,200,10.0,12.0,95,0.00,,BKN030,0.00,VWS V14.01,2013-06-13 02:28:00,
2013-06-12 22:29:00,83.2,81.6,29.94,SSW,201,10.0,10.0,95,0.00,,FEW200,0.00,VWS V14.01,2013-06-13 02:29:00,
2013-06-12 22:30:00,83.2,81.6,29.94,SSW,201,10.0,10.0,95,0.00,,BKN030,0.00,VWS V14.01,2013-06-13 02:30:00,
2013-06-12 22:31:00,83.2,81.6,29.94,SSW,196,7.0,10.0,95,0.00,,BKN030,0.00,VWS V14.01,2013-06-13 02:31:00,
2013-06-12 22:32:00,83.2,81.6,29.94,SSW,192,9.0,9.0,95,0.00,,BKN030,0.00,VWS V14.01,2013-06-13 02:32:00,
2013-06-12 22:33:00,83.2,81.6,29.94,WSW,247,12.0,12.0,95,0.00,,BKN030,0.00,VWS V14.01,2013-06-13 02:33:00,
2013-06-12 22:34:00,83.2,81.6,29.94,SW,220,6.0,10.0,95,0.00,,FEW200,0.00,VWS V14.01,2013-06-13 02:34:00,
2013-06-12 22:35:00,83.2,81.6,29.94,SW,220,6.0,10.0,95,0.00,,BKN030,0.00,VWS V14.01,2013-06-13 02:35:00,
2013-06-12 22:36:00,83.2,81.6,29.94,SW,234,8.0,8.0,95,0.00,,BKN030,0.00,VWS V14.01,2013-06-13 02:36:00,
2013-06-12 22:37:00,83.2,81.6,29.94,SSW,196,9.0,10.0,95,0.00,,BKN030,0.00,VWS V14.01,2013-06-13 02:37:00,
2013-06-12 22:38:00,83.2,81.6,29.94,SSW,197,6.0,9.0,95,0.00,,BKN030,0.00,VWS V14.01,2013-06-13 02:38:00,
2013-06-12 22:39:00,83.0,81.4,29.94,SSW,206,12.0,12.0,95,0.00,,FEW200,0.00,VWS V14.01,2013-06-13 02:39:00,
2013-06-12 22:40:00,83.0,81.4,29.94,SW,217,11.0,11.0,95,0.00,,BKN030,0.00,VWS V14.01,2013-06-13 02:40:00,
2013-06-12 22:41:00,83.0,81.4,29.94,SSW,207,13.0,13.0,95,0.00,,BKN030,0.00,VWS V14.01,2013-06-13 02:41:00,
2013-06-12 22:42:00,83.0,81.4,29.94,SSW,196,6.0,13.0,95,0.00,,BKN030,0.00,VWS V14.01,2013-06-13 02:42:00,
2013-06-12 22:43:00,83.0,81.4,29.94,SSW,211,10.0,12.0,95,0.00,,BKN030,0.00,VWS V14.01,2013-06-13 02:43:00,
2013-06-12 22:44:00,83.0,81.4,29.94,SSW,202,7.0,10.0,95,0.00,,FEW200,0.00,VWS V14.01,2013-06-13 02:44:00,
2013-06-12 22:45:00,83.0,81.4,29.94,SSW,200,10.0,11.0,95,0.00,,BKN030,0.00,VWS V14.01,2013-06-13 02:45:00,
2013-06-12 22:46:00,83.0,81.4,29.94,SW,219,10.0,10.0,95,0.00,,BKN030,0.00,VWS V14.01,2013-06-13 02:46:00,
2013-06-12 22:47:00,83.0,81.4,29.94,SW,235,10.0,10.0,95,0.00,,BKN030,0.00,VWS V14.01,2013-06-13 02:47:00,
2013-06-12 22:48:00,83.0,81.4,29.94,SW,215,10.0,12.0,95,0.00,,BKN030,0.00,VWS V14.01,2013-06-13 02:48:00,
2013-06-12 22:49:00,83.0,81.4,29.94,SSW,213,12.0,12.0,95,0.00,,FEW200,0.00,VWS V14.01,2013-06-13 02:49:00,
2013-06-12 22:50:00,83.0,81.4,29.94,SSW,204,9.0,12.0,95,0.00,,BKN030,0.00,VWS V14.01,2013-06-13 02:50:00,
2013-06-12 22:51:00,83.0,81.4,29.94,SW,215,9.0,12.0,95,0.00,,BKN030,0.00,VWS V14.01,2013-06-13 02:51:00,
2013-06-12 22:52:00,83.0,81.4,29.94,South,188,9.0,12.0,95,0.00,,BKN030,0.00,VWS V14.01,2013-06-13 02:52:00,
2013-06-12 22:53:00,83.0,81.4,29.94,SW,219,14.0,14.0,95,0.00,,BKN030,0.00,VWS V14.01,2013-06-13 02:53:00,
2013-06-12 22:54:00,83.0,81.4,29.94,SSW,207,10.0,11.0,95,0.00,,FEW200,0.00,VWS V14.01,2013-06-13 02:54:00,
2013-06-12 22:55:00,83.0,81.4,29.94,SSW,207,10.0,11.0,95,0.00,,BKN030,0.00,VWS V14.01,2013-06-13 02:55:00,
2013-06-12 22:56:00,83.0,81.4,29.94,SSW,194,13.0,13.0,95,0.00,,BKN030,0.00,VWS V14.01,2013-06-13 02:56:00,
2013-06-12 22:57:00,83.0,81.4,29.94,SW,217,13.0,13.0,95,0.00,,BKN030,0.00,VWS V14.01,2013-06-13 02:57:00,
2013-06-12 22:58:00,83.0,81.4,29.94,SW,217,11.0,14.0,95,0.00,,BKN030,0.00,VWS V14.01,2013-06-13 02:58:00,
2013-06-12 22:59:00,83.0,81.4,29.93,South,175,8.0,13.0,95,0.00,,FEW200,0.00,VWS V14.01,2013-06-13 02:59:00,
2013-06-12 23:00:00,83.0,81.4,29.93,South,175,8.0,13.0,95,0.00,,BKN030,0.00,VWS V14.01,2013-06-13 03:00:00,
2013-06-12 23:01:00,83.0,81.4,29.94,South,183,12.0,12.0,95,0.00,,BKN030,0.00,VWS V14.01,2013-06-13 03:01:00,
2013-06-12 23:02:00,83.0,81.4,29.94,SSW,192,9.0,12.0,95,0.00,,BKN030,0.00,VWS V14.01,2013-06-13 03:02:00,
2013-06-12 23:03:00,83.0,81.4,29.94,SSW,210,12.0,12.0,95,0.00,,BKN030,0.00,VWS V14.01,2013-06-13 03:03:00,
2013-06-12 23:04:00,83.0,81.4,29.93,South,184,11.0,11.0,95,0.00,,FEW200,0.00,VWS V14.01,2013-06-13 03:04:00,
2013-06-12 23:05:00,83.0,81.4,29.93,South,184,11.0,11.0,95,0.00,,BKN030,0.00,VWS V14.01,2013-06-13 03:05:00,
2013-06-12 23:06:00,83.0,81.4,29.93,SSW,199,14.0,14.0,95,0.00,,BKN030,0.00,VWS V14.01,2013-06-13 03:06:00,
2013-06-12 23:07:00,83.0,81.4,29.93,SSW,206,10.0,14.0,95,0.00,,BKN030,0.00,VWS V14.01,2013-06-13 03:07:00,
2013-06-12 23:08:00,83.0,81.4,29.93,SSW,194,11.0,12.0,95,0.00,,BKN030,0.00,VWS V14.01,2013-06-13 03:08:00,
2013-06-12 23:09:00,83.0,81.4,29.93,SSW,211,11.0,12.0,95,0.00,,FEW200,0.00,VWS V14.01,2013-06-13 03:09:00,
2013-06-12 23:10:00,83.0,81.4,29.93,SSW,211,11.0,12.0,95,0.00,,BKN030,0.00,VWS V14.01,2013-06-13 03:10:00,
2013-06-12 23:11:00,82.8,81.2,29.93,SSW,206,10.0,13.0,95,0.00,,BKN030,0.00,VWS V14.01,2013-06-13 03:11:00,
2013-06-12 23:12:00,82.8,81.2,29.93,South,190,11.0,15.0,95,0.00,,BKN030,0.00,VWS V14.01,2013-06-13 03:12:00,
2013-06-12 23:13:00,82.8,81.2,29.94,SW,215,12.0,12.0,95,0.00,,BKN030,0.00,VWS V14.01,2013-06-13 03:13:00,
2013-06-12 23:14:00,82.8,81.2,29.93,SSW,196,12.0,13.0,95,0.00,,FEW200,0.00,VWS V14.01,2013-06-13 03:14:00,
2013-06-12 23:15:00,82.8,81.2,29.93,SSW,196,12.0,13.0,95,0.00,,BKN030,0.00,VWS V14.01,2013-06-13 03:15:00,
2013-06-12 23:16:00,82.8,81.2,29.93,South,181,12.0,14.0,95,0.00,,BKN030,0.00,VWS V14.01,2013-06-13 03:16:00,
2013-06-12 23:17:00,82.8,81.2,29.94,South,180,10.0,13.0,95,0.00,,BKN030,0.00,VWS V14.01,2013-06-13 03:17:00,
2013-06-12 23:18:00,82.8,81.2,29.94,South,188,9.0,13.0,95,0.00,,BKN030,0.00,VWS V14.01,2013-06-13 03:18:00,
2013-06-12 23:19:00,82.8,81.2,29.94,SW,228,12.0,15.0,95,0.00,,FEW200,0.00,VWS V14.01,2013-06-13 03:19:00,
2013-06-12 23:20:00,82.8,81.2,29.94,SW,228,12.0,15.0,95,0.00,,BKN030,0.00,VWS V14.01,2013-06-13 03:20:00,
2013-06-12 23:21:00,82.8,81.2,29.94,SSW,211,16.0,16.0,95,0.00,,BKN030,0.00,VWS V14.01,2013-06-13 03:21:00,
2013-06-12 23:22:00,82.8,81.2,29.94,South,190,14.0,16.0,95,0.00,,BKN030,0.00,VWS V14.01,2013-06-13 03:22:00,
2013-06-12 23:23:00,82.8,81.2,29.94,SSW,207,15.0,15.0,95,0.00,,BKN030,0.00,VWS V14.01,2013-06-13 03:23:00,
2013-06-12 23:24:00,82.8,81.2,29.94,SW,217,11.0,14.0,95,0.00,,FEW200,0.00,VWS V14.01,2013-06-13 03:24:00,
2013-06-12 23:25:00,82.8,81.2,29.94,SW,217,11.0,14.0,95,0.00,,BKN030,0.00,VWS V14.01,2013-06-13 03:25:00,
2013-06-12 23:26:00,82.8,81.2,29.94,South,184,14.0,14.0,95,0.00,,BKN030,0.00,VWS V14.01,2013-06-13 03:26:00,
2013-06-12 23:27:00,82.8,81.6,29.94,SSW,205,14.0,15.0,96,0.00,,BKN030,0.00,VWS V14.01,2013-06-13 03:27:00,
2013-06-12 23:28:00,82.8,81.2,29.94,SSW,205,12.0,15.0,95,0.00,,BKN030,0.00,VWS V14.01,2013-06-13 03:28:00,
2013-06-12 23:29:00,82.6,81.0,29.93,SSW,210,14.0,14.0,95,0.00,,FEW200,0.00,VWS V14.01,2013-06-13 03:29:00,
2013-06-12 23:30:00,82.8,81.2,29.93,SSW,199,12.0,16.0,95,0.00,,BKN030,0.00,VWS V14.01,2013-06-13 03:30:00,
2013-06-12 23:31:00,82.6,81.0,29.93,SSW,207,13.0,17.0,95,0.00,,BKN030,0.00,VWS V14.01,2013-06-13 03:31:00,
2013-06-12 23:32:00,82.6,81.0,29.93,SW,215,11.0,13.0,95,0.00,,BKN030,0.00,VWS V14.01,2013-06-13 03:32:00,
2013-06-12 23:33:00,82.6,81.0,29.93,South,189,14.0,14.0,95,0.00,,BKN030,0.00,VWS V14.01,2013-06-13 03:33:00,
2013-06-12 23:34:00,82.6,81.0,29.93,SSW,207,16.0,16.0,95,0.00,,FEW200,0.00,VWS V14.01,2013-06-13 03:34:00,
2013-06-12 23:35:00,82.6,81.0,29.93,SSW,204,13.0,15.0,95,0.00,,BKN030,0.00,VWS V14.01,2013-06-13 03:35:00,
2013-06-12 23:36:00,82.6,81.0,29.93,SW,221,14.0,16.0,95,0.00,,BKN030,0.00,VWS V14.01,2013-06-13 03:36:00,
2013-06-12 23:37:00,82.6,81.0,29.93,SSW,205,13.0,16.0,95,0.00,,BKN030,0.00,VWS V14.01,2013-06-13 03:37:00,
2013-06-12 23:38:00,82.6,81.0,29.93,SSW,203,12.0,16.0,95,0.00,,BKN030,0.00,VWS V14.01,2013-06-13 03:38:00,
2013-06-12 23:39:00,82.6,81.0,29.93,SSW,208,12.0,12.0,95,0.00,,FEW200,0.00,VWS V14.01,2013-06-13 03:39:00,
2013-06-12 23:40:00,82.6,81.0,29.93,SSW,208,12.0,12.0,95,0.00,,BKN030,0.00,VWS V14.01,2013-06-13 03:40:00,
2013-06-12 23:41:00,82.8,81.2,29.93,SSW,202,15.0,15.0,95,0.00,,BKN030,0.00,VWS V14.01,2013-06-13 03:41:00,
2013-06-12 23:42:00,82.8,81.2,29.93,SSW,213,11.0,15.0,95,0.00,,BKN030,0.00,VWS V14.01,2013-06-13 03:42:00,
2013-06-12 23:43:00,82.8,81.2,29.93,SSW,192,11.0,13.0,95,0.00,,BKN030,0.00,VWS V14.01,2013-06-13 03:43:00,
2013-06-12 23:44:00,82.6,81.0,29.93,SW,221,14.0,15.0,95,0.00,,FEW200,0.00,VWS V14.01,2013-06-13 03:44:00,
2013-06-12 23:45:00,82.6,81.0,29.93,SW,221,14.0,15.0,95,0.00,,BKN030,0.00,VWS V14.01,2013-06-13 03:45:00,
2013-06-12 23:46:00,82.6,81.0,29.93,SSW,200,13.0,14.0,95,0.00,,BKN030,0.00,VWS V14.01,2013-06-13 03:46:00,
2013-06-12 23:47:00,82.6,81.0,29.93,SSW,207,14.0,14.0,95,0.00,,BKN030,0.00,VWS V14.01,2013-06-13 03:47:00,
2013-06-12 23:48:00,82.6,81.0,29.93,SSW,200,14.0,14.0,95,0.00,,BKN030,0.00,VWS V14.01,2013-06-13 03:48:00,
2013-06-12 23:49:00,82.6,81.0,29.93,SSW,210,11.0,18.0,95,0.00,,FEW200,0.00,VWS V14.01,2013-06-13 03:49:00,
2013-06-12 23:50:00,82.6,81.0,29.93,SSW,210,11.0,18.0,95,0.00,,BKN030,0.00,VWS V14.01,2013-06-13 03:50:00,
2013-06-12 23:51:00,82.6,81.0,29.93,SSW,212,11.0,15.0,95,0.00,,BKN030,0.00,VWS V14.01,2013-06-13 03:51:00,
2013-06-12 23:52:00,82.6,81.0,29.93,SSW,207,11.0,12.0,95,0.00,,BKN030,0.00,VWS V14.01,2013-06-13 03:52:00,
2013-06-12 23:53:00,82.6,81.0,29.93,SW,223,12.0,15.0,95,0.00,,BKN030,0.00,VWS V14.01,2013-06-13 03:53:00,
2013-06-12 23:54:00,82.6,81.0,29.93,SW,216,13.0,13.0,95,0.00,,FEW200,0.00,VWS V14.01,2013-06-13 03:54:00,
2013-06-12 23:55:00,82.6,81.0,29.93,SW,216,13.0,13.0,95,0.00,,BKN030,0.00,VWS V14.01,2013-06-13 03:55:00,
2013-06-12 23:56:00,82.6,81.0,29.93,SW,217,12.0,14.0,95,0.00,,BKN030,0.00,VWS V14.01,2013-06-13 03:56:00,
2013-06-12 23:57:00,82.6,81.0,29.93,SSW,207,11.0,12.0,95,0.00,,BKN030,0.00,VWS V14.01,2013-06-13 03:57:00,
2013-06-12 23:58:00,82.6,81.0,29.93,SSW,211,13.0,13.0,95,0.00,,BKN030,0.00,VWS V14.01,2013-06-13 03:58:00,
2013-06-12 23:59:00,82.6,81.0,29.93,WSW,237,9.0,14.0,95,0.00,,FEW200,0.00,VWS V14.01,2013-06-13 03:59:00,